[[{"header":{"parameterUnit":"m.s-1","parameterCategory":1,"la1":30.6,"la2":28.766,"lo1":-90.7593,"lo2":-88.6598,"dy":0.0162,"dx":0.0183,"nx":116,"ny":114,"refTime":"2024-03-13T06:00:00:Z","depth":0,"parameterNumber":2,"parameterNumberName":"U-component_of_WINDS"},"data":[0.0,0.0,0.0,0.0,0.0,0.0,0.0,0.0,0.0,0.0,0.0,0.0,0.0,0.0,0.0,0.0,0.0,0.0,0.0,0.0,0.0,0.0,0.0,0.0,0.0,0.0,0.0,0.0,0.0,0.0,0.0,0.0,0.0,0.0,0.0,0.0,0.0,0.0,0.0,0.0,0.0,0.0,0.0,0.0,0.0,0.0,0.0,0.0,0.0,0.0,0.0,0.0,0.0,0.0,0.0,0.0,0.0,0.0,0.0,0.0,0.0,0.0,0.0,0.0,0.0,0.0,0.0,0.0,0.0,0.0,0.0,0.0,0.0,0.0,0.0,0.0,0.0,0.0,0.0,0.0,0.0,0.0,0.0,0.0,0.0,0.0,0.0,0.0,0.0,0.0,0.0,0.0,0.0,0.0,0.0,0.0,0.0,0.0,0.0,0.0,0.0,0.0,0.0,0.0,0.0,0.0,0.0,0.0,0.0,0.0,0.0,0.0,0.0,0.0,0.0,0.0,0.0,0.0,0.0,0.0,0.0,0.0,0.0,0.0,0.0,0.0,0.0,0.0,0.0,0.0,0.0,0.0,0.0,0.0,0.0,0.0,0.0,0.0,0.0,0.0,0.0,0.0,0.0,0.0,0.0,0.0,0.0,0.0,0.0,0.0,0.0,0.0,0.0,0.0,0.0,0.0,0.0,0.0,0.0,0.0,0.0,0.0,0.0,0.0,0.0,0.0,0.0,0.0,0.0,0.0,0.0,0.0,0.0,0.0,0.0,0.0,0.0,0.0,0.0,0.0,0.0,0.0,0.0,0.0,0.0,0.0,0.0,0.0,0.0,0.0,0.0,0.0,0.0,0.0,0.0,0.0,0.0,0.0,0.0,0.0,0.0,0.0,0.0,0.0,0.0,0.0,0.0,0.0,0.0,0.0,0.0,0.0,0.0,0.0,0.0,0.0,0.0,0.0,0.0,0.0,0.0,0.0,0.0,0.0,0.0,0.0,0.0,0.0,0.0,0.0,0.0,0.0,0.0,0.0,0.0,0.0,0.0,0.0,0.0,0.0,0.0,0.0,0.0,0.0,0.0,0.0,0.0,0.0,0.0,0.0,0.0,0.0,0.0,0.0,0.0,0.0,0.0,0.0,0.0,0.0,0.0,0.0,0.0,0.0,0.0,0.0,0.0,0.0,0.0,0.0,0.0,0.0,0.0,0.0,0.0,0.0,0.0,0.0,0.0,0.0,0.0,0.0,0.0,0.0,0.0,0.0,0.0,0.0,0.0,0.0,0.0,0.0,0.0,0.0,0.0,0.0,0.0,0.0,0.0,0.0,0.0,0.0,0.0,0.0,0.0,0.0,0.0,0.0,0.0,0.0,0.0,0.0,0.0,0.0,0.0,0.0,0.0,0.0,0.0,0.0,0.0,0.0,0.0,0.0,0.0,0.0,0.0,0.0,0.0,0.0,0.0,0.0,0.0,0.0,0.0,0.0,0.0,0.0,0.0,0.0,0.0,0.0,0.0,0.0,0.0,0.0,0.0,0.0,0.0,0.0,0.0,0.0,0.0,0.0,0.0,0.0,0.0,0.0,0.0,0.0,0.0,0.0,0.0,0.0,0.0,0.0,0.0,0.0,0.0,0.0,0.0,0.0,0.0,0.0,0.0,0.0,0.0,0.0,0.0,0.0,0.0,0.0,0.0,0.0,0.0,0.0,0.0,0.0,0.0,0.0,0.0,0.0,0.0,0.0,0.0,0.0,0.0,0.0,0.0,0.0,0.0,0.0,0.0,0.0,0.0,0.0,0.0,0.0,0.0,0.0,0.0,0.0,0.0,0.0,0.0,0.0,0.0,0.0,0.0,0.0,0.0,0.0,0.0,0.0,0.0,0.0,0.0,0.0,0.0,0.0,0.0,0.0,0.0,0.0,0.0,0.0,0.0,0.0,0.0,0.0,0.0,0.0,0.0,0.0,0.0,0.0,0.0,0.0,0.0,0.0,0.0,0.0,0.0,0.0,0.0,0.0,0.0,0.0,0.0,0.0,0.0,0.0,0.0,0.0,0.0,0.0,0.0,0.0,0.0,0.0,0.0,0.0,0.0,0.0,0.0,0.0,0.0,0.0,0.0,0.0,0.0,0.0,0.0,0.0,0.0,0.0,0.0,0.0,0.0,0.0,0.0,0.0,0.0,0.0,0.0,0.0,0.0,0.0,0.0,0.0,0.0,0.0,0.0,0.0,0.0,0.0,0.0,0.0,0.0,0.0,0.0,0.0,0.0,0.0,0.0,0.0,0.0,0.0,0.0,0.0,0.0,0.0,0.0,0.0,0.0,0.0,0.0,0.0,0.0,0.0,0.0,0.0,0.0,0.0,0.0,0.0,0.0,0.0,0.0,0.0,0.0,0.0,0.0,0.0,0.0,0.0,0.0,0.0,0.0,0.0,0.0,0.0,0.0,0.0,0.0,0.0,0.0,0.0,0.0,0.0,0.0,0.0,0.0,0.0,0.0,0.0,0.0,0.0,0.0,0.0,0.0,0.0,0.0,0.0,0.0,0.0,0.0,0.0,0.0,0.0,0.0,0.0,0.0,0.0,0.0,0.0,0.0,0.0,0.0,0.0,0.0,0.0,0.0,0.0,0.0,0.0,0.0,0.0,0.0,0.0,0.0,0.0,0.0,0.0,0.0,0.0,0.0,0.0,0.0,0.0,0.0,0.0,0.0,0.0,0.0,0.0,0.0,0.0,0.0,0.0,0.0,0.0,0.0,0.0,0.0,0.0,0.0,0.0,0.0,0.0,0.0,0.0,0.0,0.0,0.0,0.0,0.0,0.0,0.0,0.0,0.0,0.0,0.0,0.0,0.0,0.0,0.0,0.0,0.0,0.0,0.0,0.0,0.0,0.0,0.0,0.0,0.0,0.0,0.0,0.0,0.0,0.0,0.0,0.0,0.0,0.0,0.0,0.0,0.0,0.0,0.0,0.0,0.0,0.0,0.0,0.0,0.0,0.0,0.0,0.0,0.0,0.0,0.0,0.0,0.0,0.0,0.0,0.0,0.0,0.0,0.0,0.0,0.0,0.0,0.0,0.0,0.0,0.0,0.0,0.0,0.0,0.0,0.0,0.0,0.0,0.0,0.0,0.0,0.0,0.0,0.0,0.0,0.0,0.0,0.0,0.0,0.0,0.0,0.0,0.0,0.0,0.0,0.0,0.0,0.0,0.0,0.0,0.0,0.0,0.0,0.0,0.0,0.0,0.0,0.0,0.0,0.0,0.0,0.0,0.0,0.0,0.0,0.0,0.0,0.0,0.0,0.0,0.0,0.0,0.0,0.0,0.0,0.0,0.0,0.0,0.0,0.0,0.0,0.0,0.0,0.0,0.0,0.0,0.0,0.0,0.0,0.0,0.0,0.0,0.0,0.0,0.0,0.0,0.0,0.0,0.0,0.0,0.0,0.0,0.0,0.0,0.0,0.0,0.0,0.0,0.0,0.0,0.0,0.0,0.0,0.0,0.0,0.0,0.0,0.0,0.0,0.0,0.0,0.0,0.0,0.0,0.0,0.0,0.0,0.0,0.0,0.0,0.0,0.0,0.0,0.0,0.0,0.0,0.0,0.0,0.0,0.0,0.0,0.0,0.0,0.0,0.0,0.0,0.0,0.0,0.0,0.0,0.0,0.0,0.0,0.0,0.0,0.0,0.0,0.0,0.0,0.0,0.0,0.0,0.0,0.0,0.0,0.0,0.0,0.0,0.0,0.0,0.0,0.0,0.0,0.0,0.0,0.0,0.0,0.0,0.0,0.0,0.0,0.0,0.0,0.0,0.0,0.0,0.0,0.0,0.0,0.0,0.0,0.0,0.0,0.0,0.0,0.0,0.0,0.0,0.0,0.0,0.0,0.0,0.0,0.0,0.0,0.0,0.0,0.0,0.0,0.0,0.0,0.0,0.0,0.0,0.0,0.0,0.0,0.0,0.0,0.0,0.0,0.0,0.0,0.0,0.0,0.0,0.0,0.0,0.0,0.0,0.0,0.0,0.0,0.0,0.0,0.0,0.0,0.0,0.0,0.0,0.0,0.0,0.0,0.0,0.0,0.0,0.0,0.0,0.0,0.0,0.0,0.0,0.0,0.0,0.0,0.0,0.0,0.0,0.0,0.0,0.0,0.0,0.0,0.0,0.0,0.0,0.0,0.0,0.0,0.0,0.0,0.0,0.0,0.0,0.0,0.0,0.0,0.0,0.0,0.0,0.0,0.0,0.0,0.0,0.0,0.0,0.0,0.0,0.0,0.0,0.0,0.0,0.0,0.0,0.0,0.0,0.0,0.0,0.0,0.0,0.0,0.0,0.0,0.0,0.0,0.0,0.0,0.0,0.0,0.0,0.0,0.0,0.0,0.0,0.0,0.0,0.0,0.0,0.0,0.0,0.0,0.0,0.0,0.0,0.0,0.0,0.0,0.0,0.0,0.0,0.0,0.0,0.0,0.0,0.0,0.0,0.0,0.0,0.0,0.0,0.0,0.0,0.0,0.0,0.0,0.0,0.0,0.0,0.0,0.0,0.0,0.0,0.0,0.0,0.0,0.0,0.0,0.0,0.0,0.0,0.0,0.0,0.0,0.0,0.0,0.0,0.0,0.0,0.0,0.0,0.0,0.0,0.0,0.0,0.0,0.0,0.0,0.0,0.0,0.0,0.0,0.0,0.0,0.0,0.0,0.0,0.0,0.0,0.0,0.0,0.0,0.0,0.0,0.0,0.0,0.0,0.0,0.0,0.0,0.0,0.0,0.0,0.0,0.0,0.0,0.0,0.0,0.0,0.0,0.0,0.0,0.0,0.0,0.0,0.0,0.0,0.0,0.0,0.0,0.0,0.0,0.0,0.0,0.0,0.0,0.0,0.0,0.0,0.0,0.0,0.0,0.0,0.0,0.0,0.0,0.0,0.0,0.0,0.0,0.0,0.0,0.0,0.0,0.0,0.0,0.0,0.0,0.0,0.0,0.0,0.0,0.0,0.0,0.0,0.0,0.0,0.0,0.0,0.0,0.0,0.0,0.0,0.0,0.0,0.0,0.0,0.0,0.0,0.0,0.0,0.0,0.0,0.0,0.0,0.0,0.0,0.0,0.0,0.0,0.0,0.0,0.0,0.0,0.0,0.0,0.0,0.0,0.0,0.0,0.0,0.0,0.0,0.0,0.0,0.0,0.0,0.0,0.0,0.0,0.0,0.0,0.0,0.0,0.0,0.0,0.0,0.0,0.0,0.0,0.0,0.0,0.0,0.0,0.0,0.0,0.0,0.0,0.0,0.0,0.0,0.0,0.0,0.0,0.0,0.0,0.0,0.0,0.0,0.0,0.0,0.0,0.0,0.0,0.0,0.0,0.0,0.0,0.0,0.0,0.0,0.0,0.0,0.0,0.0,0.0,0.0,0.0,0.0,0.0,0.0,0.0,0.0,0.0,0.0,0.0,0.0,0.0,0.0,0.0,0.0,0.0,0.0,0.0,0.0,0.0,0.0,0.0,0.0,0.0,0.0,0.0,0.0,0.0,0.0,0.0,0.0,0.0,0.0,0.0,0.0,0.0,0.0,0.0,0.0,0.0,0.0,0.0,0.0,0.0,0.0,0.0,0.0,0.0,0.0,0.0,0.0,0.0,0.0,0.0,0.0,0.0,0.0,0.0,0.0,0.0,0.0,0.0,0.0,0.0,0.0,0.0,0.0,0.0,0.0,0.0,0.0,0.0,0.0,0.0,0.0,0.0,0.0,0.0,0.0,0.0,0.0,0.0,0.0,0.0,0.0,0.0,0.0,0.0,0.0,0.0,0.0,0.0,0.0,0.0,0.0,0.0,0.0,0.0,0.0,0.0,0.0,0.0,0.0,0.0,0.0,0.0,0.0,0.0,0.0,0.0,0.0,0.0,0.0,0.0,0.0,0.0,0.0,0.0,0.0,0.0,0.0,0.0,0.0,0.0,0.0,0.0,0.0,0.0,0.0,0.0,0.0,0.0,0.0,0.0,0.0,0.0,0.0,0.0,0.0,0.0,0.0,0.0,0.0,0.0,0.0,0.0,0.0,0.0,0.0,0.0,0.0,0.0,0.0,0.0,0.0,0.0,0.0,0.0,-3.3737,0.0,0.0,0.0,0.0,0.0,0.0,0.0,0.0,0.0,0.0,0.0,0.0,0.0,0.0,0.0,0.0,0.0,0.0,0.0,0.0,0.0,0.0,0.0,0.0,0.0,0.0,0.0,-3.3488,-3.3642,-3.3983,-3.3675,-3.3488,-3.3488,-3.3121,-3.2752,-3.2413,-3.2382,-3.2382,-3.2382,-3.3059,-3.4106,-3.546,-3.4691,-3.4014,-3.3396,0.0,0.0,0.0,0.0,0.0,0.0,0.0,0.0,0.0,0.0,0.0,0.0,0.0,0.0,0.0,0.0,0.0,0.0,0.0,0.0,0.0,0.0,0.0,0.0,0.0,0.0,0.0,0.0,0.0,0.0,0.0,0.0,0.0,0.0,0.0,0.0,0.0,0.0,0.0,0.0,0.0,0.0,0.0,0.0,0.0,0.0,0.0,0.0,0.0,0.0,0.0,0.0,0.0,0.0,0.0,0.0,0.0,0.0,0.0,0.0,0.0,0.0,0.0,0.0,0.0,0.0,0.0,0.0,0.0,0.0,0.0,-3.426,0.0,0.0,0.0,0.0,0.0,0.0,0.0,0.0,0.0,0.0,0.0,0.0,0.0,0.0,0.0,0.0,0.0,0.0,0.0,0.0,0.0,0.0,0.0,-3.2998,-3.3183,-3.2628,-3.2567,-3.2628,-3.2752,-3.2628,-3.2567,-3.2567,-3.2567,-3.2505,-3.2382,-3.2382,-3.2505,-3.2752,-3.4629,-3.6168,-3.7369,-3.7492,-3.6969,-3.5829,-3.3952,0.0,0.0,0.0,0.0,0.0,0.0,0.0,0.0,0.0,0.0,0.0,0.0,0.0,0.0,0.0,0.0,0.0,0.0,0.0,0.0,0.0,0.0,0.0,0.0,0.0,0.0,0.0,0.0,0.0,0.0,0.0,0.0,0.0,0.0,0.0,0.0,0.0,0.0,0.0,0.0,0.0,0.0,0.0,0.0,0.0,0.0,0.0,0.0,0.0,0.0,0.0,0.0,0.0,0.0,0.0,0.0,0.0,0.0,0.0,0.0,0.0,0.0,0.0,-4.0293,-4.112,-4.155,-4.2202,-4.2602,-4.2602,-3.8877,-3.7615,-3.7984,-3.4906,0.0,0.0,0.0,0.0,0.0,0.0,0.0,0.0,0.0,0.0,0.0,0.0,0.0,0.0,0.0,0.0,0.0,0.0,0.0,0.0,0.0,-3.2998,-3.3367,-3.3275,-3.3275,-3.3521,-3.4197,-3.3614,-3.3275,-3.3275,-3.3275,-3.2998,-3.2413,-3.2382,-3.2998,-3.4227,-3.7923,-4.0139,-4.094,-4.1524,-4.1709,-4.137,-3.7615,-3.5953,-3.5861,0.0,0.0,0.0,0.0,0.0,0.0,0.0,0.0,0.0,0.0,0.0,0.0,0.0,0.0,0.0,0.0,0.0,0.0,0.0,0.0,0.0,0.0,0.0,0.0,0.0,0.0,0.0,0.0,0.0,0.0,0.0,0.0,0.0,0.0,0.0,0.0,0.0,0.0,0.0,0.0,0.0,-3.4998,-3.6322,0.0,0.0,0.0,0.0,0.0,0.0,0.0,0.0,0.0,0.0,0.0,0.0,0.0,-3.897,-4.1648,-4.2817,-4.3771,-4.4541,-4.5895,-4.6265,-4.5803,-4.5895,-4.6573,-4.7558,-4.5249,0.0,-4.094,-3.9247,0.0,0.0,0.0,0.0,0.0,0.0,0.0,0.0,0.0,0.0,0.0,0.0,0.0,0.0,0.0,0.0,0.0,0.0,0.0,0.0,0.0,-3.3706,-3.4568,-3.4568,-3.6322,-3.6722,-3.5183,-3.546,-3.4845,-3.2906,-3.2475,-3.2136,-3.1828,-3.2567,-3.4568,-3.7861,-4.0447,-4.2417,-4.3864,-4.4541,-4.4849,-4.4756,-4.2971,-4.0478,-3.7584,-3.6999,0.0,0.0,0.0,0.0,0.0,0.0,0.0,0.0,0.0,0.0,0.0,0.0,0.0,0.0,0.0,0.0,0.0,0.0,0.0,0.0,0.0,0.0,0.0,0.0,0.0,0.0,0.0,0.0,0.0,0.0,0.0,0.0,0.0,0.0,0.0,0.0,0.0,0.0,0.0,-3.4629,-3.6538,-3.7523,-3.7615,-3.7092,0.0,0.0,0.0,0.0,0.0,0.0,0.0,0.0,0.0,-4.1832,-4.2294,-4.3618,-4.5957,-4.6973,-4.7588,-4.7896,-4.9251,-4.9558,-4.8912,-4.9281,-4.9989,-5.0851,-4.9558,-4.8142,-4.6419,-4.2756,-4.0047,-3.7954,0.0,0.0,0.0,0.0,-3.3429,-3.395,0.0,0.0,0.0,0.0,0.0,0.0,0.0,0.0,0.0,0.0,0.0,0.0,-3.3398,-3.543,-3.6907,-3.7277,-3.9277,-3.9275,-3.6445,-3.6384,-3.5153,-3.2259,-3.149,-3.112,-3.112,-3.3306,-3.663,-4.1028,-4.2971,-4.4818,-4.6634,-4.7342,-4.765,-4.765,-4.765,-4.491,-4.0262,-3.9585,-3.8014,-3.5892,0.0,0.0,0.0,0.0,0.0,0.0,0.0,0.0,0.0,0.0,0.0,0.0,0.0,0.0,0.0,0.0,0.0,0.0,0.0,0.0,0.0,0.0,0.0,0.0,0.0,0.0,0.0,0.0,0.0,0.0,0.0,0.0,0.0,0.0,0.0,0.0,0.0,-3.6076,-3.8138,-3.8477,-3.9277,-3.9062,0.0,0.0,0.0,0.0,0.0,0.0,-4.0724,-4.1463,-4.3156,-4.6049,-4.6634,-4.7773,-4.9651,-5.0543,-5.082,-5.0482,-5.1836,-5.2021,-5.1221,-5.1744,-5.2329,-5.2944,-5.2267,-5.1682,-5.0851,-4.6111,-4.2817,-4.0662,-3.9154,-3.7523,-3.6076,-3.6599,-3.6876,-3.7307,0.0,0.0,0.0,0.0,0.0,0.0,0.0,0.0,0.0,0.0,0.0,-3.4874,-3.6138,-3.8662,-4.0782,-4.214,-4.1151,-3.989,-3.8446,-3.5368,-3.2967,-3.1516,-3.0812,-3.0448,-3.0448,-3.4968,-3.9,-4.2509,-4.5772,-4.8081,-4.9497,-5.0174,-5.0482,-5.0482,-5.0482,-4.8543,-4.5064,-4.254,-4.0865,-3.9654,-3.5643,0.0,0.0,0.0,0.0,0.0,0.0,0.0,0.0,0.0,0.0,0.0,0.0,0.0,0.0,0.0,0.0,0.0,0.0,0.0,0.0,0.0,0.0,0.0,0.0,0.0,0.0,0.0,0.0,0.0,0.0,0.0,0.0,0.0,0.0,0.0,0.0,0.0,0.0,-3.8569,-4.134,0.0,0.0,0.0,0.0,-3.8415,-3.9582,-4.1524,-4.4172,-4.4972,-4.688,-5.0266,-5.042,-5.1097,-5.2483,-5.376,-5.3791,-5.2575,-5.3883,-5.3853,-5.2606,-5.2637,-5.3037,-5.3622,-5.2944,-5.2637,-5.239,-4.9497,-4.6726,-4.4178,-4.2171,-4.0909,-4.0197,-4.0228,-4.0693,-4.1494,0.0,0.0,0.0,0.0,0.0,0.0,0.0,0.0,-3.1486,-3.1732,-3.3735,-3.5675,-3.6999,-4.0724,-4.3494,-4.4449,-4.568,-4.5095,-4.1986,-3.897,-3.6168,-3.3519,-3.1059,-3.1186,-3.426,-3.7707,-4.1555,-4.5834,-4.8358,-5.0082,-5.1005,-5.1682,-5.2236,-5.2637,-5.2175,-5.1313,-4.9959,-4.6788,-4.3796,-4.0957,-3.8886,-3.6531,0.0,0.0,0.0,0.0,0.0,0.0,0.0,0.0,0.0,0.0,0.0,0.0,0.0,0.0,0.0,0.0,0.0,0.0,0.0,0.0,0.0,0.0,0.0,0.0,0.0,0.0,0.0,0.0,0.0,0.0,0.0,0.0,0.0,0.0,0.0,0.0,0.0,-4.294,-4.528,0.0,-4.3925,-4.3556,-4.3679,-4.4326,-4.5649,-4.7619,-5.0328,-5.0697,-5.199,-5.4561,-5.4653,-5.4869,-5.5315,-5.5807,-5.5345,-5.3976,-5.4914,-5.4637,-5.3345,-5.3345,-5.3498,-5.3714,-5.3468,-5.3345,-5.3221,-5.1374,-4.9004,-4.6357,-4.4787,-4.3741,-4.3187,-4.3618,-4.3956,-4.4356,0.0,0.0,0.0,0.0,0.0,0.0,0.0,0.0,-3.1238,-3.1979,-3.4445,-3.703,-3.9308,-4.3587,-4.6665,-4.7588,-4.8666,-4.7496,-4.3223,-3.9924,-3.6538,-3.2936,-3.149,-3.2875,-3.74,-4.0385,-4.3987,-4.8296,-5.0359,-5.1713,-5.239,-5.3067,-5.3622,-5.4052,-5.3591,-5.3375,-5.3221,-5.0482,-4.7046,-4.324,-4.1224,-3.8808,-3.6035,0.0,0.0,0.0,0.0,0.0,0.0,0.0,0.0,0.0,0.0,0.0,0.0,0.0,0.0,0.0,0.0,0.0,0.0,0.0,0.0,0.0,0.0,0.0,0.0,0.0,0.0,0.0,0.0,0.0,0.0,0.0,0.0,0.0,0.0,0.0,-4.4695,-4.5803,-4.8727,-4.9959,-4.8142,-4.7989,-4.8358,-4.9251,-5.0605,-5.2267,-5.4268,-5.4607,-5.5376,-5.6779,-5.681,-5.6686,-5.644,-5.644,-5.5715,-5.4345,-5.4822,-5.4453,-5.3375,-5.3375,-5.3375,-5.3375,-5.3375,-5.3252,-5.2944,-5.1836,-5.0174,-4.8204,-4.7065,-4.6326,-4.5988,-4.6449,-4.6603,-4.6696,0.0,0.0,0.0,0.0,0.0,0.0,0.0,-3.0535,-3.0873,-3.3085,-3.583,-3.9123,-4.3223,-4.7311,-5.0297,-5.1621,-4.9835,-4.6665,-4.1955,-3.7769,-3.3706,-2.9648,-3.2105,-3.546,-3.9521,-4.2971,-4.6357,-4.9743,-5.1744,-5.3037,-5.3668,-5.4345,-5.4652,-5.4683,-5.4683,-5.4683,-5.4621,-5.3299,-5.059,-4.6811,-4.2584,-4.0812,-4.0166,0.0,0.0,0.0,0.0,0.0,0.0,0.0,0.0,0.0,0.0,0.0,0.0,0.0,0.0,0.0,0.0,0.0,0.0,0.0,0.0,0.0,0.0,0.0,0.0,0.0,0.0,0.0,0.0,0.0,0.0,0.0,0.0,0.0,-3.8569,-4.3956,-4.7558,-4.7004,-5.1682,-5.3899,-5.1251,-5.2144,-5.2914,-5.2944,-5.4145,-5.5161,-5.5807,-5.6532,-5.6871,-5.6902,-5.6871,-5.6502,-5.5715,-5.5684,-5.5037,-5.3714,-5.3699,-5.3406,-5.2729,-5.2729,-5.2698,-5.2667,-5.2667,-5.2267,-5.1621,-5.0944,-5.0266,-4.962,-4.8881,-4.8604,-4.8604,-4.8604,-4.8604,-4.8481,0.0,0.0,0.0,0.0,0.0,0.0,0.0,-3.0219,-3.0716,-3.2465,-3.6353,-4.0509,-4.4603,-4.9127,-5.2021,-5.239,-5.0574,-4.7588,-4.3347,-3.8325,-3.4351,-3.1705,-3.5122,-3.8785,-4.2386,-4.5772,-4.8696,-5.1159,-5.2206,-5.2821,-5.3006,-5.3683,-5.4098,-5.4418,-5.4636,-5.4741,-5.4805,-5.4218,-5.2933,-5.097,-4.6891,-4.41,-4.2061,0.0,0.0,0.0,0.0,0.0,0.0,0.0,0.0,0.0,0.0,0.0,0.0,0.0,0.0,0.0,0.0,0.0,0.0,0.0,0.0,0.0,0.0,0.0,0.0,0.0,0.0,0.0,0.0,0.0,0.0,0.0,0.0,-4.2817,-4.4172,-4.8389,-5.2144,-5.4422,-5.7315,-5.8824,-5.8085,-5.7469,-5.7315,-5.7808,-5.7746,-5.8177,-5.9347,-5.8639,-5.8454,-5.8947,-5.7993,-5.6915,-5.5715,-5.5684,-5.5037,-5.3714,-5.416,-5.4037,-5.3437,-5.2944,-5.2452,-5.1959,-5.1467,-5.1159,-5.0913,-5.0236,-4.9866,-4.962,-4.8881,-4.8604,-4.8604,-4.8604,-4.8296,-4.7711,0.0,0.0,0.0,0.0,0.0,0.0,0.0,-2.9815,-3.0553,-3.2959,-3.6907,-4.1186,-4.5526,-4.9528,-5.1744,-5.1467,-4.8789,-4.5403,-4.1278,-3.6722,-3.4291,-3.4537,-3.8446,-4.2202,-4.5618,-4.8727,-5.1067,-5.2544,-5.3498,-5.3806,-5.3591,-5.4545,-5.5097,-5.5371,-5.5371,-5.5442,-5.5457,-5.4866,-5.43,-5.355,-5.0666,-4.8098,-4.5698,-4.3279,-4.1625,-4.0486,-3.949,-3.9291,-3.9143,-3.7114,0.0,0.0,0.0,0.0,0.0,0.0,0.0,0.0,0.0,0.0,0.0,0.0,0.0,0.0,0.0,0.0,0.0,0.0,0.0,0.0,0.0,0.0,0.0,0.0,-4.4726,-4.8112,-5.0882,-5.3098,-5.5561,-5.867,-6.0578,-6.1532,-6.1255,-6.0763,-6.0393,-6.024,-6.0116,-6.0147,-6.0363,-5.9378,-5.8824,-5.8947,-5.79,-5.67,-5.5315,-5.5284,-5.4607,-5.3314,-5.3714,-5.3683,-5.3283,-5.2883,-5.2329,0.0,-5.1282,-5.079,-5.0236,-4.9835,-4.9497,0.0,0.0,0.0,0.0,0.0,-4.7773,-4.7034,0.0,0.0,0.0,0.0,0.0,0.0,0.0,-2.9393,-3.0396,-3.4008,-3.7338,-4.1186,-4.5865,-4.882,-5.0205,-4.962,-4.5873,-4.1771,-3.7769,-3.4722,-3.4629,-3.8138,-4.2176,-4.5772,-4.9004,-5.1621,-5.3221,-5.3791,-5.5007,-5.5284,-5.4714,-5.6053,-5.6638,-5.6638,-5.6549,-5.6482,-5.6293,-5.5548,-5.5098,-5.4947,-5.384,-5.2169,-5.0012,-4.6924,-4.5748,-4.5443,-4.3594,-4.223,-4.1132,-4.0156,0.0,0.0,0.0,0.0,0.0,0.0,0.0,0.0,0.0,0.0,0.0,0.0,0.0,0.0,0.0,0.0,0.0,0.0,0.0,0.0,0.0,0.0,0.0,0.0,-4.8573,-5.279,-5.7469,-5.7641,-5.8146,-6.0609,-6.2117,-6.2671,-6.1994,-6.2394,-6.221,-6.1009,-6.1409,-6.1132,-5.987,0.0,0.0,0.0,0.0,-5.6023,-5.4683,-5.4621,-5.3914,-5.2698,-5.2698,-5.2698,-5.2698,-5.2637,-5.2267,-5.1682,-5.1528,-5.079,-4.9682,-4.9589,-4.9189,-4.8604,-4.8604,-4.8604,-4.8512,-4.7773,-4.7127,-4.648,0.0,0.0,0.0,0.0,0.0,0.0,0.0,-2.9393,-3.0396,-3.4008,-3.6938,-4.0293,-4.4548,-4.7373,-4.8974,-4.882,-4.5126,-4.1278,-3.7738,-3.74,-3.9093,-4.3033,-4.6643,-4.9558,-5.1867,-5.3453,-5.4345,-5.4498,-5.4745,-5.4806,-5.4714,-5.553,-5.5804,-5.5674,-5.6923,-5.699,-5.6108,-5.6701,-5.645,-5.5785,-5.5737,-5.4379,-5.2214,-5.0498,-4.957,-4.9065,-4.826,-4.819,-4.8018,-4.5256,-4.4895,-4.4857,-4.0896,-3.8348,0.0,0.0,0.0,0.0,0.0,0.0,0.0,0.0,0.0,0.0,0.0,0.0,0.0,0.0,0.0,0.0,0.0,0.0,0.0,-4.8789,-5.2021,-5.5407,-5.9624,-6.0116,-6.0424,-6.1471,-6.2794,-6.3349,-6.2702,-6.224,-6.1902,-6.1625,-6.1225,-6.064,-5.9839,-5.9131,-5.8454,-5.7857,-5.6546,-5.553,-5.4683,-5.4129,-5.3498,-5.2698,0.0,0.0,-5.2698,-5.2144,-5.1836,-5.1652,-5.0543,-4.9928,-4.9651,-4.9066,-4.8727,-4.8604,-4.8604,-4.8604,-4.845,-4.725,-4.6696,-4.6419,0.0,0.0,0.0,0.0,0.0,0.0,0.0,-2.9393,-3.0242,-3.3384,-3.5881,-3.8553,-4.1714,-4.3248,-4.3925,-4.3587,-4.0478,-3.8108,-3.7061,-3.9247,-4.254,-4.6942,-5.0051,-5.2483,-5.4176,-5.5222,-5.5561,-5.5222,-5.5561,-5.5561,-5.5222,-5.5899,-5.619,-5.6046,-5.68,-5.6776,-5.6256,-5.6591,-5.6431,-5.6028,-5.6274,-5.5712,-5.4609,-5.3712,-5.2964,-5.2352,-5.215,-5.1642,-5.0721,-4.8778,-4.7896,-4.7127,-4.4418,-4.1955,-3.9524,0.0,0.0,0.0,0.0,0.0,0.0,0.0,0.0,0.0,0.0,0.0,0.0,0.0,0.0,-3.8539,-4.0232,0.0,-4.8235,-5.1652,-5.5037,-5.8208,-6.0917,-6.1594,-6.1933,-6.2271,-6.261,-6.2671,-6.2333,-6.2025,-6.1656,-6.1317,-6.1317,-6.0855,-5.9839,-5.9131,-5.83,-5.7364,-5.6238,-5.5222,-5.4191,-5.3899,-5.3375,-5.2698,-5.2698,-5.2698,-5.2698,-5.2359,-5.1836,-5.1159,-5.0482,-4.9805,-4.9127,-4.8758,-4.8604,-4.8604,-4.8604,-4.8419,-4.7989,-4.6973,-4.6388,-4.5957,0.0,0.0,0.0,0.0,0.0,0.0,0.0,-2.9647,-3.0307,-3.2762,-3.4813,-3.6776,-3.8828,-3.9005,-3.8508,-3.743,-3.6168,-3.6076,-3.74,-4.1432,-4.5895,-5.0636,-5.3191,-5.5068,-5.6269,-5.6854,-5.684,-5.6084,-5.6717,-5.6717,-5.6115,-5.6594,-5.6964,-5.721,-5.6966,-5.6868,-5.6868,-5.6694,-5.6503,-5.626,-5.6506,-5.6452,-5.6146,-5.5804,-5.5468,-5.5099,-5.4775,-5.316,-5.1067,-5.079,-4.922,-4.7373,-4.7065,-4.5341,-4.2725,-3.9308,-3.7831,0.0,0.0,0.0,0.0,0.0,0.0,0.0,0.0,0.0,-3.6384,-3.8108,-4.0078,-4.2109,-4.4202,-4.8019,-5.1713,-5.4299,-5.7562,-6.0209,-6.144,-6.2086,-6.2364,-6.224,-6.1994,-6.1748,-6.1625,-6.1625,-6.1379,-6.0824,-6.1194,-6.0886,-5.9655,-5.8947,-5.8073,-5.684,-5.6053,-5.513,-5.3929,-5.3775,-5.3375,-5.2698,-5.2852,-5.2852,-5.2698,-5.2852,-5.2236,-5.1067,-5.082,-4.9897,-4.8604,-4.8604,-4.8604,-4.8604,-4.8604,-4.8204,-4.7527,-4.685,-4.6265,-4.568,0.0,0.0,0.0,0.0,0.0,0.0,0.0,0.0,-3.1276,-3.2877,-3.4427,-3.5941,-3.7395,-3.7126,-3.583,-3.3306,-3.6692,-3.9554,-4.094,-4.5372,-5.0051,-5.4822,-5.6484,-5.7654,-5.8423,-5.8516,-5.8208,-5.758,-5.7672,-5.7672,-5.758,-5.7056,-5.7457,-5.8547,-5.8547,-5.8547,-5.8527,-5.8889,-5.8359,-5.7259,-5.7259,-5.6525,-5.5424,-5.562,-5.6053,-5.6392,-5.5161,-5.2192,-4.9127,-5.0297,-4.8912,-4.6911,-4.8019,-4.7373,-4.5495,-4.214,-3.9,-3.5799,-3.2093,-3.0903,-3.093,-3.2081,-3.3275,-3.5122,0.0,0.0,-4.1678,-4.4818,-4.7127,-4.9158,-5.1221,-5.3468,-5.5715,-5.7869,-5.9101,-6.0055,-6.0824,-6.0978,-6.0794,-6.0209,-6.1132,-6.1563,-6.0978,-6.0917,-6.0886,-6.0794,-6.0301,-5.9686,-5.8947,-5.8288,-5.758,-5.684,-5.6053,-5.5345,-5.4591,-5.3976,-5.3375,-5.2729,-5.3314,-5.3283,-5.2729,-5.3345,-5.3191,-5.2421,-5.1221,-4.9897,-4.8604,-4.8604,-4.8604,-4.8604,-4.8604,-4.8204,-4.7527,-4.685,-4.6542,-4.6296,0.0,0.0,0.0,0.0,0.0,0.0,0.0,0.0,0.0,-3.2247,-3.353,-3.4504,-3.4853,-3.4011,-3.2676,-3.0808,-3.466,-3.8262,-4.0816,-4.7068,-5.2554,-5.6748,-5.8816,-5.9874,-5.9932,-5.9562,-5.9039,-5.8362,-5.8362,-5.8362,-5.8412,-5.8134,-5.8239,-5.8793,-5.8793,-5.8793,-5.8793,-5.8969,-5.8489,-5.7629,-5.7629,-5.68,-5.5449,-5.4775,-5.3991,-5.3067,-5.1682,-4.9312,0.0,-4.7065,-4.615,-4.5218,-4.7342,-4.6018,-4.334,-4.1524,-3.8846,-3.6168,-3.4693,-3.3497,0.0,0.0,-3.7277,-3.8846,-4.214,-4.4018,-4.5711,-4.7927,-5.0328,-5.2513,-5.4145,-5.6115,-5.79,0.0,-5.9932,-6.0486,-6.0763,-6.0116,-5.9378,-5.8701,-5.8762,-5.907,-5.9562,-5.9624,-5.9624,-5.9624,-5.9378,-5.8916,-5.8239,-5.798,-5.7333,-5.6176,-5.5468,-5.5007,-5.4683,-5.3683,-5.3191,-5.3314,-5.3591,-5.3375,-5.2729,-5.3361,-5.2914,-5.1467,-5.0082,-4.9158,-4.8604,-4.8604,-4.8604,-4.8604,-4.8604,-4.845,-4.805,-4.7004,-4.6357,-4.5865,0.0,0.0,0.0,0.0,0.0,0.0,0.0,0.0,0.0,0.0,-3.3182,-3.3767,-3.3202,-3.2389,-3.1317,-2.9757,-3.3325,-3.7156,-4.0603,-4.753,-5.3524,-5.8058,-5.9977,-6.1043,-6.1195,-6.0455,-5.9869,-5.9458,-5.919,-5.919,-5.9458,-5.9005,-5.8978,-5.9316,-5.9131,-5.9162,-5.9347,-5.9347,-5.8854,-5.8073,-5.7888,-5.6607,-5.4699,-5.3191,-5.0882,-4.8389,-4.7742,-4.5711,-4.3279,-4.2786,-4.196,-4.156,-4.4233,-4.3217,-4.0847,-3.992,-3.7492,-3.5214,-3.5768,0.0,0.0,-3.9185,-4.1001,-4.2633,-4.5372,-4.7404,-4.9189,-5.0759,-5.279,-5.4607,-5.5776,-5.7346,-5.8731,-5.9408,-6.0086,-6.0517,-6.0517,-5.9347,-5.8177,-5.7285,-5.6269,-5.6115,-5.7285,-5.8054,-5.8485,-5.8485,-5.8485,-5.83,-5.7857,-5.7641,-5.7087,-5.6023,-5.5715,-5.5376,-5.5007,-5.4206,-5.3806,-5.3714,-5.3899,-5.356,-5.2729,-5.3037,-5.2267,-5.0636,-4.9435,-4.8789,-4.8604,-4.8604,-4.8604,-4.8604,-4.8604,-4.8604,-4.8481,-4.7311,-4.6449,-4.5741,0.0,0.0,0.0,0.0,0.0,0.0,0.0,0.0,0.0,0.0,0.0,0.0,0.0,-3.3421,-3.276,-3.0386,-3.3777,-3.7648,-4.1404,-4.6788,-5.2681,-5.9153,-5.9914,-6.0784,-6.2238,-6.1297,-6.0905,-6.1196,-6.0222,-6.0272,-6.1196,-5.9539,-5.947,-6.0701,-6.0055,-6.0116,-6.0732,-6.0732,-5.9963,-5.8701,-5.8073,-5.5776,-5.2575,-5.0574,-4.6911,-4.3002,-4.4264,-4.1709,-3.7738,-3.7707,-3.6384,-3.5244,-3.7923,-3.9154,-3.9275,-3.7984,-3.4722,-3.2009,-3.4012,0.0,-3.6476,-4.0509,-4.3494,-4.6142,-4.8912,-5.0605,-5.2144,-5.4129,-5.513,-5.5869,-5.6656,-5.7364,-5.8073,-5.8701,-5.9378,-5.9809,-5.9809,-5.867,-5.7333,-5.593,-5.4022,-5.3098,0.0,-5.6269,-5.7857,-5.7857,-5.7857,-5.7857,-5.7826,-5.721,-5.681,-5.6779,-5.7395,-5.7038,-5.5684,-5.6347,-5.5653,-5.3745,-5.4345,-5.3991,-5.2698,-5.2052,-5.1374,-5.0667,-4.9959,-4.9251,-4.8604,-4.8604,-4.8604,-4.8604,-4.8604,-4.8604,-4.8543,-4.7835,-4.7157,-4.6357,0.0,0.0,0.0,0.0,0.0,0.0,0.0,0.0,0.0,0.0,0.0,0.0,0.0,0.0,0.0,0.0,-3.3764,-3.6111,-3.9129,-4.524,-5.02,-5.3431,-5.8085,-6.0765,-6.1003,-6.1695,-6.2349,-6.297,-6.2588,-6.2282,-6.1972,-6.1406,-6.1014,-6.0794,-6.0547,-6.0578,-6.0763,-6.0332,-5.9347,-5.8011,-5.6392,-5.3714,-5.0389,-4.7434,-4.3618,-3.9647,0.0,-3.5861,-3.4044,-3.3583,-3.2998,-3.2934,-3.5645,-3.5399,-3.3952,-3.3059,-3.3429,-3.4566,-3.6599,-3.8662,-4.1063,-4.4695,-4.7311,-4.9343,-5.0697,-5.2421,-5.3652,-5.3437,-5.2852,-5.2298,-5.2158,-5.1867,-5.2359,-5.4422,-5.5715,-5.6915,-5.827,-5.7734,-5.6317,-5.3991,-5.3129,0.0,0.0,0.0,0.0,-5.63,-5.6392,-5.6607,-5.7118,-5.7364,-5.7487,-5.7487,-5.7703,-5.7395,-5.6471,-5.5745,-5.4853,-5.3714,-5.3498,-5.3622,-5.3945,-5.1959,-5.0913,-5.0636,-4.9466,-4.885,-4.8604,-4.8604,-4.8604,-4.8604,-4.8604,-4.8604,-4.8543,-4.7865,-4.7465,-4.7065,0.0,0.0,0.0,0.0,0.0,0.0,0.0,0.0,0.0,0.0,0.0,0.0,0.0,0.0,0.0,0.0,0.0,-3.5182,-3.7264,-4.2407,-4.6551,-4.9134,-5.3625,-5.6277,-5.657,-5.7226,-5.7947,-5.8753,-5.9219,-5.9266,-5.8985,-5.941,-5.9251,-5.8683,-5.8912,-5.8978,-5.8947,-5.8516,-5.7008,-5.473,-5.2914,-4.9712,-4.5741,-4.2817,-3.9462,0.0,-3.3306,-3.1736,-3.0905,-3.0474,-3.032,-3.072,-3.2967,-3.2475,-3.1151,-3.1705,-3.3429,-3.586,-3.9093,-4.1771,-4.4479,-4.7865,-4.9897,-5.1313,-5.2206,-5.3252,-5.356,-5.1959,-5.0359,-4.8789,-4.7404,-4.6357,-4.685,-5.0328,-5.1621,-5.3314,-5.6577,-5.6053,-5.476,-5.3252,-5.2421,-5.1744,0.0,0.0,0.0,-5.4853,-5.5438,-5.5899,-5.6361,-5.7303,-5.7826,-5.7826,-5.7993,-5.7857,-5.7179,-5.6023,-5.4884,-5.3714,-5.3037,-5.316,-5.3883,-5.1713,-5.0697,-5.0605,-4.922,-4.8604,-4.8604,-4.8604,-4.8604,-4.8604,-4.8604,-4.8604,-4.8573,-4.8112,-4.7958,-4.7773,0.0,0.0,0.0,0.0,0.0,0.0,0.0,0.0,0.0,0.0,0.0,0.0,0.0,0.0,0.0,0.0,0.0,0.0,-3.5947,-3.8546,-4.1914,-4.6143,-4.7067,-4.8099,-4.9516,-4.8699,-4.8796,-4.978,-5.094,-5.1988,-5.2877,-5.3898,-5.4372,-5.4348,-5.4884,-5.513,-5.513,-5.5099,-5.2852,-4.9189,-4.7773,-4.4048,-3.9154,-3.7123,-3.466,-3.2136,-3.0817,-2.9556,-2.8504,-2.8442,-2.8473,-2.8812,-3.0109,-3.0602,-3.1186,-3.395,-3.4874,-3.6199,-4.1524,-4.4449,-4.6788,-5.0051,-5.1374,-5.2175,-5.3345,-5.3006,-5.1867,-4.9835,-4.7619,-4.5249,0.0,0.0,-4.1827,-4.6573,-4.7558,-4.9558,-5.4884,-5.4083,-5.3129,0.0,0.0,0.0,0.0,0.0,0.0,-5.3775,0.0,-5.5715,-5.5807,-5.7131,-5.7919,-5.7919,-5.8516,-5.8516,-5.7826,-5.7087,-5.5684,-5.3775,-5.3098,-5.276,-5.2698,-5.1313,-5.0697,-5.0605,-4.922,-4.8604,-4.8604,-4.8604,-4.8604,-4.8604,-4.8604,-4.8604,-4.8604,-4.8604,-4.8604,-4.8419,0.0,0.0,0.0,0.0,0.0,0.0,0.0,0.0,0.0,0.0,0.0,0.0,0.0,0.0,0.0,0.0,0.0,0.0,-3.4869,-3.7315,-3.9151,-4.013,-4.4529,-4.7164,-4.7533,-4.8888,-4.9991,-5.0825,-5.0593,-5.0224,-4.9743,-4.9123,-4.8445,-4.7714,-4.753,-4.7404,-4.7413,-4.692,-4.5803,-4.4233,-4.2355,-3.9831,-3.703,-3.4968,-3.2844,-3.0786,-2.9956,-2.974,-2.974,-2.875,-2.9396,-3.0874,-3.2228,-3.3367,-3.4722,-3.743,-4.0016,-4.2884,-4.6819,-4.9712,-5.1867,-5.2729,-5.3468,-5.3607,-5.2483,-5.0513,-4.8327,-4.6296,-4.1832,-3.7986,0.0,0.0,0.0,-4.3187,-4.685,0.0,-5.4422,-5.5407,0.0,-5.3868,0.0,-5.4299,-5.3991,-5.4391,0.0,0.0,-5.5807,-5.6146,-5.7192,-5.8547,-5.9285,-5.9285,-5.9932,-5.947,-5.7826,-5.6084,-5.4976,-5.4406,-5.3775,-5.3468,-5.3406,-5.1528,-5.0697,-5.0605,-4.922,-4.8604,-4.8604,-4.8604,-4.8604,-4.8604,-4.8604,-4.8604,-4.8604,-4.8604,-4.8604,-4.8573,0.0,0.0,0.0,0.0,0.0,0.0,0.0,0.0,0.0,0.0,0.0,0.0,0.0,0.0,0.0,0.0,0.0,0.0,0.0,-3.5385,-3.6236,-3.64,-3.9918,-4.188,-4.188,-4.3098,-4.3944,-4.4356,-4.4621,-4.4466,-4.3879,-4.3832,-4.3396,-4.2671,-4.2685,-4.254,-4.2325,-4.1955,-4.0724,0.0,0.0,-3.5276,-3.2813,-3.1643,-3.0505,-2.9464,-2.9119,-2.9556,-3.0509,-3.1274,0.0,-3.4291,-3.5645,-3.703,-3.8816,-4.2109,0.0,-4.6726,-5.0451,-5.279,-5.4237,-5.4514,-5.4206,-5.316,-5.0513,-4.8019,-4.5187,-4.1406,-3.7369,0.0,-3.3334,0.0,0.0,0.0,0.0,0.0,-5.3545,-5.4945,-5.5345,0.0,-5.5715,0.0,-5.5653,-5.6207,-5.6761,0.0,-5.6594,-5.6563,-5.7333,-5.8608,-5.9224,-5.8916,-5.9562,-5.8916,-5.6884,-5.5715,-5.4853,-5.4222,-5.3545,-5.3283,-5.3221,-5.1805,-5.0974,-5.0636,0.0,-4.8912,-4.8604,-4.8604,-4.8604,-4.8604,-4.8604,-4.8604,-4.8604,-4.8604,-4.8604,-4.8604,0.0,0.0,0.0,0.0,0.0,0.0,0.0,0.0,0.0,0.0,0.0,0.0,0.0,0.0,0.0,0.0,0.0,0.0,0.0,0.0,-3.3931,-3.4472,-3.5216,-3.56,-3.56,-3.56,-3.56,-3.56,-3.684,-3.7449,-3.7459,-3.8531,-3.8756,-3.8306,-3.8767,-3.8654,-3.8143,-3.8143,-3.6415,-3.3642,-3.2998,-3.0997,-2.8411,0.0,-2.8411,-2.8442,-2.8596,-2.9525,-3.1186,-3.4599,-3.6661,-3.8046,-3.9677,-4.1278,-4.3279,-4.7034,-4.8327,-4.9404,-5.3221,-5.476,-5.5345,-5.5622,-5.4206,-5.1775,-4.8142,-4.5434,-4.2048,-3.6384,0.0,-3.2444,-3.1428,-3.1397,-3.3767,-4.0632,0.0,-4.608,-5.2883,-5.3822,-5.4607,-5.6717,-5.6933,-5.7025,-5.7179,-5.7734,-5.8104,-5.8104,-5.7457,-5.7087,-5.7087,-5.8196,-5.8547,-5.8104,-5.8516,-5.7869,-5.5992,-5.5869,-5.513,-5.3714,-5.3129,-5.279,-5.2698,-5.2021,-5.1374,-5.079,0.0,0.0,-4.8881,-4.8789,-4.8758,-4.8758,-4.8666,-4.8604,-4.8604,-4.8604,-4.8604,-4.8604,0.0,0.0,0.0,0.0,0.0,0.0,0.0,0.0,0.0,0.0,-3.6377,-3.56,0.0,0.0,0.0,0.0,0.0,0.0,0.0,0.0,0.0,-3.4506,-3.5216,-3.56,-3.56,-3.56,-3.56,-3.56,-3.525,-3.5081,-3.5081,-3.4318,-3.3611,-3.2935,-3.265,-3.1917,-3.0892,-3.0892,-3.0354,-2.9458,-2.9335,-2.8935,-2.8411,-2.8411,0.0,0.0,-2.9648,-3.0909,-3.2567,-3.5984,-3.8046,-3.9708,-4.2725,-4.5403,-4.7865,-5.0297,-5.2175,-5.4022,-5.6423,-5.7562,-5.7685,-5.6067,-5.4206,-5.1528,-4.6973,-4.2202,0.0,0.0,-3.1366,-2.955,-3.0386,-3.149,-3.4475,-4.1309,-4.3556,-4.6788,0.0,0.0,-5.5315,0.0,0.0,0.0,0.0,0.0,0.0,0.0,0.0,-5.8423,-5.8423,-5.8639,-5.8978,-5.9439,-5.9008,-5.8331,-5.7408,-5.6902,-5.5622,-5.3714,-5.3545,-5.3252,-5.2698,-5.2021,-5.1652,-5.1498,-5.082,0.0,-5.0297,-4.9743,-4.9497,-4.9435,-4.885,-4.8604,-4.8604,-4.8604,-4.8604,-4.8604,0.0,0.0,0.0,0.0,0.0,0.0,0.0,-3.7043,-3.7483,-3.9377,-3.8971,-3.8091,-3.6918,-3.6073,-3.56,0.0,0.0,0.0,0.0,0.0,0.0,0.0,-3.5397,-3.56,-3.56,-3.56,-3.56,0.0,0.0,-3.4506,-3.4472,-3.3513,-3.276,-3.2155,-3.1632,-3.0955,-3.018,-2.989,-2.9465,-2.8935,-2.8935,-2.8719,-2.8411,0.0,0.0,0.0,0.0,-3.0202,-3.1767,-3.4475,-3.6753,-3.9308,-4.411,-4.725,-4.9497,-5.119,-5.3129,-5.5099,-5.6792,-5.7993,-5.8454,-5.7131,-5.4206,-5.0236,-4.4756,0.0,0.0,0.0,-2.952,-2.8812,-3.014,-3.1213,0.0,-3.86,-4.1124,-4.4479,0.0,0.0,0.0,0.0,0.0,0.0,0.0,0.0,0.0,0.0,0.0,-5.8288,-5.8288,-5.8288,-5.8393,-5.8731,-5.8762,-5.8116,-5.67,-5.6361,-5.5376,-5.3714,-5.3375,-5.3037,-5.2698,-5.239,-5.2021,-5.1682,-5.1374,0.0,-5.0667,-5.0328,-5.0205,-5.0174,-4.9835,-4.9682,-4.9651,-4.9312,-4.9158,-4.9127,0.0,0.0,0.0,0.0,0.0,0.0,0.0,-3.8497,-3.9039,-4.161,-4.1644,-4.0696,-3.8836,-3.7222,-3.614,0.0,0.0,0.0,0.0,0.0,0.0,0.0,0.0,0.0,0.0,0.0,0.0,0.0,0.0,0.0,0.0,0.0,0.0,0.0,0.0,-3.1966,-3.1307,-3.0791,-3.0089,0.0,0.0,-2.8996,0.0,0.0,0.0,0.0,0.0,-2.9248,-3.0694,-3.2567,-3.4906,-3.7954,-4.3033,-4.6573,-4.9097,-5.0605,-5.279,-5.5099,-5.6761,-5.8134,-5.8731,-5.7623,-5.3745,-4.8635,-4.254,-3.7984,0.0,-2.9335,-2.8411,-2.8812,-3.014,-3.0597,-3.2013,0.0,-3.8046,-4.1155,0.0,0.0,0.0,0.0,0.0,0.0,0.0,0.0,0.0,0.0,0.0,0.0,-5.7795,-5.7826,-5.7888,-5.8042,-5.8516,-5.7869,-5.593,-5.593,-5.5191,-5.3714,-5.3191,-5.2852,-5.2698,-5.2698,-5.2421,-5.1929,-5.1929,0.0,0.0,-5.0974,-5.0913,-5.0882,-5.0759,-5.0605,-5.042,-4.9866,-4.9589,-4.9374,0.0,0.0,0.0,0.0,0.0,0.0,0.0,-3.8937,-4.0189,-4.3802,-4.3064,-4.188,-4.1001,-3.958,-3.7855,0.0,0.0,0.0,0.0,0.0,0.0,0.0,0.0,0.0,0.0,0.0,0.0,0.0,0.0,0.0,0.0,0.0,0.0,0.0,0.0,0.0,0.0,-3.1251,0.0,0.0,0.0,0.0,0.0,0.0,0.0,0.0,0.0,0.0,-3.0602,0.0,0.0,-3.5984,-3.7769,-4.1832,-4.6357,-4.8327,0.0,0.0,-5.79,-5.9131,-5.907,-5.6515,-5.2298,-4.7219,-4.1093,0.0,-3.2598,-2.9119,-2.8411,-2.8812,-3.014,-2.9458,-3.0381,-3.5645,0.0,-3.7801,0.0,0.0,0.0,0.0,0.0,0.0,0.0,0.0,0.0,0.0,0.0,0.0,-5.7795,-5.7826,-5.8104,-5.867,-5.8762,-5.8085,-5.6717,-5.6717,-5.5684,-5.3714,-5.3652,-5.3314,-5.2698,-5.2698,-5.2667,-5.2637,-5.2637,0.0,0.0,-5.1867,-5.1621,-5.1559,-5.0944,-5.0328,-4.9774,-4.9712,-4.9281,-4.8696,0.0,0.0,0.0,0.0,0.0,0.0,-3.8633,-3.9005,-4.0155,-4.3436,-4.4147,-4.3876,-4.2658,-4.161,-3.9512,-3.5904,0.0,0.0,0.0,0.0,0.0,0.0,0.0,0.0,0.0,0.0,0.0,0.0,0.0,0.0,0.0,0.0,0.0,0.0,0.0,0.0,0.0,0.0,0.0,0.0,0.0,0.0,0.0,0.0,0.0,0.0,0.0,0.0,0.0,0.0,0.0,0.0,-3.1982,-3.4599,0.0,0.0,-4.7558,-5.1652,-5.4391,-5.71,-5.8639,-5.63,-5.1836,-4.6511,-4.0816,0.0,-3.1951,-2.9027,-2.8411,-2.8565,-2.9119,-2.8442,-2.8504,-3.0658,-3.0905,0.0,-3.9062,0.0,0.0,0.0,0.0,0.0,0.0,0.0,0.0,0.0,0.0,0.0,-5.7795,-5.7826,-5.7765,-5.7611,-5.8011,-5.75,-5.6146,-5.5745,-5.513,-5.4283,-5.3498,-5.3191,-5.3314,-5.2883,-5.2698,-5.2698,-5.2698,0.0,0.0,-5.2421,-5.2298,-5.2298,-5.2021,-5.1744,-5.1405,-5.0605,-5.0112,-4.9743,0.0,0.0,0.0,0.0,0.0,-3.6276,-3.8362,-3.887,-3.9986,-4.2726,-4.4012,-4.4282,-4.32,-4.2219,-4.029,-3.6907,-3.6502,0.0,0.0,0.0,0.0,0.0,0.0,0.0,0.0,0.0,-3.5836,-3.56,-3.6603,0.0,0.0,0.0,0.0,0.0,0.0,0.0,0.0,0.0,0.0,0.0,0.0,0.0,0.0,0.0,0.0,0.0,0.0,0.0,0.0,0.0,0.0,0.0,-2.8565,-2.9704,-3.229,-3.7861,-4.2971,-4.7527,-5.0667,-5.4176,-5.6607,-5.4945,-5.0451,-4.5095,0.0,0.0,-3.1151,-2.8873,-2.8411,-2.8411,-2.8411,-2.8011,-2.7642,-2.7426,0.0,-2.992,-3.426,0.0,0.0,0.0,0.0,0.0,0.0,0.0,0.0,0.0,0.0,0.0,0.0,-5.7333,-5.7179,-5.7118,-5.758,-5.7241,-5.6023,-5.5345,-5.4914,-5.4683,-5.356,-5.316,-5.3406,-5.2944,-5.2698,-5.2698,0.0,0.0,0.0,-5.2698,-5.2698,-5.2698,-5.2698,-5.2575,-5.2267,-5.1128,-5.0574,-5.0266,0.0,0.0,0.0,0.0,0.0,0.0,-3.7686,-3.8531,-3.9783,-4.2016,-4.232,-4.232,-4.2286,-4.1001,-3.9817,-3.9039,-3.6907,0.0,0.0,0.0,0.0,0.0,0.0,0.0,0.0,0.0,-3.64,-3.56,-3.7121,-3.7516,-3.6829,-3.755,0.0,0.0,0.0,0.0,0.0,0.0,0.0,0.0,0.0,0.0,-2.8411,0.0,0.0,0.0,0.0,0.0,0.0,0.0,0.0,0.0,0.0,-2.8411,-2.9243,-3.3365,-3.8415,-4.3556,-4.7558,-5.0667,-5.2606,-5.1929,-4.765,-4.2576,0.0,0.0,-3.0048,-2.8688,-2.8411,-2.8411,-2.8411,-2.8411,-2.8165,-2.7519,-2.795,0.0,-3.2967,0.0,0.0,0.0,0.0,0.0,0.0,0.0,0.0,0.0,0.0,0.0,0.0,-5.6115,-5.633,-5.7765,-5.7826,-5.7487,-5.681,-5.6053,-5.5376,-5.4683,-5.3976,-5.3375,-5.2729,-5.2698,-5.2698,0.0,0.0,0.0,0.0,-5.2698,-5.2698,-5.2698,-5.2698,-5.2298,-5.1621,-5.0944,-5.0266,-4.9682,0.0,0.0,0.0,0.0,0.0,0.0,0.0,-3.6197,-3.7313,-3.9073,-4.0155,-4.0993,-4.1474,-4.0223,-3.9242,-3.9005,-3.7889,0.0,0.0,0.0,0.0,0.0,0.0,0.0,0.0,0.0,-3.6366,-3.7155,-3.7652,-3.81,-3.842,-3.8091,-3.7367,0.0,0.0,0.0,0.0,0.0,0.0,0.0,0.0,-3.0016,-2.9648,0.0,0.0,0.0,0.0,0.0,0.0,0.0,0.0,0.0,0.0,0.0,0.0,-2.995,-3.3829,-3.8415,-4.1555,-4.4079,-4.5649,-4.4972,-4.2078,-3.86,-3.543,-3.2475,-3.0017,-2.8688,-2.8411,-2.8411,-2.8411,-2.8411,-2.8473,-2.875,-2.8941,0.0,0.0,0.0,0.0,0.0,0.0,0.0,0.0,0.0,0.0,0.0,0.0,0.0,0.0,-5.633,-5.5899,-5.633,-5.593,-5.5592,-5.5376,-5.4699,-5.4483,-5.4683,-5.3591,-5.316,-5.3406,-5.3406,0.0,0.0,0.0,0.0,0.0,-5.2698,-5.2698,-5.2698,-5.2698,-5.2575,-5.2298,-5.1621,-5.0944,-5.0297,0.0,0.0,0.0,0.0,0.0,0.0,0.0,-3.5148,-3.5938,-3.6884,-3.7821,-3.8903,-4.0223,-3.9039,-3.8396,-3.8937,-3.8058,0.0,0.0,0.0,0.0,0.0,0.0,0.0,-3.56,-3.56,-3.6343,-3.7922,-3.8193,-3.8865,-3.994,-3.9396,-3.8455,-3.7221,-3.6355,-3.5442,0.0,0.0,0.0,0.0,-3.1437,-3.0703,-3.0198,0.0,0.0,0.0,0.0,0.0,0.0,0.0,0.0,0.0,0.0,0.0,0.0,0.0,-3.0505,-3.3521,-3.6722,-3.9123,-4.0632,-4.0478,-3.8385,-3.5768,-3.3521,-3.1274,-2.9402,-2.8565,-2.8411,-2.8411,-2.8411,-2.8411,-2.8442,-2.8627,-2.8658,0.0,0.0,0.0,0.0,0.0,0.0,0.0,0.0,0.0,0.0,0.0,0.0,0.0,0.0,-5.5684,-5.4945,-5.4945,-5.4822,-5.4683,-5.4683,-5.4006,-5.3883,-5.4283,-5.3252,-5.2944,-5.3345,-5.3345,0.0,0.0,0.0,0.0,0.0,-5.2698,-5.2698,-5.2698,-5.2698,-5.2698,-5.2637,-5.1959,-5.1282,-5.0636,0.0,0.0,0.0,0.0,0.0,0.0,0.0,-3.5081,-3.5532,-3.56,-3.56,-3.6411,-3.8531,-3.754,-3.7269,-3.8633,0.0,0.0,0.0,0.0,0.0,0.0,0.0,0.0,-3.56,-3.56,-3.6411,-3.8058,-3.87,-3.9792,-4.1287,-4.1212,-4.04,-3.8922,-3.8203,-3.7019,-3.5532,-3.5005,-3.382,-3.2266,-3.2254,-3.1462,0.0,0.0,0.0,0.0,0.0,0.0,0.0,0.0,0.0,0.0,0.0,0.0,0.0,0.0,0.0,0.0,0.0,-3.543,-3.6999,-3.7646,-3.5891,-3.3735,-3.2413,-3.0197,0.0,-2.8411,-2.8411,-2.8411,-2.8473,-2.8442,-2.8258,-2.7765,0.0,0.0,0.0,0.0,0.0,0.0,0.0,0.0,0.0,0.0,0.0,0.0,0.0,0.0,0.0,-5.4514,-5.376,-5.376,-5.4252,-5.4529,-5.4529,-5.3914,-5.3683,-5.3714,-5.3098,-5.279,-5.279,-5.2821,0.0,0.0,0.0,0.0,0.0,-5.2698,-5.2698,-5.2698,-5.2698,-5.2698,-5.2637,-5.2021,-5.1313,-5.0697,0.0,0.0,0.0,0.0,0.0,0.0,0.0,0.0,0.0,0.0,-3.56,-3.5802,-3.6343,-3.6096,-3.6028,0.0,0.0,0.0,0.0,0.0,0.0,0.0,0.0,0.0,-3.56,-3.56,-3.6907,-3.9605,-3.9174,-4.012,-4.216,-4.1526,-4.0187,-3.8302,-3.7999,-3.6831,-3.4991,-3.484,-3.408,-3.2982,-3.2848,-3.1815,0.0,0.0,0.0,0.0,-2.8411,-2.8411,0.0,0.0,0.0,0.0,0.0,0.0,0.0,0.0,-2.8411,-2.8627,-2.9581,0.0,-3.0597,-3.0751,-3.0289,-2.9735,0.0,-2.8842,-2.8411,-2.8411,-2.8411,-2.8565,-2.9064,-2.875,-2.8842,-3.0228,0.0,0.0,0.0,0.0,0.0,0.0,0.0,0.0,0.0,0.0,0.0,0.0,0.0,0.0,0.0,-5.5222,-5.4437,-5.4437,-5.3607,-5.3191,-5.3191,-5.3037,-5.3221,-5.3714,-5.356,-5.3468,-5.3498,-5.3976,0.0,0.0,0.0,0.0,-5.2698,-5.2698,-5.2698,-5.2698,-5.2698,-5.2698,-5.2698,-5.2544,-5.1713,-5.0697,0.0,0.0,0.0,0.0,0.0,0.0,0.0,0.0,0.0,0.0,0.0,0.0,0.0,0.0,0.0,0.0,0.0,0.0,0.0,0.0,0.0,0.0,0.0,-3.56,-3.56,-3.596,-3.7449,-4.0113,-4.002,-4.1182,-4.3456,-4.2591,-4.1081,-3.8941,-3.7475,-3.6088,-3.4769,-3.4553,-3.4111,-3.3515,-3.2958,0.0,0.0,0.0,0.0,0.0,-2.8504,-2.8411,0.0,-2.8411,-2.8411,-2.8411,0.0,0.0,0.0,0.0,-2.8411,-2.8411,-2.8411,-2.8411,-2.8411,-2.8411,-2.8411,-2.8411,-2.8411,-2.8411,-2.8411,-2.8411,-2.8411,-2.8504,-2.8873,-2.8658,0.0,0.0,-3.1243,0.0,0.0,0.0,0.0,0.0,0.0,0.0,0.0,0.0,0.0,0.0,0.0,0.0,0.0,-5.4822,-5.4068,-5.3806,-5.3098,-5.2698,-5.2698,-5.2698,-5.3067,-5.3714,-5.3714,-5.3714,-5.3745,-5.4068,-5.3714,0.0,0.0,0.0,-5.2698,-5.2698,-5.2698,-5.2698,-5.2698,-5.2698,-5.2698,-5.2698,-5.1867,-5.0697,0.0,0.0,0.0,0.0,0.0,0.0,0.0,0.0,0.0,0.0,0.0,0.0,0.0,0.0,0.0,0.0,0.0,0.0,0.0,0.0,0.0,0.0,-3.5667,-3.5701,-3.5938,-3.6603,-3.8115,-4.0451,-4.1407,-4.2929,-4.4919,-4.435,-4.2658,-3.9977,-3.7212,-3.5482,-3.4649,-3.4284,-3.3986,-3.3681,-3.2841,0.0,0.0,0.0,0.0,0.0,0.0,0.0,0.0,-2.8411,-2.8411,-2.8411,-2.8411,0.0,0.0,0.0,0.0,0.0,-2.8535,-2.8565,-2.8535,-2.8442,-2.8411,-2.8411,-2.8411,-2.8411,-2.8411,-2.8411,-2.8411,-2.8504,-2.8812,-2.8935,0.0,0.0,0.0,0.0,0.0,0.0,0.0,0.0,0.0,0.0,0.0,0.0,0.0,0.0,0.0,0.0,0.0,-5.4037,-5.3406,-5.2729,-5.2698,-5.2698,-5.2698,-5.2698,-5.3067,-5.3714,-5.3714,-5.3714,-5.3714,-5.3714,-5.3345,0.0,0.0,0.0,-5.2698,-5.2698,-5.2698,-5.2698,-5.2698,-5.2698,-5.2698,-5.2698,-5.1929,-5.082,0.0,0.0,0.0,0.0,0.0,0.0,0.0,0.0,0.0,0.0,0.0,0.0,0.0,0.0,0.0,0.0,0.0,0.0,0.0,0.0,0.0,-3.6626,-3.596,-3.6208,-3.7516,-3.7686,-3.9106,-4.1948,-4.4012,-4.55,-4.6447,-4.6989,-4.466,-4.0054,-3.8328,-3.6285,-3.4161,-3.4529,-3.3878,-3.2683,-3.2975,0.0,0.0,0.0,0.0,0.0,0.0,0.0,0.0,-2.8411,-2.8411,-2.8411,-2.8411,0.0,0.0,0.0,0.0,0.0,-2.9089,-2.9248,-2.9095,-2.8535,-2.8411,-2.8411,-2.8411,-2.8411,-2.8411,-2.8411,-2.8411,-2.8935,-3.0628,-3.1397,-3.2382,0.0,0.0,0.0,0.0,0.0,0.0,0.0,0.0,0.0,0.0,0.0,0.0,0.0,0.0,0.0,0.0,-5.4037,-5.3406,-5.2729,-5.2698,-5.2698,-5.2698,-5.2698,-5.3067,-5.3714,-5.3714,-5.3714,-5.3714,-5.3714,-5.3345,0.0,0.0,-5.2698,-5.2698,-5.2698,-5.2698,-5.2698,-5.2698,-5.2698,-5.2698,-5.2698,-5.2206,-5.1374,0.0,0.0,0.0,0.0,0.0,0.0,0.0,0.0,0.0,0.0,0.0,0.0,0.0,0.0,0.0,0.0,0.0,0.0,0.0,0.0,-3.6998,-3.7381,-3.7043,-3.7155,-3.7889,-3.9073,-4.0933,-4.3565,-4.5805,-4.7665,-4.912,-4.709,-4.3805,-3.9603,-3.7702,-3.5794,-3.4011,-3.3953,-3.3495,-3.2815,0.0,0.0,0.0,0.0,0.0,0.0,0.0,0.0,0.0,0.0,-2.8411,-2.8411,-2.8411,0.0,0.0,0.0,0.0,0.0,-2.8781,-2.8873,-2.8965,-2.9371,-2.9187,-2.8873,-2.8504,-2.8411,-2.8504,-2.8873,-2.8935,-2.955,0.0,0.0,-3.5584,-4.0235,0.0,0.0,0.0,0.0,0.0,0.0,0.0,0.0,0.0,0.0,0.0,0.0,0.0,0.0,0.0,0.0,-5.3406,-5.2729,-5.2698,-5.2698,-5.2698,-5.2698,-5.3067,-5.3714,-5.3714,-5.3714,-5.3714,-5.3714,-5.3345,-5.2698,0.0,-5.2698,-5.2698,-5.2698,-5.2698,-5.2698,-5.2698,-5.2698,-5.2667,-5.2298,-5.1744,-5.1005,0.0,0.0,0.0,0.0,0.0,0.0,0.0,0.0,0.0,0.0,0.0,0.0,0.0,0.0,0.0,0.0,0.0,0.0,0.0,-3.7134,-3.7574,-3.8125,-3.8497,-3.8768,-3.8937,-4.0933,-4.32,-4.563,-4.8206,-5.0168,-5.1386,-4.7293,-4.3289,-3.9462,-3.7443,-3.5522,-3.3809,-3.3365,-3.3103,-3.3002,0.0,0.0,0.0,0.0,0.0,0.0,0.0,0.0,0.0,0.0,0.0,0.0,0.0,0.0,0.0,-2.8411,-2.8411,-2.8442,-2.8596,-2.8627,-2.8873,-2.9894,-2.9894,-2.971,-3.0012,-3.0074,-3.0351,-3.1336,-3.1428,0.0,0.0,-3.5768,0.0,0.0,0.0,0.0,0.0,0.0,0.0,0.0,0.0,0.0,0.0,0.0,0.0,0.0,0.0,0.0,0.0,0.0,-5.3252,-5.2729,-5.2698,-5.2698,-5.2698,-5.2698,-5.2975,-5.3468,-5.3345,-5.3345,-5.3468,-5.3314,-5.3067,-5.2698,-5.2698,-5.2698,-5.2698,-5.2698,-5.2698,-5.2698,-5.2698,-5.2698,-5.2637,-5.2144,-5.1621,-5.1067,0.0,0.0,0.0,0.0,0.0,0.0,0.0,0.0,0.0,0.0,0.0,0.0,0.0,0.0,0.0,0.0,0.0,0.0,0.0,-3.8058,-3.887,-3.8903,-4.0223,-4.1271,-4.1948,-4.3565,-4.5771,-4.868,-5.2334,-5.345,-5.2164,-4.9086,-4.5038,-4.0259,-3.8705,-3.6261,-3.3261,-3.3209,-3.2922,-3.2437,-3.241,0.0,0.0,0.0,0.0,0.0,0.0,0.0,0.0,0.0,0.0,0.0,0.0,0.0,-2.8411,-2.8411,-2.8411,-2.8535,-2.9156,-2.9335,-2.9341,-2.9433,-2.9894,-3.1124,-3.426,-3.4998,-3.5522,-3.7461,-3.7369,-3.7153,0.0,-4.0755,0.0,0.0,0.0,0.0,0.0,0.0,0.0,0.0,0.0,0.0,0.0,0.0,0.0,0.0,0.0,0.0,0.0,0.0,0.0,-5.2698,-5.2698,-5.2698,-5.2698,-5.2698,-5.2729,-5.276,-5.2144,-5.2175,-5.276,-5.2144,-5.2175,-5.2698,-5.2698,-5.2698,-5.2698,-5.2698,-5.2698,-5.2698,-5.2698,-5.2698,-5.2698,-5.2667,-5.2606,-5.2483,0.0,0.0,0.0,0.0,0.0,0.0,0.0,0.0,0.0,0.0,0.0,0.0,0.0,0.0,0.0,0.0,0.0,0.0,0.0,-3.8667,-3.9174,-3.9673,-4.0663,-4.1779,-4.2963,-4.5399,-4.8342,-5.1792,-5.3687,-5.3348,-5.0894,-4.7548,-4.3514,-3.9028,-3.7237,-3.5252,-3.3182,-3.2841,-3.2602,-3.2382,-3.2382,-3.2382,0.0,0.0,0.0,0.0,0.0,0.0,0.0,0.0,-2.8411,-2.8411,-2.8411,-2.8411,-2.8411,-2.8411,-2.8411,-2.8473,-2.8719,-2.9704,-3.0751,-3.1151,-3.2105,-3.3275,-3.4597,-3.5521,-3.6692,-3.8723,-3.9616,-4.0509,0.0,0.0,0.0,0.0,0.0,0.0,0.0,0.0,0.0,0.0,0.0,0.0,0.0,0.0,0.0,0.0,0.0,0.0,0.0,0.0,0.0,-5.2698,-5.2298,-5.2082,-5.2082,-5.1652,-5.1467,-5.1467,-5.1621,-5.1621,-5.1436,-5.119,-5.1221,-5.1467,-5.1467,-5.1467,-5.1498,-5.1898,-5.2082,-5.2144,-5.2544,-5.2452,-5.2144,-5.2575,-5.2452,-5.2052,0.0,0.0,0.0,0.0,0.0,0.0,0.0,0.0,0.0,0.0,0.0,0.0,0.0,0.0,0.0,0.0,0.0,0.0,-3.8971,-3.9208,-3.9571,-4.0079,-4.0798,-4.2117,-4.4085,-4.6853,-4.9864,-5.3112,-5.3887,-5.2636,-4.9393,-4.6251,-4.2815,-3.9217,-3.7007,-3.5247,-3.3893,-3.3042,-3.2598,-3.2382,-3.2382,-3.2382,0.0,0.0,0.0,0.0,0.0,0.0,0.0,0.0,-2.8411,-2.8411,-2.8411,-2.8411,-2.8411,-2.8411,-2.8411,-2.8411,-2.8411,-2.9704,-3.1182,-3.1643,-3.346,-3.5491,-3.6753,-3.7584,-3.8908,-4.1801,-4.2817,-4.3464,-4.4418,0.0,0.0,0.0,0.0,0.0,0.0,0.0,0.0,0.0,0.0,0.0,0.0,0.0,0.0,0.0,0.0,0.0,0.0,0.0,0.0,0.0,-5.1621,-5.1374,-5.1374,-5.0913,-5.0574,-5.0389,-5.0851,-5.0944,-5.0697,-5.0697,-5.0697,-5.0697,-5.0913,-5.1005,-5.1036,-5.1498,-5.1836,-5.2082,-5.2544,-5.2421,-5.2082,-5.2544,-5.2421,-5.2021,0.0,0.0,0.0,0.0,0.0,0.0,0.0,0.0,0.0,0.0,0.0,0.0,0.0,0.0,0.0,0.0,0.0,0.0,-3.9005,-3.9706,-4.0113,-4.0113,-4.0798,-4.2591,-4.5573,-4.7804,-5.0067,-5.23,-5.3066,-5.1551,-4.7835,-4.5669,-4.3524,-4.1355,-3.8635,-3.6682,-3.5398,-3.3983,-3.2998,-3.2382,-3.2382,-3.2382,-3.2382,0.0,0.0,0.0,0.0,0.0,0.0,0.0,-2.8411,-2.8411,-2.8411,-2.8411,-2.8411,-2.8411,-2.8411,-2.8442,-2.8442,-2.9402,-3.0448,-3.0448,-3.3521,-3.7584,-4.1678,-4.2078,-4.294,-4.765,-4.7558,-4.6203,-4.4849,-4.5711,0.0,0.0,0.0,0.0,0.0,0.0,0.0,0.0,0.0,0.0,0.0,0.0,0.0,0.0,0.0,0.0,0.0,0.0,0.0,0.0,-5.0697,-5.0697,-5.0697,-5.0667,-5.0328,-4.9682,-4.9682,-5.002,-5.0667,-5.0667,-5.0667,-5.0697,-5.1374,-5.1682,-5.1682,-5.1682,-5.2082,-5.2698,-5.2698,-5.2698,-5.2698,-5.2698,-5.2698,-5.2698,0.0,0.0,0.0,0.0,0.0,0.0,0.0,0.0,0.0,0.0,0.0,0.0,0.0,0.0,0.0,0.0,0.0,0.0,-3.9774,-3.9977,-4.0113,-4.0113,-4.04,-4.1015,-4.1883,-4.4194,-4.7663,-5.23,-5.0893,-4.8396,-4.5014,-4.3758,-4.1762,-3.9212,-3.8548,-3.7166,-3.5271,-3.3939,-3.2998,-3.2382,-3.2382,-3.2382,-3.2382,0.0,0.0,0.0,0.0,0.0,0.0,0.0,0.0,0.0,-2.8411,-2.8411,-2.8411,-2.8411,-2.9089,-2.9802,-2.9802,-3.1859,-3.4106,-3.4568,-3.6661,-3.9431,-4.2571,-4.2786,-4.3371,-4.7127,-4.8358,-4.8481,-4.7588,0.0,0.0,0.0,0.0,0.0,0.0,0.0,0.0,0.0,0.0,0.0,0.0,0.0,0.0,0.0,0.0,0.0,0.0,0.0,0.0,0.0,-5.0236,-4.9989,-4.9989,-4.9466,-4.9127,-4.8943,-4.8943,-4.9035,-4.922,-4.922,-4.922,-4.9251,-4.9435,-4.9528,-4.9558,-5.0082,-5.0974,-5.2021,-5.2021,-5.2298,-5.2698,-5.2698,-5.2698,-5.2698,0.0,0.0,0.0,0.0,0.0,0.0,0.0,0.0,0.0,0.0,-3.7618,-3.8058,0.0,0.0,0.0,0.0,0.0,0.0,0.0,-3.9986,-3.9978,-3.9747,-4.0046,-4.0521,-4.1166,-4.3119,-4.5534,-4.8438,-4.7572,-4.5734,-4.2842,-4.2873,-4.2138,-4.0737,-4.0636,-3.9249,-3.6905,-3.558,-3.4014,-3.2382,-3.2382,-3.2382,-3.2382,0.0,0.0,0.0,0.0,0.0,0.0,0.0,0.0,0.0,-2.8411,-2.8411,-2.8411,-2.8411,-2.9341,-3.0386,-3.0386,-3.2906,-3.5707,-3.6661,-3.9031,-4.1771,-4.4202,0.0,0.0,0.0,-4.9682,-5.002,-4.9866,0.0,0.0,0.0,0.0,0.0,0.0,0.0,0.0,0.0,0.0,0.0,0.0,0.0,0.0,0.0,0.0,0.0,0.0,0.0,0.0,0.0,-4.9466,-4.9251,-4.9251,-4.882,-4.8604,-4.8604,-4.8604,-4.8604,-4.8635,-4.8912,-4.8881,-4.8635,-4.8912,-4.9035,-4.9097,-4.9805,-5.0574,-5.1313,-5.1313,-5.1559,-5.1959,-5.2206,-5.2298,-5.2298,0.0,0.0,-3.5701,-3.5701,0.0,0.0,0.0,0.0,0.0,0.0,-3.8058,-3.8091,0.0,0.0,0.0,0.0,0.0,0.0,0.0,0.0,-3.9825,-3.9249,-3.967,-4.0635,-4.2104,-4.3261,-4.3262,-4.2051,-4.3774,-4.3426,-4.1134,-4.2807,-4.3793,-4.4099,-4.3622,-4.1903,-3.9305,-3.78,-3.5306,-3.2382,-3.2382,-3.2382,-3.2382,-3.2382,0.0,0.0,0.0,0.0,0.0,0.0,0.0,0.0,-2.8411,-2.8411,-2.8411,-2.8411,-2.9341,-3.0417,-3.054,-3.309,-3.6014,-3.7492,-4.097,0.0,-4.6449,-4.8912,-5.0913,-5.1344,0.0,-5.1128,0.0,0.0,0.0,0.0,0.0,0.0,0.0,0.0,0.0,0.0,0.0,0.0,0.0,0.0,0.0,0.0,0.0,0.0,0.0,0.0,0.0,-4.8543,-4.8512,-4.8543,-4.8604,-4.8604,-4.8604,0.0,-4.8604,-4.8604,-4.8635,-4.9281,-4.922,-4.8666,-4.9312,-4.9589,-4.962,-5.0266,-5.0543,-5.0605,-5.0605,-5.0636,-5.0759,-5.1436,-5.1652,-5.1621,0.0,0.0,-3.6535,-3.6535,0.0,0.0,0.0,0.0,0.0,0.0,0.0,0.0,0.0,-3.9774,0.0,0.0,0.0,0.0,0.0,0.0,-3.9825,-3.9249,-3.8892,-3.8869,-3.9186,-3.9033,-3.8796,-3.8496,-4.1892,-4.1978,-3.9023,-4.2635,-4.3266,-4.1389,-4.1823,-4.081,-3.8539,-3.5553,-3.3552,-3.2382,-3.2382,-3.2382,-3.2382,-3.2382,-3.2228,0.0,0.0,0.0,0.0,0.0,0.0,0.0,-2.8411,-2.8411,-2.8411,-2.8411,-2.9341,-3.0632,-3.1674,-3.4475,-3.7646,-4.0108,-4.4141,-4.7804,-4.8789,-5.0297,-5.1067,-4.9589,-5.1313,0.0,0.0,0.0,0.0,0.0,0.0,0.0,0.0,0.0,0.0,0.0,0.0,0.0,0.0,0.0,0.0,0.0,0.0,0.0,0.0,0.0,0.0,-4.7835,-4.7835,-4.8081,-4.8604,-4.8604,-4.8604,0.0,-4.8604,-4.8604,-4.8635,-4.8758,-4.8758,-4.8635,-4.8789,-4.885,-4.885,-4.9004,-4.9404,-4.9897,-4.9897,-5.0236,-5.0759,-5.1436,-5.1374,-5.1067,0.0,0.0,0.0,0.0,0.0,0.0,0.0,0.0,0.0,0.0,0.0,0.0,0.0,-4.0113,0.0,0.0,-4.0113,0.0,0.0,0.0,-3.9825,-3.9249,-3.8912,-3.8492,-3.7883,-3.7882,-3.7545,-3.6911,-3.9548,-4.0018,-3.8456,-4.1234,-4.214,-4.152,-4.19,-4.073,-3.8385,-3.6261,-3.4229,-3.2382,-3.2382,-3.2382,-3.2382,-3.2382,-3.2198,-3.1767,-3.0755,0.0,0.0,0.0,0.0,0.0,0.0,0.0,-2.8411,-2.8411,-2.9341,-3.0694,-3.2044,-3.466,0.0,-4.2417,0.0,-4.9312,-5.002,-5.0728,-5.1005,-5.0236,0.0,0.0,0.0,0.0,0.0,0.0,0.0,0.0,0.0,0.0,0.0,0.0,0.0,0.0,0.0,0.0,0.0,0.0,0.0,0.0,0.0,-4.7773,-4.7742,-4.8081,-4.7773,-4.7927,-4.8604,-4.8296,-4.8296,-4.8604,-4.8604,-4.845,-4.8142,-4.845,-4.8604,-4.8604,-4.8604,-4.8604,-4.8604,-4.8604,-4.882,-4.9158,-4.9158,-4.9404,-4.9835,-5.0851,-5.079,-5.0389,0.0,0.0,0.0,0.0,0.0,0.0,0.0,0.0,0.0,0.0,0.0,0.0,0.0,0.0,-4.0113,0.0,0.0,0.0,0.0,0.0,0.0,-3.9055,-3.9003,-3.8459,-3.7417,-3.7829,-3.7484,-3.6229,-3.7288,-3.799,-3.8368,-3.9724,-4.0984,-4.2048,-4.1926,-4.057,-3.8262,-3.7246,-3.5091,-3.2382,-3.2382,-3.2382,-3.2382,-3.2382,-3.2044,-3.1459,-3.0812,-3.0202,-2.9643,-2.8965,0.0,0.0,0.0,0.0,-2.8411,-2.8411,-2.9212,-3.0356,-3.1705,-3.4475,-3.8385,-4.4141,-4.7465,0.0,-5.0174,-5.0451,-5.0667,0.0,0.0,0.0,0.0,0.0,0.0,0.0,0.0,0.0,0.0,0.0,0.0,0.0,0.0,0.0,0.0,0.0,0.0,0.0,0.0,0.0,-4.8419,-4.7896,-4.7865,-4.8419,-4.7896,-4.7927,-4.8604,-4.805,-4.805,-4.8604,-4.8604,-4.8327,-4.7804,-4.8235,-4.8358,-4.8266,-4.8389,-4.845,-4.845,-4.8573,-4.8604,-4.8604,-4.8604,-4.8604,-4.8758,-5.0051,-5.0082,-4.9682,0.0,0.0,0.0,0.0,0.0,0.0,0.0,0.0,0.0,0.0,-4.0113,-4.0113,0.0,0.0,0.0,-4.0113,-4.0113,-3.9825,-3.9216,0.0,0.0,-3.839,-3.7921,-3.7571,-3.7417,-3.6911,-3.6301,-3.5611,-3.5794,-3.6476,-3.7682,-3.9532,-4.0219,-3.9905,-3.9311,-3.8539,-3.7461,-3.4999,-3.3336,-3.2382,-3.2382,-3.2382,-3.2382,-3.2382,-3.2351,-3.2167,-3.149,-3.1213,-3.1028,-3.0356,-2.974,0.0,0.0,0.0,-2.8411,-2.8411,-2.8535,-2.8965,-3.0294,0.0,-4.017,0.0,-4.6757,-4.805,0.0,0.0,0.0,0.0,0.0,0.0,0.0,0.0,0.0,0.0,0.0,0.0,0.0,0.0,0.0,0.0,0.0,0.0,0.0,0.0,0.0,0.0,0.0,0.0,-4.7773,-4.765,-4.765,-4.7742,-4.765,-4.7927,-4.8604,-4.8512,-4.8512,-4.8604,-4.8604,-4.8573,-4.845,-4.7958,-4.7434,-4.6911,-4.7496,-4.7742,-4.7773,-4.8358,-4.8604,-4.8604,-4.8604,-4.8604,-4.8696,-4.9528,-4.9374,-4.8943,0.0,0.0,0.0,0.0,0.0,0.0,0.0,0.0,0.0,0.0,0.0,-4.0113,0.0,0.0,0.0,-3.9644,-3.9618,-3.9322,-3.8756,-3.8226,-3.7883,-3.7796,-3.7533,-3.7238,-3.6907,-3.6252,-3.5574,-3.4936,-3.5337,-3.5984,-3.6969,-3.8584,-3.9389,-3.9428,-3.8415,-3.7369,-3.6261,-3.4691,-3.3367,-3.2382,-3.2382,-3.2382,-3.2382,-3.2382,-3.2382,-3.229,-3.164,-3.1424,-3.1274,-3.0632,-3.0202,-2.9894,-2.9494,0.0,0.0,0.0,-2.8411,-2.8781,-3.0505,-3.4599,-3.9,0.0,-4.4079,-4.6172,-4.725,0.0,0.0,0.0,0.0,0.0,0.0,0.0,0.0,0.0,0.0,0.0,0.0,0.0,0.0,0.0,0.0,0.0,0.0,0.0,0.0,0.0,0.0,-4.7527,-4.7619,-4.688,-4.6819,-4.7588,-4.688,-4.6973,-4.805,-4.7311,-4.7127,-4.7496,-4.8235,-4.8019,-4.6911,-4.7004,-4.7096,-4.7157,-4.7065,-4.725,-4.7619,-4.7927,-4.8266,-4.8604,-4.8604,-4.8604,-4.8696,-4.9435,-4.922,-4.882,0.0,0.0,0.0,0.0,0.0,0.0,0.0,0.0,0.0,0.0,0.0,0.0,0.0,0.0,0.0,0.0,-3.8974,-3.8728,-3.8108,-3.7748,-3.7459,-3.7178,-3.7021,-3.6781,-3.6507,-3.5706,-3.4998,-3.4505,-3.4998,-3.583,-3.703,-3.8231,-3.9308,-4.0232,-3.8508,-3.6999,-3.5706,-3.4874,-3.3889,-3.2875,-3.2536,-3.2382,-3.2382,-3.2382,-3.2382,-3.2321,-3.1828,-3.1643,0.0,0.0,0.0,0.0,0.0,0.0,0.0,0.0,0.0,-2.8812,0.0,0.0,-3.6661,-3.8539,-4.1309,-4.3987,0.0,0.0,0.0,0.0,0.0,0.0,0.0,0.0,0.0,0.0,0.0,0.0,0.0,0.0,0.0,0.0,0.0,0.0,0.0,0.0,0.0,0.0,0.0,-4.6819,-4.7311,-4.6234,-4.6049,-4.7065,-4.5957,-4.5895,-4.7065,-4.6265,-4.6111,-4.6603,-4.7619,-4.7404,-4.6111,-4.6265,-4.6696,-4.7311,-4.6634,-4.6726,-4.7373,-4.7527,-4.8019,-4.8604,-4.8604,-4.8604,-4.8696,-4.922,-4.9189,-4.9035,0.0,0.0,0.0,0.0,0.0,0.0,0.0,0.0,0.0,0.0,0.0,0.0,-3.9276,-3.8756,-3.8362,-3.8334,-3.8334,-3.808,-3.7506,-3.6314,-3.5921,-3.6507,-3.5952,0.0,-3.6476,-3.5244,-3.4536,-3.4505,-3.4536,-3.5861,-3.8415,-3.9123,-4.0539,-4.2325,-3.9647,-3.7707,-3.6353,-3.5059,-3.4474,-3.4289,-3.2936,-3.2382,-3.2382,-3.2382,-3.2382,-3.2382,-3.2351,0.0,0.0,0.0,0.0,0.0,0.0,0.0,0.0,0.0,0.0,0.0,0.0,-3.1551,0.0,-3.6784,-3.9185,0.0,0.0,0.0,0.0,0.0,0.0,0.0,0.0,0.0,0.0,0.0,0.0,0.0,0.0,0.0,0.0,0.0,0.0,0.0,0.0,0.0,0.0,0.0,0.0,-4.6603,-4.6634,-4.5988,-4.5618,-4.568,-4.5003,-4.501,-4.568,-4.6265,-4.6573,-4.6603,-4.6665,-4.6973,-4.7465,-4.6203,-4.6018,-4.6603,-4.5926,-4.6018,-4.6696,-4.7342,-4.8019,-4.8604,-4.8604,-4.8604,-4.8604,-4.8666,-4.9097,-4.9651,0.0,0.0,0.0,0.0,0.0,0.0,0.0,0.0,0.0,0.0,0.0,0.0,0.0,-3.8418,-3.8137,-3.7767,-3.7356,-3.7058,-3.6846,-3.6013,-3.5799,-3.6476,-3.5861,-3.5799,-3.6476,-3.5213,-3.4505,-3.4505,-3.4014,-3.4752,-3.6569,-3.7246,-3.82,-3.9339,-3.9216,-3.8169,-3.6415,-3.509,-3.3981,-3.309,-3.2598,-3.2382,-3.2382,-3.2382,-3.2382,0.0,0.0,0.0,0.0,0.0,0.0,0.0,0.0,0.0,0.0,0.0,0.0,0.0,0.0,0.0,0.0,-3.3152,-3.5122,-3.7123,0.0,0.0,0.0,0.0,0.0,0.0,0.0,0.0,0.0,0.0,0.0,0.0,0.0,0.0,0.0,0.0,0.0,0.0,0.0,0.0,0.0,0.0,0.0,0.0,-4.5311,-4.4264,-4.3864,-4.4302,-4.3648,-4.3433,-4.3679,-4.4326,-4.4449,-4.4048,-4.5341,-4.5865,-4.568,-4.6049,-4.6142,-4.5926,-4.568,-4.5741,-4.5988,-4.6665,-4.7342,-4.8019,-4.845,-4.8604,-4.8604,-4.8604,-4.9066,-4.962,0.0,0.0,0.0,0.0,0.0,0.0,0.0,0.0,0.0,-3.8306,0.0,0.0,0.0,0.0,-3.7533,-3.7118,-3.6723,-3.6507,-3.6507,-3.5861,-3.5706,-3.6138,-3.5768,-3.5614,-3.5799,-3.4967,-3.4382,-3.4135,-3.3644,-3.4106,-3.5521,-3.6168,-3.6969,-3.7861,-3.8323,-3.7738,-3.6415,-3.509,-3.3981,-3.3059,-3.2844,-3.2721,-3.2813,-3.349,0.0,0.0,0.0,0.0,0.0,0.0,0.0,0.0,0.0,0.0,0.0,0.0,0.0,0.0,-2.8411,0.0,0.0,0.0,0.0,-3.395,0.0,0.0,0.0,0.0,0.0,0.0,0.0,0.0,0.0,0.0,0.0,0.0,0.0,0.0,0.0,0.0,0.0,0.0,0.0,0.0,0.0,0.0,0.0,0.0,-4.4271,-4.2971,-4.2355,-4.254,-4.2355,-4.2263,-4.2263,-4.291,-4.3033,-4.2633,-4.3956,-4.4603,-4.4641,-4.528,-4.5588,-4.5588,-4.5341,-4.5372,-4.5649,-4.6326,-4.7004,-4.7681,-4.8358,-4.8604,-4.8635,-4.8881,-4.9281,-4.9682,0.0,0.0,0.0,0.0,0.0,0.0,0.0,0.0,-3.825,-3.825,0.0,0.0,0.0,0.0,0.0,-3.6507,-3.6507,-3.6507,-3.6507,-3.5861,-3.5521,-3.5552,-3.5521,-3.5213,-3.4536,-3.4505,-3.4166,-3.3398,-3.3367,-3.4075,-3.5429,-3.6045,-3.7092,-3.8292,-3.6999,-3.6415,-3.6322,-3.5028,-3.4474,-3.4412,-3.3737,-3.349,-3.3737,0.0,0.0,0.0,-3.8138,-3.8631,0.0,-3.8662,0.0,0.0,0.0,0.0,0.0,0.0,0.0,0.0,0.0,0.0,0.0,0.0,0.0,0.0,-3.4751,0.0,0.0,0.0,0.0,0.0,0.0,0.0,0.0,0.0,0.0,0.0,0.0,0.0,0.0,0.0,0.0,0.0,0.0,0.0,0.0,0.0,0.0,-4.2848,-4.3531,-4.2325,-4.1309,-4.0536,-4.1247,-4.1586,-4.1586,-4.2202,-4.254,-4.254,-4.2571,-4.3279,-4.4579,-4.3932,-4.4363,-4.5557,-4.488,-4.501,-4.5618,-4.6296,-4.6973,-4.765,-4.8327,-4.8604,-4.8696,-4.9404,-4.9682,-4.9866,0.0,0.0,0.0,0.0,0.0,0.0,-3.6578,-3.6758,-3.6997,0.0,0.0,0.0,-3.7437,-3.7742,-3.7738,-3.7277,-3.7215,-3.6999,-3.6538,-3.5861,-3.5737,-3.6199,-3.5737,-3.5429,-3.5244,-3.4751,-3.4166,-3.3398,-3.2906,-3.2875,-3.3244,-3.3429,-3.3983,-3.4783,-3.4414,-3.426,-3.4229,-3.386,-3.3706,-3.3798,-3.5122,-3.5922,0.0,0.0,0.0,0.0,0.0,-4.1463,-4.1555,0.0,-4.017,-3.7061,0.0,0.0,0.0,0.0,0.0,0.0,-2.8535,0.0,0.0,0.0,0.0,0.0,-3.1428,-3.2475,0.0,0.0,0.0,0.0,0.0,0.0,0.0,0.0,0.0,0.0,0.0,0.0,0.0,0.0,0.0,0.0,0.0,0.0,0.0,0.0,-4.2355,-4.2171,-4.2848,-4.2509,-4.2017,-4.134,-4.1494,-4.134,-4.0812,-4.0966,-4.1058,-4.1089,-4.1617,-4.2571,-4.3901,-4.4209,-4.4795,-4.5588,-4.5372,-4.5126,-4.4949,-4.5588,-4.6265,-4.6942,-4.7619,-4.8173,-4.8635,-4.885,-4.9251,-4.9682,0.0,0.0,-3.5522,-3.523,0.0,-3.6963,-3.6731,-3.6846,-3.6907,0.0,0.0,0.0,-3.7861,-3.8539,-3.8539,-3.7584,-3.7492,-3.7215,-3.6538,-3.6107,-3.5984,-3.6076,-3.5953,-3.5675,-3.5121,-3.469,-3.4166,-3.3398,-3.2721,-3.2382,-3.2382,-3.2382,-3.2598,-3.2967,-3.2967,-3.2967,-3.2967,-3.2967,0.0,0.0,-3.5276,0.0,0.0,-4.0078,-4.097,0.0,0.0,0.0,-4.3956,-4.4603,-4.2602,0.0,0.0,0.0,0.0,0.0,0.0,0.0,0.0,0.0,0.0,0.0,0.0,0.0,-2.974,-3.0505,-3.1797,0.0,0.0,0.0,0.0,0.0,0.0,0.0,0.0,0.0,0.0,0.0,0.0,0.0,0.0,0.0,0.0,0.0,0.0,-4.2171,-4.1555,-4.1463,-4.214,-4.2202,-4.2017,-4.1617,-4.1309,-4.0905,-4.0505,-4.0505,-4.0505,-4.0505,-4.097,-4.1709,-4.2823,-4.3747,-4.4425,-4.4825,-4.5341,-4.5218,-4.4641,-4.5003,-4.5557,-4.6265,-4.7219,-4.7835,-4.8266,-4.885,-4.9127,-4.9251,0.0,0.0,-3.4094,-3.5166,-3.6038,-3.6786,-3.7242,-3.7499,-3.7615,0.0,-3.7677,-3.7954,-3.8569,-3.9182,-3.9123,-3.7831,-3.7646,-3.7338,-3.663,-3.6538,-3.623,-3.5645,-3.6168,-3.5891,-3.4628,-3.4536,-3.4166,-3.3398,-3.2721,-3.2382,-3.2382,-3.2382,-3.2382,-3.2382,-3.2382,-3.2382,-3.2382,-3.2382,0.0,-3.5614,-3.5306,-3.6384,0.0,0.0,-4.2325,-4.2663,-4.5711,-4.6419,-4.5957,-4.6111,-4.4172,0.0,0.0,0.0,0.0,0.0,-3.1089,0.0,0.0,0.0,0.0,0.0,0.0,0.0,-2.9489,-2.9956,-3.0848,0.0,0.0,0.0,0.0,0.0,0.0,0.0,0.0,0.0,0.0,0.0,0.0,0.0,0.0,0.0,0.0,-4.094,-4.0751,-4.1432,-4.097,-4.0905,-4.1555,-4.1678,-4.1678,-4.1586,-4.0935,-4.0566,-4.0505,-4.0505,-4.0505,-4.0505,-4.0505,-4.094,-4.174,-4.2977,-4.3562,-4.3778,-4.4941,-4.5126,-4.461,-4.461,-4.4972,-4.5711,-4.7004,-4.7527,-4.7773,-4.9097,-4.9158,-4.8789,-3.4482,-3.5225,-3.5799,-3.5517,-3.6477,-3.7339,-3.7435,-3.7926,-3.8323,-3.8323,-3.8785,-3.9152,-3.9308,-3.989,-3.9982,-3.9185,-3.8631,-3.8015,-3.7338,-3.6784,-3.6445,-3.6292,-3.6415,-3.6107,-3.5337,-3.4782,-3.4166,-3.3398,-3.2721,-3.2382,-3.2382,-3.2382,-3.2382,-3.2382,-3.2382,-3.2382,-3.2382,-3.2382,0.0,-3.6476,-3.8508,0.0,-4.2761,-4.6018,-4.6911,-4.6603,-4.7804,-4.8142,-4.7558,-4.4449,-4.2971,-4.1648,0.0,0.0,0.0,0.0,0.0,0.0,0.0,0.0,0.0,0.0,0.0,0.0,-3.0817,-3.0181,-3.0037,0.0,0.0,0.0,0.0,0.0,0.0,0.0,0.0,0.0,0.0,0.0,0.0,0.0,0.0,0.0,0.0,-4.094,-4.0536,-4.0689,-4.1155,-4.1463,-4.1586,-4.2109,-4.2171,-4.1617,-4.1463,-4.1124,-4.0505,-4.0505,-4.0505,-4.0505,-4.0505,-4.1151,-4.2417,-4.2694,-4.3371,-4.4425,-4.4664,-4.4695,-4.461,-4.461,-4.4972,-4.568,-4.648,-4.7127,-4.7711,-4.8512,-4.8727,-4.8666,-3.4347,-3.5237,-3.5891,-3.5583,-3.6876,-3.8015,-3.8015,-3.8569,-3.909,-3.9428,-4.0108,-4.057,-4.057,-4.0847,-4.0628,-3.9582,-3.9216,-3.8569,-3.7554,-3.7184,-3.6846,-3.6507,-3.6507,-3.6322,-3.6014,-3.5337,-3.4659,-3.3952,-3.3244,-3.2721,-3.2382,-3.2382,-3.2382,-3.2382,-3.2382,-3.2382,-3.2475,0.0,-3.5522,-3.8077,-3.8754,0.0,-4.291,-4.5957,-4.6911,-4.6788,-4.8142,-4.8604,-4.8112,-4.4726,-4.3587,0.0,0.0,-3.7646,-3.5861,0.0,-3.349,-3.1828,0.0,0.0,0.0,-3.0905,0.0,0.0,0.0,-2.9787,-2.9695,0.0,0.0,0.0,0.0,0.0,0.0,0.0,0.0,0.0,0.0,0.0,0.0,0.0,0.0,0.0,0.0,-3.9924,-3.9613,-3.9982,-4.1001,-4.1586,-4.1586,-4.1925,-4.1955,-4.1617,-4.1247,-4.0843,-4.0505,-4.0505,-4.0505,-4.0505,-4.0843,-4.1432,-4.214,-4.3125,-4.3771,-4.4148,-4.4825,-4.488,-4.461,-4.461,-4.4825,-4.5195,-4.5834,-4.6511,-4.7188,-4.7865,-4.8327,-4.8604,-3.4566,-3.5244,-3.5706,-3.5706,-3.7246,-3.8508,-3.8508,-3.9185,-3.992,-4.0597,-4.1124,-4.1555,-4.1925,-4.1617,-4.1217,-4.0724,-3.992,-3.9185,0.0,0.0,-3.7184,-3.6507,-3.6507,-3.6507,-3.6507,-3.5737,-3.5059,-3.4505,-3.3614,-3.2936,-3.2382,-3.2382,-3.2382,-3.2413,-3.2536,-3.2721,-3.3121,0.0,0.0,-3.9613,0.0,-3.9985,-4.2294,-4.5095,-4.5865,-4.568,-4.7835,-4.8604,-4.8235,-4.5803,0.0,-4.4756,-4.2509,-3.9708,0.0,0.0,0.0,0.0,0.0,0.0,0.0,0.0,0.0,-3.0777,0.0,0.0,0.0,0.0,0.0,0.0,0.0,0.0,0.0,0.0,0.0,0.0,0.0,0.0,0.0,0.0,0.0,0.0,0.0,-3.8785,-3.8939,-3.9459,-4.0693,-4.1401,-4.1401,-4.1401,-4.1401,-4.1401,-4.0812,-4.0505,-4.0505,-4.0505,-4.0505,-4.0505,-4.1247,-4.1678,-4.1863,-4.3587,-4.4209,-4.387,-4.4949,-4.5095,-4.461,-4.461,-4.461,-4.4671,-4.5311,-4.5988,-4.6665,-4.7342,-4.8019,-4.8604,-3.5275,-3.5953,-3.6384,-3.6384,-3.7554,-3.8508,0.0,0.0,-4.0628,-4.137,-4.1001,-4.134,-4.3193,-4.174,0.0,0.0,0.0,0.0,-4.1063,0.0,0.0,0.0,-3.6507,-3.6507,-3.6507,-3.5275,-3.4597,-3.4505,-3.3152,-3.2475,-3.2382,-3.2382,-3.2382,0.0,-3.3029,0.0,0.0,0.0,-3.7923,0.0,-4.2202,-4.31,0.0,-4.7004,-4.6788,-4.5033,-4.7681,-4.8604,-4.8389,0.0,-4.6757,-4.6696,0.0,-4.137,-3.9674,0.0,0.0,0.0,0.0,0.0,0.0,0.0,-3.2637,0.0,0.0,0.0,0.0,0.0,0.0,0.0,0.0,0.0,0.0,0.0,0.0,0.0,0.0,0.0,0.0,0.0,0.0,0.0,0.0,0.0,-3.9431,-3.949,-4.0197,-4.0597,-4.0597,-4.0597,-4.0597,-4.0597,-4.0536,-4.0505,-4.0505,-4.0505,-4.0505,-4.0505,-4.1247,-4.1925,-4.2509,-4.3347,-4.4024,-4.4517,-4.4671,-4.4702,-4.461,-4.461,-4.461,-4.4671,-4.5311,-4.5988,-4.6665,-4.7342,-4.8019,-4.8604,-3.543,-3.6014,-3.6507,-3.6507,0.0,0.0,0.0,0.0,-4.1709,-4.1617,-4.1678,-4.2633,0.0,0.0,0.0,0.0,0.0,-4.254,0.0,0.0,0.0,0.0,0.0,0.0,0.0,-3.6353,-3.5275,-3.4505,-3.3919,-3.3183,-3.2382,-3.2382,0.0,0.0,-3.4137,0.0,-3.6815,0.0,-4.0478,0.0,0.0,0.0,0.0,-4.7188,-4.7896,-4.7065,-4.8204,-4.8604,-4.8512,0.0,-4.7434,0.0,0.0,0.0,0.0,0.0,0.0,0.0,0.0,0.0,0.0,0.0,0.0,0.0,0.0,0.0,-3.0613,0.0,0.0,0.0,0.0,0.0,0.0,0.0,0.0,0.0,0.0,0.0,0.0,0.0,0.0,0.0,0.0,0.0,0.0,0.0,0.0,-3.8939,-3.9339,-4.0074,-4.0689,-4.1124,-4.072,-4.0505,-4.0505,-4.0505,-4.0689,-4.1155,-4.1863,-4.254,-4.3187,-4.387,-4.4332,-4.461,-4.461,-4.461,-4.461,-4.461,-4.461,-4.4641,-4.488,-4.5649,-4.6634,-4.6911,-4.7681,-4.8604,-3.5768,-3.6168,-3.6507,-3.6507,0.0,0.0,0.0,0.0,0.0,0.0,0.0,0.0,-4.7034,-4.5187,0.0,0.0,-4.7588,-4.5811,0.0,0.0,-4.1863,0.0,0.0,0.0,0.0,0.0,0.0,-3.4782,-3.4382,-3.3704,-3.2659,0.0,0.0,0.0,0.0,-3.6384,-3.8508,0.0,-4.2694,-4.3371,-4.4818,-4.4941,-4.451,-4.688,-4.8142,-4.8604,-4.8604,-4.8604,-4.8604,-4.8604,-4.7958,0.0,-4.7865,0.0,0.0,0.0,0.0,0.0,-3.8031,0.0,0.0,0.0,0.0,0.0,0.0,0.0,0.0,0.0,0.0,0.0,0.0,0.0,0.0,0.0,0.0,0.0,0.0,0.0,0.0,0.0,0.0,0.0,0.0,0.0,0.0,0.0,0.0,0.0,-3.82,-3.9305,-4.0385,-4.1278,-4.0751,-4.0505,-4.0505,-4.0689,-4.1093,-4.1617,-4.2479,-4.3217,-4.3901,-4.4579,-4.4849,-4.4849,-4.4849,-4.4756,-4.461,-4.461,-4.461,-4.4641,-4.4825,-4.5557,-4.6603,-4.6603,-4.7465,-4.8604,-3.6322,-3.6476,0.0,0.0,0.0,0.0,0.0,0.0,0.0,0.0,0.0,0.0,0.0,0.0,0.0,0.0,0.0,-4.9497,-4.9497,0.0,-4.2571,0.0,0.0,-3.9428,0.0,0.0,0.0,0.0,0.0,0.0,0.0,0.0,0.0,0.0,-3.4197,-3.6722,-4.0443,-4.1278,-4.3864,-4.7404,-4.7496,-4.7865,-4.8235,0.0,-4.6911,-4.8604,-4.8604,0.0,0.0,-4.8604,-4.8573,0.0,0.0,0.0,0.0,0.0,0.0,0.0,0.0,0.0,0.0,-3.8732,0.0,0.0,0.0,0.0,-3.3845,0.0,0.0,0.0,0.0,0.0,0.0,0.0,0.0,0.0,0.0,0.0,0.0,0.0,0.0,0.0,0.0,0.0,0.0,0.0,0.0,0.0,-3.7461,-3.82,-3.9152,-4.0474,-4.0505,-4.0505,-4.0505,-4.1217,-4.1586,-4.1617,-4.2946,-4.3932,-4.461,-4.5249,-4.5557,-4.5557,-4.5557,-4.5187,-4.461,-4.461,-4.461,-4.4671,-4.5311,-4.5988,-4.6603,-4.6603,-4.7465,-4.8604,-3.6353,0.0,0.0,0.0,0.0,0.0,0.0,-3.9859,0.0,0.0,0.0,0.0,0.0,-5.3221,-5.3806,0.0,0.0,-5.3283,-5.2421,-4.9189,0.0,0.0,0.0,-4.1801,0.0,0.0,0.0,0.0,0.0,0.0,0.0,0.0,0.0,0.0,0.0,-3.7831,0.0,0.0,0.0,0.0,0.0,-4.5618,-4.4849,0.0,0.0,-4.8604,-4.8604,-4.8604,0.0,-4.8604,-4.8604,-4.8543,-4.8081,-4.685,-4.5487,-4.5078,-4.3274,0.0,0.0,0.0,-4.1949,-4.1692,0.0,0.0,0.0,0.0,0.0,0.0,0.0,0.0,0.0,0.0,0.0,0.0,0.0,0.0,0.0,0.0,0.0,0.0,0.0,0.0,0.0,0.0,0.0,0.0,0.0,0.0,0.0,-3.7646,-3.9339,-4.1186,-4.0751,-4.072,-4.1247,-4.1494,-4.2263,-4.3587,-4.4055,-4.4856,-4.5895,-4.568,-4.5588,-4.5557,-4.5126,-4.4825,-4.4603,-4.5103,-4.5249,-4.5311,-4.5988,-4.6942,-4.7865,-4.7434,-4.8142,-4.9374,-3.6415,0.0,0.0,0.0,0.0,0.0,0.0,0.0,0.0,0.0,-4.7958,0.0,-5.6871,0.0,-5.7531,0.0,-5.8947,-5.6638,-5.4545,-5.2113,0.0,-4.9404,-4.6573,0.0,0.0,0.0,0.0,0.0,0.0,-3.5275,0.0,0.0,0.0,0.0,0.0,-3.7677,-4.1001,0.0,-4.4541,0.0,0.0,-4.4818,0.0,0.0,-4.7527,-4.7619,0.0,-4.8604,-4.8604,-4.8604,-4.8604,-4.8604,-4.8604,-4.7671,-4.6576,-4.663,-4.5196,-4.3822,-4.483,-4.4337,0.0,-4.3728,-4.2166,0.0,-3.9385,0.0,0.0,0.0,0.0,0.0,0.0,0.0,0.0,0.0,0.0,0.0,0.0,-2.8034,0.0,0.0,0.0,0.0,0.0,0.0,0.0,0.0,0.0,0.0,0.0,0.0,-3.8846,-4.1155,-4.1212,-4.137,-4.1586,-4.254,-4.3556,-4.461,-4.5064,-4.5741,-4.6573,-4.6142,-4.5803,-4.5557,-4.5126,-4.4979,-4.501,-4.5403,-4.5865,-4.6357,-4.7065,-4.8019,-4.8912,-4.8204,-4.885,-5.0143,-3.6476,0.0,0.0,0.0,-3.7061,0.0,0.0,0.0,-4.5341,0.0,-4.9558,-5.396,-5.681,-5.8319,-6.0363,-6.3595,-6.2056,0.0,-5.6115,-5.4052,0.0,0.0,-4.8912,-4.7773,-4.7619,0.0,0.0,0.0,0.0,0.0,0.0,0.0,0.0,0.0,-3.4844,0.0,-3.9551,-4.1617,-4.3648,-4.5557,-4.5649,-4.5618,-4.5557,-4.568,-4.568,-4.5865,-4.7896,-4.8604,-4.8604,-4.8563,-4.8563,-4.8604,-4.8563,-4.8469,-4.8221,-4.7578,-4.7782,-4.7924,-4.6325,-4.5465,-4.494,-4.468,0.0,0.0,0.0,0.0,-4.0846,0.0,0.0,0.0,0.0,0.0,0.0,0.0,0.0,0.0,0.0,0.0,0.0,0.0,0.0,0.0,0.0,0.0,0.0,0.0,0.0,0.0,0.0,0.0,-3.7738,-4.0413,-4.1894,-4.2355,-4.1801,-4.4326,-4.5311,-4.4764,-4.6018,-4.6634,-4.6634,-4.6603,-4.6234,-4.5588,-4.5588,-4.5618,-4.5649,-4.568,-4.648,-4.7711,-4.8389,-4.9127,-4.9682,-4.8974,-4.9589,-5.082,-3.6384,-3.6907,-3.7246,0.0,-3.74,-3.7892,0.0,0.0,0.0,0.0,-5.2975,-5.7131,-6.0855,-6.2487,-6.3687,-6.4549,-6.3195,0.0,0.0,0.0,0.0,-5.2329,-5.1682,-5.0205,-4.765,-4.4633,0.0,-4.0228,0.0,0.0,-3.6199,0.0,0.0,0.0,0.0,0.0,-3.8846,-3.9862,-4.2078,-4.501,-4.648,-4.6172,0.0,0.0,-4.6911,-4.5865,-4.7896,-4.8604,-4.8563,-4.8427,-4.848,-4.8563,-4.8396,-4.8438,-4.849,-4.8337,-4.7823,-4.7106,-4.6204,-4.5595,-4.512,-4.469,-4.3608,-4.262,0.0,0.0,0.0,0.0,0.0,0.0,0.0,0.0,0.0,0.0,0.0,0.0,0.0,0.0,0.0,0.0,0.0,0.0,0.0,0.0,0.0,0.0,0.0,0.0,0.0,0.0,0.0,-4.0413,-4.1894,-4.3248,-4.4541,-4.5249,-4.5988,-4.6819,-4.7188,-4.7342,-4.7342,-4.6819,-4.6234,-4.5588,-4.5588,-4.5865,-4.6388,-4.688,-4.7588,-4.8419,-4.9127,-5.0143,-5.1097,-5.042,-5.0697,-5.1467,-3.6815,0.0,0.0,-3.8323,0.0,0.0,-4.1955,0.0,0.0,-5.1067,-5.5622,0.0,-6.0855,-6.3349,-6.4764,-6.4457,-6.3441,0.0,-5.907,0.0,0.0,-5.3283,-5.2883,-5.1682,-4.9435,-4.6449,0.0,-4.1397,0.0,0.0,-3.6352,0.0,0.0,0.0,0.0,-3.6106,0.0,-3.9582,-4.1524,-4.3433,-4.5157,0.0,0.0,-4.6265,-4.688,-4.7065,-4.8204,-4.8521,-4.8469,-4.826,-4.826,-4.8343,-4.8218,-4.8175,-4.8175,-4.8175,-4.7817,-4.7308,-4.6598,-4.6252,-4.5906,-4.5364,-4.474,-4.4178,-4.3908,-4.3678,-4.3269,0.0,0.0,0.0,0.0,0.0,0.0,0.0,0.0,0.0,0.0,0.0,0.0,0.0,0.0,0.0,0.0,0.0,0.0,0.0,0.0,0.0,0.0,0.0,0.0,-3.9951,-4.1432,-4.2417,-4.294,-4.528,-4.6419,-4.6296,-4.7188,-4.7465,-4.7157,-4.6757,-4.6234,-4.5618,-4.6203,-4.685,-4.7496,-4.7896,-4.8635,-4.9558,-4.9959,-5.0759,-5.1621,-5.0944,-5.1313,-5.2144,0.0,0.0,0.0,0.0,0.0,0.0,0.0,-4.8327,0.0,-5.279,0.0,-6.0455,-5.9193,-6.2394,-6.4364,-6.3694,0.0,-6.1255,-5.8239,-5.7919,-5.6638,-5.4083,-5.3345,-5.2667,-5.199,-4.845,0.0,0.0,0.0,0.0,0.0,0.0,0.0,0.0,0.0,0.0,0.0,-4.0071,-4.1617,0.0,-4.3347,-4.4209,-4.4764,-4.4949,-4.6419,-4.844,-4.849,-4.8438,-4.8301,-4.8091,-4.8049,-4.8049,-4.8007,-4.7837,-4.7666,-4.7666,-4.7794,-4.777,-4.7133,-4.697,-4.6891,-4.6102,-4.5695,-4.5394,-4.5346,-4.5753,-4.5873,-4.4796,-4.4007,-4.3219,0.0,0.0,0.0,0.0,0.0,0.0,0.0,0.0,0.0,0.0,0.0,0.0,0.0,0.0,0.0,0.0,0.0,0.0,0.0,0.0,0.0,-3.9154,-4.0878,0.0,-4.0324,0.0,-4.6634,-4.5003,-4.6665,-4.7157,-4.6603,-4.6603,-4.6326,-4.5926,-4.7188,-4.8173,-4.8881,-4.8789,-4.9466,-5.0543,-5.0451,-5.0944,-5.1621,-5.0944,-5.159,-5.2821,0.0,0.0,0.0,0.0,0.0,-4.6573,-5.293,-5.373,-5.4022,-5.5037,-5.8947,-6.1317,-6.0547,-6.2086,-6.3133,-6.301,-6.1871,0.0,0.0,0.0,0.0,-5.5407,-5.473,-5.4006,-5.3375,-4.8912,-4.5834,0.0,0.0,0.0,0.0,0.0,0.0,0.0,0.0,0.0,-3.8828,-4.0128,0.0,-4.3377,-4.4733,-4.5311,-4.5526,-4.6634,-4.7252,-4.7578,-4.7962,-4.8301,-4.8521,-4.8343,-4.826,-4.8218,-4.8049,-4.7964,-4.7922,-4.7922,-4.7794,-4.7516,-4.6822,-4.6936,-4.7001,-4.5906,-4.589,-4.6035,-4.5672,-4.5488,-4.5574,-4.5903,-4.5424,-4.4556,-4.3309,0.0,0.0,0.0,0.0,0.0,0.0,0.0,0.0,0.0,0.0,0.0,0.0,0.0,0.0,0.0,0.0,0.0,0.0,0.0,0.0,0.0,-4.0847,0.0,0.0,0.0,-4.688,-4.7065,-4.688,-4.6696,-4.6603,-4.6603,-4.685,-4.7281,-4.8081,-4.9158,-5.0297,-4.9743,-4.9651,-4.9805,-4.922,-5.0112,-5.1621,-5.0944,-5.1898,-5.3468,0.0,0.0,0.0,0.0,0.0,0.0,0.0,-5.6638,0.0,-5.7777,-5.9224,-6.0116,-5.9778,-6.1594,-6.2671,-6.2333,-6.1379,-6.0363,-5.9347,-5.8042,-5.6638,-5.5253,-5.4545,0.0,-5.2698,-4.9743,-4.6819,-4.4086,0.0,0.0,0.0,0.0,0.0,0.0,0.0,-3.8086,0.0,0.0,0.0,-4.3187,-4.4541,-4.528,-4.5649,-4.6296,-4.6923,-4.7487,-4.7701,-4.8079,-4.8385,-4.7922,-4.7794,-4.7752,-4.7666,-4.7654,-4.7654,-4.7654,-4.7624,-4.7521,-4.7232,-4.7297,-4.7302,-4.6768,-4.6761,-4.6651,-4.6089,-4.6167,-4.6352,-4.6322,-4.6322,-4.5843,-4.4167,-4.2089,0.0,0.0,0.0,0.0,0.0,0.0,0.0,0.0,0.0,0.0,0.0,0.0,0.0,0.0,0.0,0.0,0.0,0.0,0.0,0.0,0.0,0.0,0.0,0.0,0.0,-4.451,-4.6296,-4.6942,-4.6634,-4.7711,-4.8173,-4.8204,-4.962,-5.0389,-5.0636,-4.9959,-4.9466,-4.9127,-4.9158,-4.9989,-5.1221,-5.159,-5.2575,-5.3683,0.0,-4.1304,0.0,0.0,-4.845,0.0,-5.5345,-5.7993,-5.9716,-6.0178,-5.9501,-5.9008,-5.9008,-6.0763,-6.1748,-6.1225,-6.0547,-5.9624,-5.8423,-5.71,-5.5869,-5.4745,-5.3914,-5.3067,-5.2144,-5.0513,-4.7896,0.0,0.0,0.0,0.0,0.0,0.0,0.0,0.0,0.0,0.0,0.0,-4.3648,-4.3556,-4.4756,-4.5372,-4.5618,-4.5895,-4.6564,-4.7353,-4.763,-4.7875,-4.7951,-4.7508,-4.7352,-4.7352,-4.7352,-4.7352,-4.7309,-4.7309,-4.7439,-4.7568,-4.7568,-4.7568,-4.7568,-4.7568,-4.7439,-4.716,-4.6651,-4.692,-4.716,-4.6651,-4.695,-4.683,-4.5244,-4.4167,0.0,0.0,0.0,0.0,0.0,0.0,0.0,0.0,0.0,0.0,0.0,0.0,0.0,0.0,0.0,0.0,0.0,0.0,0.0,0.0,0.0,-4.0105,-4.017,0.0,-4.5126,0.0,-4.6296,-4.7619,-4.7311,-4.8789,-4.9312,-4.9158,-5.079,-5.119,-5.0636,-4.9959,-4.9343,-4.8881,-4.9466,-5.0266,-5.1251,-5.2329,-5.3314,-5.4145,0.0,0.0,0.0,0.0,0.0,0.0,-5.6286,-5.798,-5.9532,-6.1379,-6.0486,-5.9686,-5.9686,-5.9378,-5.9131,-5.907,-5.8504,-5.7795,-5.7056,-5.5684,-5.4806,-5.4683,-5.3498,-5.3037,-5.3529,-5.1005,-4.8573,0.0,0.0,0.0,0.0,0.0,0.0,0.0,0.0,0.0,0.0,-4.4281,-4.5157,-4.6296,-4.7034,-4.6634,-4.5711,-4.6942,-4.7006,-4.6569,-4.7793,-4.7749,-4.7164,-4.7485,-4.7581,-4.7581,-4.7581,-4.7482,-4.7309,-4.7309,-4.7309,-4.7352,-4.7352,-4.7352,-4.7352,-4.7352,-4.7309,-4.7279,-4.7219,-4.7249,-4.7279,-4.7219,-4.7279,-4.7249,-4.707,-4.5638,-4.4018,0.0,0.0,0.0,0.0,0.0,0.0,0.0,0.0,0.0,0.0,0.0,0.0,0.0,0.0,0.0,0.0,0.0,0.0,-3.6722,0.0,-3.9862,-4.2294,-4.3956,0.0,-4.7958,-4.8327,-4.882,-4.9374,-4.8912,-4.9374,-5.0513,-5.0697,-5.0759,-5.0636,-4.9959,-4.9651,-4.9589,-4.9651,-5.0851,-5.2544,-5.2667,-5.3899,-5.5499,0.0,0.0,0.0,0.0,0.0,0.0,0.0,-5.7888,-5.8608,-5.9839,-5.9532,-5.9193,-5.9193,-5.8947,-5.8793,-5.8793,-5.7857,-5.7272,-5.7395,-5.6084,-5.513,-5.4714,-5.416,-5.3468,-5.2544,-5.1036,-4.9066,0.0,0.0,0.0,0.0,0.0,0.0,0.0,0.0,-4.4151,-4.5716,-4.6625,-4.7065,-4.7188,-4.7065,-4.6665,-4.6265,-4.6788,-4.7056,-4.7119,-4.7548,-4.7413,-4.7042,-4.7455,-4.7581,-4.7581,-4.7482,-4.7352,-4.7309,-4.7309,-4.7309,-4.7309,-4.7309,-4.7309,-4.7309,-4.7309,-4.7309,-4.7309,-4.7309,-4.7309,-4.7309,-4.7309,-4.7309,-4.7309,-4.7309,-4.6693,-4.5627,0.0,0.0,0.0,0.0,0.0,0.0,0.0,0.0,0.0,0.0,0.0,0.0,0.0,0.0,0.0,0.0,0.0,0.0,-3.9493,0.0,-4.2078,-4.4387,-4.5311,-4.6142,-4.6819,-4.8881,-4.9805,-4.9712,-5.0236,-5.0543,-5.0667,-5.0266,-5.0082,-5.0082,-4.9805,-4.9928,-5.0359,-5.119,-5.2236,-5.3406,-5.4206,-5.5007,-5.5745,-4.9312,0.0,-5.0913,0.0,-5.4299,-5.5191,-5.6915,-5.75,-5.7857,-5.7869,-5.7869,-5.8023,-5.8423,-5.835,-5.8177,-5.8177,-5.7179,-5.6577,-5.6854,-5.5776,-5.4822,-5.4129,-5.4099,0.0,-5.2021,-5.1128,-4.9743,-4.7804,-4.498,0.0,0.0,0.0,0.0,0.0,-4.5585,-4.6739,-4.725,-4.845,-4.8419,-4.7588,-4.7527,-4.725,-4.6911,-4.7046,-4.7292,-4.7497,-4.7293,-4.7006,-4.675,-4.6984,-4.7051,-4.7069,-4.7276,-4.7309,-4.7309,-4.7309,-4.7309,-4.7309,-4.7309,-4.7309,-4.7309,-4.7309,-4.7309,-4.7309,-4.7309,-4.7309,-4.7309,-4.7309,-4.7309,-4.7309,-4.7309,-4.716,-4.6352,-4.4377,0.0,0.0,0.0,0.0,0.0,0.0,0.0,-3.896,-3.7264,0.0,0.0,0.0,0.0,0.0,0.0,0.0,0.0,0.0,0.0,0.0,0.0,-4.5957,-4.6665,-4.7404,-4.9835,-5.0759,-5.0297,-5.0851,-5.0851,-5.0359,-4.9682,-4.9712,-5.0266,-5.0082,-5.0605,-5.1682,-5.2637,-5.3529,-5.4422,-5.5345,-5.5838,-5.6053,-5.3945,-5.4068,-5.4299,-5.6409,-5.6779,-5.6532,-5.5807,-5.6884,-5.7285,-5.5899,-5.5745,-5.6269,-5.7672,-5.7241,-5.684,-5.684,-5.6115,-5.5438,-5.4775,-5.4068,-5.3437,0.0,0.0,-5.2729,-5.2698,-5.1374,-5.0667,-5.0636,0.0,0.0,-4.4548,0.0,-4.3987,-4.6542,-4.6573,-4.7342,-4.8635,-4.9374,-4.8881,-4.7711,-4.9097,-4.882,-4.764,-4.8079,-4.7843,-4.7293,-4.7087,-4.6579,-4.5991,-4.5818,-4.5736,-4.5906,-4.6976,-4.7309,-4.7309,-4.7309,-4.7309,-4.7309,-4.7309,-4.7309,-4.7309,-4.7309,-4.7309,-4.7309,-4.7309,-4.7309,-4.7309,-4.7309,-4.7309,-4.7309,-4.7309,-4.677,-4.5693,-4.3718,0.0,0.0,0.0,0.0,0.0,0.0,-3.9531,-4.0226,-3.9375,0.0,0.0,0.0,0.0,0.0,0.0,0.0,0.0,-3.8477,-3.7892,0.0,-4.4579,-4.5249,-4.7619,-5.1621,-5.1682,-5.1682,-5.1621,-5.0328,-4.9712,-4.9651,-4.8943,-4.9774,-5.1621,-5.0944,-5.1867,-5.3683,-5.3668,-5.4514,-5.5684,-5.5684,-5.6146,-5.6686,-5.3652,-5.4191,-5.476,-5.5838,-5.6023,-5.6115,-5.644,-5.6392,-5.6207,-5.5745,-5.5684,-5.5684,-5.5715,-5.5899,-5.6023,0.0,-5.5438,-5.4945,0.0,-5.4037,-5.3622,-5.3406,-5.3406,-5.2975,-5.2052,-5.159,-5.0944,-5.002,0.0,0.0,0.0,-4.6265,-4.7404,-4.8727,-4.9189,-5.0143,-5.1405,-5.1159,-5.079,-5.0359,-4.9696,-4.9163,-4.8722,-4.8267,-4.7969,-4.7714,-4.7492,-4.6996,-4.6381,-4.616,-4.5818,-4.5518,-4.5855,-4.6262,-4.6741,-4.7189,-4.7309,-4.7309,-4.7309,-4.7309,-4.7309,-4.7309,-4.7309,-4.7309,-4.7309,-4.7309,-4.7189,-4.6741,-4.698,-4.716,-4.6711,-4.683,-4.6202,-4.3748,-4.3968,0.0,0.0,0.0,0.0,0.0,-4.0552,-4.1091,0.0,-4.0008,0.0,0.0,0.0,0.0,0.0,0.0,0.0,0.0,-4.334,0.0,-4.7311,-4.7558,-4.8543,-5.0328,-5.079,-5.1005,-5.1005,-5.0574,-5.0389,-5.0389,-5.0636,-5.1097,-5.1744,-5.2452,-5.3406,-5.4406,-5.4884,-5.5622,-5.6471,-5.6471,-5.6317,-5.5992,-5.3853,-5.4406,-5.4898,-5.5592,-5.5499,-5.5561,-5.6317,-5.5776,-5.5315,-5.5315,-5.5099,-5.4884,-5.4714,-5.4853,0.0,-5.5315,-5.473,-5.4314,-5.4314,-5.3714,-5.3345,-5.3345,-5.3345,-5.2944,-5.2113,0.0,0.0,-5.0451,-4.9312,-4.8573,-4.8296,-4.9312,-5.0143,-5.0851,-5.1251,-5.1775,-5.2298,-5.1898,-5.1515,-5.1089,-5.0187,-4.9598,-4.9151,-4.8596,-4.8134,-4.7764,-4.731,-4.6864,-4.6431,-4.6065,-4.5663,-4.5334,-4.5603,-4.5963,-4.6369,-4.68,-4.677,-4.6591,-4.686,-4.692,-4.686,-4.6621,-4.6741,-4.686,-4.6621,-4.6561,-4.6501,-4.6309,-4.6651,-4.689,-4.6741,-4.704,-4.6681,-4.4725,-4.5155,-4.4855,-4.2462,0.0,0.0,0.0,0.0,0.0,0.0,-4.1876,0.0,0.0,0.0,0.0,0.0,0.0,0.0,-4.4028,-4.5241,0.0,-4.8837,-4.8716,-4.922,-5.0451,-5.0605,-5.0697,-5.0697,-5.0697,-5.082,-5.1097,-5.1528,-5.2144,-5.2914,-5.3745,-5.4637,-5.553,-5.593,-5.6361,-5.681,-5.681,-5.6347,-5.5653,-5.456,-5.4621,0.0,0.0,-5.513,0.0,-5.553,-5.513,-5.4652,-5.4621,-5.4099,-5.3945,-5.4468,-5.4068,-5.3976,-5.4498,0.0,0.0,0.0,-5.3067,-5.2729,-5.279,-5.2729,-5.2729,-5.279,-5.2021,-5.1621,-5.1559,-5.0974,-5.1344,-5.2575,-5.1929,-5.1959,-5.2575,-5.2513,-5.2206,-5.1713,-5.1713,-5.1212,-5.0485,-5.0629,-5.0087,-4.9105,-4.8997,-4.8399,-4.7538,-4.6723,-4.6471,-4.6352,-4.5663,-4.5454,-4.5574,-4.6082,-4.6249,-4.6279,-4.6381,-4.5933,-4.5574,-4.613,-4.6279,-4.613,-4.5454,-4.5783,-4.6082,-4.5454,-4.5304,-4.5454,-4.6052,-4.619,-4.6441,-4.707,-4.7219,-4.704,-4.6369,-4.6279,-4.5592,-4.3648,0.0,0.0,0.0,0.0,0.0,0.0,-4.3676,-4.3929,0.0,0.0,0.0,0.0,0.0,-4.3229,-4.3556,-4.455,-4.6453,-4.9371,-4.8971,-4.9712,-5.1559,-5.0974,-5.0728,-5.0759,-5.082,-5.119,-5.1836,-5.1929,-5.3037,-5.4745,-5.4806,-5.5622,-5.681,-5.681,-5.681,-5.681,-5.6748,-5.6238,-5.553,0.0,0.0,-5.356,-5.476,-5.4822,-5.4745,-5.4898,-5.4775,-5.4498,-5.3976,-5.4222,-5.4099,-5.3283,-5.3914,-5.4145,-5.3283,-5.3529,-5.3498,-5.2975,-5.279,-5.2944,-5.3468,-5.2975,-5.2944,-5.3468,-5.1805,-5.0697,-5.0174,-5.0513,-5.0851,-5.1159,-5.1005,-5.1005,-5.1159,-5.0636,-5.0882,-5.1713,-5.1713,-5.1765,-5.1787,-5.1164,-5.0636,-5.008,-4.8922,-4.8309,-4.8115,-4.7921,-4.7818,-4.7728,-4.704,-4.716,-4.7339,-4.5963,-4.5903,-4.6369,-4.692,-4.695,-4.677,-4.6411,-4.6279,-4.613,-4.5454,-4.5424,-4.5514,-4.5334,-4.5304,-4.5185,-4.4855,-4.5185,-4.5574,-4.5753,-4.6202,-4.6459,-4.6309,-4.6279,-4.5771,-4.4246,-4.4007,0.0,0.0,-4.3178,-4.4046,-4.5092,-4.5544,-4.5131,0.0,0.0,0.0,0.0,-4.5598,-4.7589,-4.7313,-4.9055,-5.01,-5.0365,-5.0254,-5.0174,-5.0174,-5.0513,-5.0974,-5.1467,-5.199,-5.2606,-5.3283,-5.4299,-5.5007,-5.5499,-5.6053,-5.6532,-5.681,-5.681,-5.681,-5.6748,-5.6146,-5.553,-5.4806,-5.4099,-5.3437,-5.3037,-5.4037,-5.3976,-5.3899,-5.4191,-5.4222,-5.4191,-5.4129,-5.4468,-5.4529,-5.4114,-5.4176,-5.4037,-5.3683,-5.3406,-5.3098,-5.2729,-5.2698,-5.2883,-5.3252,-5.3221,-5.3191,-5.3252,-5.2483,-5.159,-5.0605,-5.0359,-5.0389,-5.0697,-5.0697,-5.0697,-5.0667,-5.0328,-5.0543,-5.1251,-5.1251,-5.1304,-5.1389,-5.1359,-5.0832,-5.0095,-4.9703,-4.9238,-4.8745,-4.8745,-4.8745,-4.8686,-4.8327,-4.8446,-4.8536,-4.7459,-4.7369,-4.7728,-4.8087,-4.7339,-4.6441,-4.6711,-4.6322,-4.5753,-4.5394,-4.5304,-4.5304,-4.5304,-4.5304,-4.5274,-4.5244,-4.5274,-4.5394,-4.5693,-4.5813,-4.5963,-4.6219,-4.5502,-4.4755,-4.4377,-4.4018,0.0,-4.3319,-4.4248,-4.521,-4.6026,-4.6596,-4.6498,-4.5483,0.0,0.0,-4.4874,-4.7363,-4.8546,-4.7884,-5.0235,-5.1475,-5.1414,-5.1269,-5.0974,-5.0605,-5.1282,-5.2144,-5.3098,-5.3468,-5.3991,-5.4668,-5.5376,-5.5869,-5.6207,-5.6656,-5.681,-5.6761,-5.6664,-5.6432,-5.6125,-5.5582,-5.4769,-5.3835,-5.3699,-5.3252,-5.2914,-5.3545,-5.3252,-5.3067,-5.3622,-5.3806,-5.4083,-5.4621,-5.4775,-5.5007,-5.5345,-5.4483,-5.3976,-5.4345,-5.3375,-5.2698,-5.2698,-5.2698,-5.276,-5.2852,-5.3406,-5.3437,-5.2883,-5.3129,-5.2606,-5.1251,-5.0205,-4.9989,-5.0543,-5.0543,-5.0543,-5.0543,-5.042,-5.0451,-5.0543,-5.0543,-5.0445,-5.0393,-5.1181,-5.0812,-4.9913,-5.0577,-5.0321,-4.9539,-4.9494,-4.9494,-4.9494,-4.9449,-4.9464,-4.9569,-4.9359,-4.9389,-4.9404,-4.9404,-4.7728,-4.6112,-4.716,-4.6561,-4.5603,-4.5603,-4.5514,-4.5454,-4.5454,-4.5364,-4.5454,-4.6052,-4.5633,-4.5364,-4.6052,-4.5603,-4.5304,-4.5741,-4.4396,-4.3409,-4.3808,0.0,-4.4077,-4.3379,-4.5053,-4.6322,-4.6364,-4.7044,-4.749,-4.7624,-4.7371,-4.7576,0.0,-4.8596,-4.8213,-4.7255,-5.0018,-5.177,-5.2352,-5.2147,-5.2021,-5.2021,-5.2698,-5.3622,-5.4683,-5.4775,-5.5161,-5.5684,-5.5807,-5.6207,-5.6761,-5.6761,-5.6713,-5.6664,-5.6421,-5.5926,-5.5315,-5.4952,-5.4036,-5.2973,-5.4406,-5.356,-5.2914,-5.3545,-5.3622,-5.3591,-5.3668,-5.416,-5.456,-5.4683,-5.5191,-5.5161,-5.4145,-5.4314,-5.4099,-5.3129,-5.2821,-5.2698,-5.2698,-5.2698,-5.2975,-5.3529,-5.3607,-5.3683,-5.356,-5.199,-5.0482,-4.9097,-4.9497,-4.9743,-4.9835,-4.9835,-4.9835,-4.9805,-4.922,-4.9281,-4.9835,-4.9835,-5.0015,-5.0289,-5.0455,-5.0615,-5.0743,-5.0332,-5.0409,-5.0713,-5.0502,-5.0411,-5.0336,-5.0138,-5.0451,-5.072,-4.9659,-4.9643,-5.0046,-5.0046,-4.9404,-4.861,-4.8237,-4.7578,-4.701,-4.701,-4.6561,-4.613,-4.613,-4.5723,-4.5334,-4.5424,-4.4915,-4.4676,-4.5334,-4.4915,-4.4317,-4.3828,-4.3499,-4.2931,-4.1983,0.0,-4.4077,-4.3449,-4.5125,-4.6364,-4.6533,-4.6707,-4.7063,-4.7776,-4.8304,-4.8109,-4.7033,-4.9068,-4.9672,-4.839,-5.1039,-5.2516,-5.2653,-5.3114,-5.3406,-5.3406,-5.4037,-5.4468,-5.4714,-5.5284,-5.5592,-5.5715,-5.6378,-5.6572,-5.647,-5.647,-5.6323,-5.6127,-5.6077,-5.5652,-5.5013,-5.4387,-5.3641,-5.2913,-5.416,-5.3683,-5.3252,-5.3191,-5.3468,-5.3714,-5.3714,-5.4607,-5.513,-5.4745,-5.5284,-5.5468,-5.4853,-5.4422,-5.4037,-5.3837,-5.3129,-5.2698,-5.2698,-5.2698,-5.2852,-5.316,-5.3529,-5.3714,-5.3714,-5.1744,-5.0389,-4.9743,-4.9312,-4.9097,-4.9097,-4.9097,-4.9097,-4.9097,-4.8758,-4.8789,-4.9097,-4.9097,-4.9455,-5.0045,-5.034,-5.0761,-5.1149,-5.121,-5.1333,-5.1547,-5.1379,-5.1288,-5.112,-5.0982,-5.1053,-5.1109,-5.0511,-5.0511,-5.0734,-5.0734,-5.0301,-4.9583,-4.8566,-4.8327,-4.8267,-4.7908,-4.7878,-4.7908,-4.7908,-4.7399,-4.692,-4.692,-4.6112,-4.5484,-4.5783,-4.5005,-4.4227,-4.3858,-4.297,0.0,0.0,-4.3299,-4.4347,-4.4407,-4.6471,-4.8101,-4.8519,-4.8549,-4.8863,-4.9614,-4.9945,-4.9809,-4.9119,-5.0366,-5.0894,-5.0426,-5.2093,-5.2994,-5.3024,-5.3837,-5.4175,-5.4005,-5.4821,-5.5343,-5.5647,-5.5954,-5.598,-5.5883,-5.6219,-5.6323,-5.6176,-5.6176,-5.5914,-5.5432,-5.5285,-5.4601,-5.3693,-5.361,-5.317,-5.255,-5.3622,-5.3498,-5.3314,-5.279,-5.3283,-5.3775,-5.3883,-5.4945,-5.5592,-5.5253,-5.5622,-5.5869,-5.5715,-5.4791,-5.433,-5.4652,-5.3652,-5.2944,-5.2944,-5.279,-5.2698,-5.2698,-5.3221,-5.3498,-5.3498,-5.1805,-5.0851,-5.0697,-4.962,-4.9004,-4.8881,-4.9035,-4.8912,-4.8635,-4.8789,-4.8758,-4.8635,-4.8789,-4.9189,-4.9743,-5.042,-5.098,-5.1448,-5.1968,-5.2139,-5.2185,-5.2063,-5.1926,-5.1695,-5.1618,-5.1386,-5.1229,-5.1229,-5.1319,-5.1439,-5.1439,-5.1079,-5.0451,-4.9284,-4.9344,-4.9553,-4.8895,-4.9105,-4.9464,-4.9329,-4.891,-4.8506,-4.8506,-4.7578,-4.677,-4.677,-4.5813,-4.4915,-4.4586,0.0,0.0,0.0,-4.4137,-4.5155,-4.6112,-4.8071,-4.9523,-5.0136,-5.0196,-5.0465,-5.1169,-5.1349,-5.1439,-5.1439,-5.1777,-5.2162,-5.2577,-5.3038,-5.3468,-5.3851,-5.4512,-5.4849,-5.4877,-5.5541,-5.6046,-5.6421,-5.6323,-5.6176,-5.5979,-5.5979,-5.5979,-5.5929,-5.5929,-5.5486,-5.4782,-5.4586,-5.3766,-5.2773,-5.3091,-5.2845,-5.2486,-5.2914,-5.279,-5.276,-5.2729,-5.3283,-5.3883,-5.4529,-5.5253,-5.593,-5.6594,-5.6717,-5.6471,-5.5745,-5.5592,-5.5315,-5.4745,-5.4006,-5.3652,-5.3652,-5.3067,-5.2698,-5.2698,-5.276,-5.279,-5.279,-5.2021,-5.1313,-5.0697,-5.0605,-5.0236,-4.962,-5.0236,-4.9866,-4.8635,-4.9312,-4.9251,-4.8666,-4.9312,-4.962,-4.9743,-5.042,-5.1097,-5.1669,-5.17,-5.213,-5.2608,-5.2352,-5.2155,-5.1956,-5.1695,-5.1386,-5.1229,-5.1229,-5.1648,-5.2127,-5.2127,-5.2097,-5.1917,-5.1199,-5.102,-5.093,-5.0226,-5.0076,-5.0002,-4.9449,-4.9269,-4.9239,-4.9239,-4.8626,-4.8147,-4.8147,-4.7549,-4.6681,-4.5424,0.0,0.0,-4.5933,-4.607,-4.686,-4.879,-4.9179,-4.9523,-5.0136,-5.0196,-5.0465,-5.1169,-5.1798,-5.2127,-5.2127,-5.2744,-5.347,-5.4345,-5.3705,-5.402,-5.5483,-5.5354,-5.5722,-5.6607,-5.6427,-5.636,-5.6372,-5.6127,-5.6028,-5.5979,-5.5979,-5.588,-5.5631,-5.5631,-5.509,-5.4271,-5.4271,-5.3822,-5.3163,-5.3223,-5.3144,-5.3114,-5.4083,-5.3622,-5.3221,-5.279,-5.3283,-5.3806,-5.4006,-5.4668,-5.5191,-5.5468,-5.5499,-5.5561,-5.5684,-5.5345,-5.5007,-5.4714,-5.4068,-5.3529,-5.3129,-5.2852,-5.2698,-5.2698,-5.2698,-5.2698,-5.2698,-5.2052,-5.1775,-5.1959,-5.1528,-5.119,-5.0944,-5.119,-5.082,-4.9928,-5.0205,-5.0389,-5.0543,-5.082,-5.119,-5.159,-5.1836,-5.2082,-5.2329,-5.2329,-5.2483,-5.2653,-5.2397,-5.22,-5.2017,-5.2178,-5.2017,-5.1887,-5.2306,-5.2606,-5.2815,-5.2815,-5.2815,-5.2665,-5.2007,-5.1528,-5.105,-5.0345,-5.0495,-5.0614,-5.0032,-4.9883,-4.9883,-4.9883,-4.9344,-4.894,-4.894,-4.8356,-4.7608,-4.6681,0.0,-4.6621,-4.689,-4.7638,-4.8566,-4.9733,-5.0601,-5.102,-5.0823,-5.1588,-5.2007,-5.1828,-5.2426,-5.2815,-5.2815,-5.359,-5.4217,-5.4586,-5.4837,-5.5262,-5.5847,-5.578,-5.5902,-5.6323,-5.6225,-5.6077,-5.5929,-5.5357,-5.5028,-5.4849,-5.4428,-5.4198,-5.41,-5.41,-5.3661,-5.2995,-5.3414,-5.3174,-5.2665,-5.3503,-5.3832,-5.3892,-5.4806,-5.4129,-5.356,-5.3098,-5.3361,-5.3714,-5.3714,-5.4483,-5.5037,-5.5037,-5.5222,-5.553,-5.5992,-5.5438,-5.5037,-5.5037,-5.4237,-5.3529,-5.3067,-5.2821,-5.2698,-5.2698,-5.2698,-5.2698,-5.2698,-5.2267,-5.2236,-5.2698,-5.2452,-5.2236,-5.2021,-5.2236,-5.199,-5.1313,-5.1313,-5.159,-5.2021,-5.2236,-5.2606,-5.3037,-5.3037,-5.3037,-5.3037,-5.3037,-5.3037,-5.3022,-5.2948,-5.281,-5.2654,-5.2873,-5.2738,-5.2576,-5.3025,-5.3324,-5.3503,-5.3503,-5.3503,-5.3354,-5.2695,-5.2187,-5.1618,-5.0704,-5.0853,-5.1109,-5.0614,-5.0495,-5.0495,-5.0495,-5.0182,-4.9883,-4.9883,-4.9523,-4.9045,-4.8596,-4.8716,-4.8835,-4.8835,-4.9793,-5.0661,-5.1109,-5.1947,-5.2336,-5.1887,-5.2665,-5.2995,-5.2546,-5.3144,-5.3593,-5.3803,-5.4449,-5.4819,-5.4918,-5.5439,-5.583,-5.5979,-5.5766,-5.5815,-5.6127,-5.5717,-5.5478,-5.5249,-5.4699,-5.425,-5.3862,-5.3384,-5.3174,-5.3204,-5.3414,-5.3114,-5.2576,-5.3234,-5.3234,-5.2935,-5.3862,-5.4341,-5.461,-5.4806,-5.4176,-5.3714,-5.3714,-5.3714,-5.3714,-5.3714,-5.4822,-5.5684,-5.5684,-5.6347,-5.681,-5.681,-5.6115,-5.5684,-5.5684,-5.4483,-5.3714,-5.3714,-5.3098,-5.2698,-5.2698,-5.2698,-5.2698,-5.2698,-5.2698,-5.2698,-5.2729,-5.3375,-5.3375,-5.2729,-5.3406,-5.3375,-5.2729,-5.2729,-5.2729,-5.279,-5.3437,-5.3745,-5.3745,-5.3745,-5.3745,-5.3745,-5.3745,-5.3745,-5.376,-5.4173,-5.4182,-5.3958,-5.3718,-5.3398,-5.3204,-5.3204,-5.3653,-5.4221,-5.4221,-5.4221,-5.4072,-5.3384,-5.3204,-5.2875,-5.1558,-5.1229,-5.1229,-5.1229,-5.1229,-5.1229,-5.1229,-5.1229,-5.1229,-5.1229,-5.1229,-5.1229,-5.1229,-5.1768,-5.2217,-5.2217,-5.2755,-5.3174,-5.3174,-5.3174,-5.3204,-5.3174,-5.3204,-5.3204,-5.3204,-5.3832,-5.4491,-5.5149,-5.5179,-5.533,-5.5581,-5.533,-5.5481,-5.5979,-5.5311,-5.5457,-5.6372,-5.5164,-5.4586,-5.4586,-5.4291,-5.3832,-5.3174,-5.3174,-5.3174,-5.3234,-5.3892,-5.3773,-5.3234,-5.3922,-5.4221,-5.4221,-5.4221,-5.464,-5.5299,-5.4621,-5.376,-5.3006,-5.3006,-5.3006,-5.3006,-5.3006,-5.3745,-5.4483,-5.4945,-5.5191,-5.5499,-5.5961,-5.5407,-5.4822,-5.436,-5.396,-5.3529,-5.3037,-5.2821,-5.2698,-5.2698,-5.2698,-5.2698,-5.2698,-5.2698,-5.2944,-5.3406,-5.3622,-5.3622,-5.3437,-5.3622,-5.3622,-5.3406,-5.3406,-5.3929,-5.4822,-5.5007,-5.5099,-5.5099,-5.5099,-5.4822,-5.4375,-5.4375,-5.4282,-5.4142,-5.4074,-5.3927,-5.3778,-5.3939,-5.3972,-5.3982,-5.4461,-5.473,-5.491,-5.491,-5.491,-5.476,-5.4072,-5.3892,-5.3593,-5.2247,-5.2247,-5.2366,-5.1439,-5.1558,-5.1768,-5.1319,-5.1588,-5.1917,-5.1917,-5.2276,-5.2606,-5.2606,-5.2755,-5.2875,-5.2875,-5.3054,-5.3174,-5.3174,-5.3623,-5.3713,-5.3234,-5.4042,-5.4401,-5.3952,-5.4521,-5.497,-5.5179,-5.5179,-5.5229,-5.533,-5.5431,-5.532,-5.5035,-5.5109,-5.54,-5.583,-5.4819,-5.4321,-5.4261,-5.3283,-5.2935,-5.3144,-5.2217,-5.2067,-5.2486,-5.2217,-5.2247,-5.2546,-5.3234,-5.4072,-5.491,-5.491,-5.5598,-5.6436,-5.5468,-5.4453,-5.3498,-5.3498,-5.3283,-5.3129,-5.3129,-5.3899,-5.4637,-5.5068,-5.5345,-5.5684,-5.6084,-5.5284,-5.4529,-5.4099,-5.3822,-5.3652,-5.3529,-5.3252,-5.3129,-5.3129,-5.2852,-5.2698,-5.2698,-5.2698,-5.2914,-5.3314,-5.3591,-5.3714,-5.3714,-5.3714,-5.3991,-5.4483,-5.4237,-5.4853,-5.6115,-5.6115,-5.6115,-5.6084,-5.5807,-5.5468,-5.513,-5.513,-5.5005,-5.4894,-5.4914,-5.4764,-5.4533,-5.4709,-5.468,-5.467,-5.5059,-5.5179,-5.5179,-5.5179,-5.5179,-5.5089,-5.47,-5.461,-5.4401,-5.3593,-5.3264,-5.2965,-5.2187,-5.2306,-5.2486,-5.2067,-5.2306,-5.2606,-5.2606,-5.2905,-5.3174,-5.3174,-5.3414,-5.3593,-5.3593,-5.3803,-5.3982,-5.3982,-5.4341,-5.4431,-5.4012,-5.47,-5.5029,-5.464,-5.497,-5.5179,-5.5179,-5.5179,-5.5229,-5.533,-5.5431,-5.518,-5.4616,-5.5,-5.509,-5.4797,-5.389,-5.3563,-5.3773,-5.2965,-5.2815,-5.3144,-5.2336,-5.2217,-5.2576,-5.2456,-5.2636,-5.3084,-5.4012,-5.485,-5.5598,-5.5837,-5.6436,-5.7034,-5.6625,-5.5468,-5.4498,-5.4498,-5.4083,-5.3714,-5.3714,-5.4853,-5.5684,-5.5684,-5.6269,-5.6686,-5.6625,-5.5407,-5.4591,-5.4591,-5.4099,-5.4037,-5.4652,-5.4099,-5.3806,-5.3806,-5.3221,-5.2883,-5.2883,-5.276,-5.2698,-5.2698,-5.3345,-5.3622,-5.3622,-5.3637,-5.4391,-5.5592,-5.5068,-5.553,-5.681,-5.681,-5.681,-5.6748,-5.6053,-5.5776,-5.5776,-5.5776,-5.5776,-5.5821,-5.6225,-5.6225,-5.5979,-5.5681,-5.5431,-5.5179,-5.5179,-5.5179,-5.5179,-5.5179,-5.5179,-5.5179,-5.5179,-5.5179,-5.5179,-5.5179,-5.4281,-5.3354,-5.3294,-5.3264,-5.3264,-5.3204,-5.3234,-5.3264,-5.3264,-5.3324,-5.3354,-5.3354,-5.3892,-5.4311,-5.4311,-5.482,-5.5179,-5.5179,-5.5179,-5.5179,-5.5179,-5.5179,-5.5179,-5.5179,-5.5179,-5.5179,-5.5179,-5.5179,-5.528,-5.5581,-5.533,-5.498,-5.4567,-5.494,-5.459,-5.3634,-5.2762,-5.2695,-5.3264,-5.3204,-5.3204,-5.3264,-5.3204,-5.3204,-5.3324,-5.3892,-5.4162,-5.4341,-5.5538,-5.6158,-5.6368,-5.6825,-5.7124,-5.7363,-5.5068,-5.4083,-5.316,-5.316,-5.3468,-5.3714,-5.3714,-5.4853,-5.5684,-5.5684,-5.5838,-5.5745,-5.5222,-5.4375,-5.3929,-5.3929,-5.4252,-5.4529,-5.4683,-5.4529,-5.4468,-5.4468,-5.4314,-5.4252,-5.4252,-5.3252,-5.2698,-5.2698,-5.2852,-5.2944,-5.2944,-5.3468,-5.4145,-5.4945,-5.5315,-5.5961,-5.681,-5.681,-5.681,-5.681,-5.6656,-5.6594,-5.6594,-5.6594,-5.6419,-5.6255,-5.636,-5.6225,-5.5979,-5.5681,-5.5431,-5.5179,-5.5179,-5.5179,-5.5179,-5.5179,-5.5179,-5.5179,-5.5179,-5.5179,-5.5179,-5.5179,-5.497,-5.461,-5.4102,-5.3982,-5.3832,-5.3294,-5.3623,-5.3982,-5.3982,-5.4401,-5.476,-5.476,-5.488,-5.497,-5.497,-5.5089,-5.5179,-5.5179,-5.5179,-5.5179,-5.5179,-5.5179,-5.5179,-5.5179,-5.5179,-5.5179,-5.5179,-5.5179,-5.5229,-5.528,-5.5229,-5.493,-5.4321,-5.4341,-5.4281,-5.4031,-5.3832,-5.3832,-5.3982,-5.3443,-5.3473,-5.3952,-5.3414,-5.3503,-5.3952,-5.3563,-5.3713,-5.4251,-5.4521,-5.5568,-5.6855,-5.6496,-5.7334,-5.853,-5.4683,-5.4129,-5.3683,-5.3683,-5.3914,-5.4252,-5.4607,-5.553,-5.6207,-5.6207,-5.6207,-5.6084,-5.5745,-5.5068,-5.4668,-5.4668,-5.4976,-5.5345,-5.5684,-5.5376,-5.5191,-5.5191,-5.4837,-5.4683,-5.4683,-5.3976,-5.3683,-5.3683,-5.3683,-5.3683,-5.3683,-5.3976,-5.4545,-5.5191,-5.553,-5.6084,-5.681,-5.681,-5.681,-5.681,-5.681,-5.681,-5.681,-5.681,-5.6713,-5.6616,-5.6616,-5.6421,-5.6127,-5.5731,-5.5581,-5.5531,-5.528,-5.528,-5.5381,-5.5229,-5.5179,-5.5179,-5.5179,-5.5179,-5.5269,-5.5598,-5.5658,-5.5478,-5.482,-5.467,-5.4581,-5.4221,-5.4431,-5.467,-5.467,-5.497,-5.5179,-5.5179,-5.5179,-5.5179,-5.5179,-5.5179,-5.5179,-5.5179,-5.5179,-5.5179,-5.5179,-5.5478,-5.5538,-5.5209,-5.5478,-5.5538,-5.5209,-5.5179,-5.5329,-5.5658,-5.5658,-5.5508,-5.5149,-5.5448,-5.5448,-5.5149,-5.4521,-5.4551,-5.5119,-5.476,-5.479,-5.5119,-5.476,-5.464,-5.464,-5.4281,-5.4341,-5.47,-5.5029,-5.5927,-5.7094,-5.7094,-5.7962,-5.8949,-5.4976,-5.4683,-5.456,-5.4652,-5.4775,-5.5068,-5.5622,-5.6347,-5.681,-5.681,-5.681,-5.6779,-5.6656,-5.6053,-5.5684,-5.5684,-5.5807,-5.6146,-5.6779,-5.6255,-5.5869,-5.5869,-5.5376,-5.5068,-5.5068,-5.5068,-5.4976,-5.4683,-5.4683,-5.4683,-5.4683,-5.4806,-5.5191,-5.5684,-5.5807,-5.6255,-5.681,-5.681,-5.681,-5.681,-5.681,-5.681,-5.681,-5.681,-5.681,-5.681,-5.681,-5.6677,-5.6506,-5.6133,-5.6113,-5.6163,-5.566,-5.566,-5.5812,-5.561,-5.5448,-5.5388,-5.5478,-5.5448,-5.5508,-5.6166,-5.6316,-5.6196,-5.5628,-5.5418,-5.5329,-5.5209,-5.5269,-5.5359,-5.5359,-5.5448,-5.5508,-5.5508,-5.5508,-5.5508,-5.5508,-5.5508,-5.5508,-5.5508,-5.5508,-5.5508,-5.5508,-5.5897,-5.5957,-5.5388,-5.5867,-5.5927,-5.5388,-5.5448,-5.5777,-5.6368,-5.6316,-5.6316,-5.6316,-5.6825,-5.6885,-5.6496,-5.5388,-5.5388,-5.6316,-5.6316,-5.6316,-5.6316,-5.6316,-5.6017,-5.5508,-5.5508,-5.5508,-5.5568,-5.6107,-5.6705,-5.7334,-5.7932,-5.8471,-5.883,-5.5468,-5.4637,-5.4052,-5.4591,-5.5191,-5.5592,-5.5684,-5.6347,-5.681,-5.681,-5.681,-5.6563,-5.5899,-5.5745,-5.5684,-5.5684,-5.6317,-5.6717,-5.681,-5.6717,-5.6656,-5.6656,-5.6594,-5.6532,-5.6532,-5.6532,-5.5899,-5.4683,-5.4683,-5.4683,-5.4683,-5.5315,-5.5592,-5.5715,-5.6378,-5.6717,-5.681,-5.681,-5.681,-5.681,-5.681,-5.681,-5.681,-5.681,-5.681,-5.681,-5.681,-5.6984,-5.732,-5.7598,-5.7556,-5.7351,-5.6959,-5.6877,-5.6877,-5.6825,-5.6466,-5.6166,-5.6705,-5.6436,-5.6196,-5.6825,-5.6974,-5.6944,-5.6855,-5.6406,-5.5867,-5.5299,-5.5658,-5.6047,-5.6047,-5.6466,-5.6825,-5.6825,-5.6825,-5.6825,-5.6825,-5.6825,-5.6825,-5.6825,-5.6825,-5.6825,-5.6825,-5.6436,-5.6188,-5.6047,-5.6188,-5.6188,-5.6047,-5.6555,-5.6885,-5.6974,-5.6974,-5.6974,-5.6974,-5.7064,-5.7363,-5.7872,-5.7693,-5.7363,-5.6974,-5.6974,-5.6974,-5.6974,-5.6974,-5.6915,-5.6825,-5.6825,-5.6825,-5.6855,-5.6944,-5.7393,-5.7992,-5.8082,-5.8171,-5.8171,-5.4114,-5.3868,-5.3883,-5.456,-5.4976,-5.5407,-5.6176,-5.6594,-5.681,-5.681,-5.681,-5.6686,-5.6378,-5.63,-5.63,-5.63,-5.6964,-5.7364,-5.7364,-5.7734,-5.7949,-5.7949,-5.758,-5.7364,-5.7364,-5.6994,-5.6532,-5.5869,-5.5869,-5.5869,-5.5869,-5.6146,-5.63,-5.6347,-5.6656,-5.681,-5.681,-5.681,-5.681,-5.684,-5.7241,-5.7148,-5.6902,-5.7641,-5.7703,-5.7426,-5.7795,-5.8035,-5.8193,-5.8217,-5.8105,-5.7952,-5.754,-5.7333,-5.7281,-5.7146,-5.6885,-5.6735,-5.7034,-5.6885,-5.6855,-5.7513,-5.7663,-5.7663,-5.7663,-5.7453,-5.7064,-5.6406,-5.6496,-5.6675,-5.6675,-5.6915,-5.7094,-5.7094,-5.7094,-5.7094,-5.7094,-5.7094,-5.7094,-5.7094,-5.7094,-5.7094,-5.7094,-5.6855,-5.6675,-5.6675,-5.6675,-5.6675,-5.6675,-5.6944,-5.7274,-5.7663,-5.7663,-5.7842,-5.8201,-5.8231,-5.8381,-5.868,-5.868,-5.8501,-5.8231,-5.8231,-5.8022,-5.7663,-5.7663,-5.7453,-5.7094,-5.7094,-5.7094,-5.7094,-5.7094,-5.7513,-5.8171,-5.853,-5.868,-5.862]},{"header":{"parameterUnit":"m.s-1","parameterCategory":1,"la1":30.6,"la2":28.766,"lo1":-90.7593,"lo2":-88.6598,"dy":0.0162,"dx":0.0183,"nx":116,"ny":114,"refTime":"2024-03-13T06:00:00:Z","depth":0,"parameterNumber":3,"parameterNumberName":"V-component_of_WINDS"},"data":[0.0,0.0,0.0,0.0,0.0,0.0,0.0,0.0,0.0,0.0,0.0,0.0,0.0,0.0,0.0,0.0,0.0,0.0,0.0,0.0,0.0,0.0,0.0,0.0,0.0,0.0,0.0,0.0,0.0,0.0,0.0,0.0,0.0,0.0,0.0,0.0,0.0,0.0,0.0,0.0,0.0,0.0,0.0,0.0,0.0,0.0,0.0,0.0,0.0,0.0,0.0,0.0,0.0,0.0,0.0,0.0,0.0,0.0,0.0,0.0,0.0,0.0,0.0,0.0,0.0,0.0,0.0,0.0,0.0,0.0,0.0,0.0,0.0,0.0,0.0,0.0,0.0,0.0,0.0,0.0,0.0,0.0,0.0,0.0,0.0,0.0,0.0,0.0,0.0,0.0,0.0,0.0,0.0,0.0,0.0,0.0,0.0,0.0,0.0,0.0,0.0,0.0,0.0,0.0,0.0,0.0,0.0,0.0,0.0,0.0,0.0,0.0,0.0,0.0,0.0,0.0,0.0,0.0,0.0,0.0,0.0,0.0,0.0,0.0,0.0,0.0,0.0,0.0,0.0,0.0,0.0,0.0,0.0,0.0,0.0,0.0,0.0,0.0,0.0,0.0,0.0,0.0,0.0,0.0,0.0,0.0,0.0,0.0,0.0,0.0,0.0,0.0,0.0,0.0,0.0,0.0,0.0,0.0,0.0,0.0,0.0,0.0,0.0,0.0,0.0,0.0,0.0,0.0,0.0,0.0,0.0,0.0,0.0,0.0,0.0,0.0,0.0,0.0,0.0,0.0,0.0,0.0,0.0,0.0,0.0,0.0,0.0,0.0,0.0,0.0,0.0,0.0,0.0,0.0,0.0,0.0,0.0,0.0,0.0,0.0,0.0,0.0,0.0,0.0,0.0,0.0,0.0,0.0,0.0,0.0,0.0,0.0,0.0,0.0,0.0,0.0,0.0,0.0,0.0,0.0,0.0,0.0,0.0,0.0,0.0,0.0,0.0,0.0,0.0,0.0,0.0,0.0,0.0,0.0,0.0,0.0,0.0,0.0,0.0,0.0,0.0,0.0,0.0,0.0,0.0,0.0,0.0,0.0,0.0,0.0,0.0,0.0,0.0,0.0,0.0,0.0,0.0,0.0,0.0,0.0,0.0,0.0,0.0,0.0,0.0,0.0,0.0,0.0,0.0,0.0,0.0,0.0,0.0,0.0,0.0,0.0,0.0,0.0,0.0,0.0,0.0,0.0,0.0,0.0,0.0,0.0,0.0,0.0,0.0,0.0,0.0,0.0,0.0,0.0,0.0,0.0,0.0,0.0,0.0,0.0,0.0,0.0,0.0,0.0,0.0,0.0,0.0,0.0,0.0,0.0,0.0,0.0,0.0,0.0,0.0,0.0,0.0,0.0,0.0,0.0,0.0,0.0,0.0,0.0,0.0,0.0,0.0,0.0,0.0,0.0,0.0,0.0,0.0,0.0,0.0,0.0,0.0,0.0,0.0,0.0,0.0,0.0,0.0,0.0,0.0,0.0,0.0,0.0,0.0,0.0,0.0,0.0,0.0,0.0,0.0,0.0,0.0,0.0,0.0,0.0,0.0,0.0,0.0,0.0,0.0,0.0,0.0,0.0,0.0,0.0,0.0,0.0,0.0,0.0,0.0,0.0,0.0,0.0,0.0,0.0,0.0,0.0,0.0,0.0,0.0,0.0,0.0,0.0,0.0,0.0,0.0,0.0,0.0,0.0,0.0,0.0,0.0,0.0,0.0,0.0,0.0,0.0,0.0,0.0,0.0,0.0,0.0,0.0,0.0,0.0,0.0,0.0,0.0,0.0,0.0,0.0,0.0,0.0,0.0,0.0,0.0,0.0,0.0,0.0,0.0,0.0,0.0,0.0,0.0,0.0,0.0,0.0,0.0,0.0,0.0,0.0,0.0,0.0,0.0,0.0,0.0,0.0,0.0,0.0,0.0,0.0,0.0,0.0,0.0,0.0,0.0,0.0,0.0,0.0,0.0,0.0,0.0,0.0,0.0,0.0,0.0,0.0,0.0,0.0,0.0,0.0,0.0,0.0,0.0,0.0,0.0,0.0,0.0,0.0,0.0,0.0,0.0,0.0,0.0,0.0,0.0,0.0,0.0,0.0,0.0,0.0,0.0,0.0,0.0,0.0,0.0,0.0,0.0,0.0,0.0,0.0,0.0,0.0,0.0,0.0,0.0,0.0,0.0,0.0,0.0,0.0,0.0,0.0,0.0,0.0,0.0,0.0,0.0,0.0,0.0,0.0,0.0,0.0,0.0,0.0,0.0,0.0,0.0,0.0,0.0,0.0,0.0,0.0,0.0,0.0,0.0,0.0,0.0,0.0,0.0,0.0,0.0,0.0,0.0,0.0,0.0,0.0,0.0,0.0,0.0,0.0,0.0,0.0,0.0,0.0,0.0,0.0,0.0,0.0,0.0,0.0,0.0,0.0,0.0,0.0,0.0,0.0,0.0,0.0,0.0,0.0,0.0,0.0,0.0,0.0,0.0,0.0,0.0,0.0,0.0,0.0,0.0,0.0,0.0,0.0,0.0,0.0,0.0,0.0,0.0,0.0,0.0,0.0,0.0,0.0,0.0,0.0,0.0,0.0,0.0,0.0,0.0,0.0,0.0,0.0,0.0,0.0,0.0,0.0,0.0,0.0,0.0,0.0,0.0,0.0,0.0,0.0,0.0,0.0,0.0,0.0,0.0,0.0,0.0,0.0,0.0,0.0,0.0,0.0,0.0,0.0,0.0,0.0,0.0,0.0,0.0,0.0,0.0,0.0,0.0,0.0,0.0,0.0,0.0,0.0,0.0,0.0,0.0,0.0,0.0,0.0,0.0,0.0,0.0,0.0,0.0,0.0,0.0,0.0,0.0,0.0,0.0,0.0,0.0,0.0,0.0,0.0,0.0,0.0,0.0,0.0,0.0,0.0,0.0,0.0,0.0,0.0,0.0,0.0,0.0,0.0,0.0,0.0,0.0,0.0,0.0,0.0,0.0,0.0,0.0,0.0,0.0,0.0,0.0,0.0,0.0,0.0,0.0,0.0,0.0,0.0,0.0,0.0,0.0,0.0,0.0,0.0,0.0,0.0,0.0,0.0,0.0,0.0,0.0,0.0,0.0,0.0,0.0,0.0,0.0,0.0,0.0,0.0,0.0,0.0,0.0,0.0,0.0,0.0,0.0,0.0,0.0,0.0,0.0,0.0,0.0,0.0,0.0,0.0,0.0,0.0,0.0,0.0,0.0,0.0,0.0,0.0,0.0,0.0,0.0,0.0,0.0,0.0,0.0,0.0,0.0,0.0,0.0,0.0,0.0,0.0,0.0,0.0,0.0,0.0,0.0,0.0,0.0,0.0,0.0,0.0,0.0,0.0,0.0,0.0,0.0,0.0,0.0,0.0,0.0,0.0,0.0,0.0,0.0,0.0,0.0,0.0,0.0,0.0,0.0,0.0,0.0,0.0,0.0,0.0,0.0,0.0,0.0,0.0,0.0,0.0,0.0,0.0,0.0,0.0,0.0,0.0,0.0,0.0,0.0,0.0,0.0,0.0,0.0,0.0,0.0,0.0,0.0,0.0,0.0,0.0,0.0,0.0,0.0,0.0,0.0,0.0,0.0,0.0,0.0,0.0,0.0,0.0,0.0,0.0,0.0,0.0,0.0,0.0,0.0,0.0,0.0,0.0,0.0,0.0,0.0,0.0,0.0,0.0,0.0,0.0,0.0,0.0,0.0,0.0,0.0,0.0,0.0,0.0,0.0,0.0,0.0,0.0,0.0,0.0,0.0,0.0,0.0,0.0,0.0,0.0,0.0,0.0,0.0,0.0,0.0,0.0,0.0,0.0,0.0,0.0,0.0,0.0,0.0,0.0,0.0,0.0,0.0,0.0,0.0,0.0,0.0,0.0,0.0,0.0,0.0,0.0,0.0,0.0,0.0,0.0,0.0,0.0,0.0,0.0,0.0,0.0,0.0,0.0,0.0,0.0,0.0,0.0,0.0,0.0,0.0,0.0,0.0,0.0,0.0,0.0,0.0,0.0,0.0,0.0,0.0,0.0,0.0,0.0,0.0,0.0,0.0,0.0,0.0,0.0,0.0,0.0,0.0,0.0,0.0,0.0,0.0,0.0,0.0,0.0,0.0,0.0,0.0,0.0,0.0,0.0,0.0,0.0,0.0,0.0,0.0,0.0,0.0,0.0,0.0,0.0,0.0,0.0,0.0,0.0,0.0,0.0,0.0,0.0,0.0,0.0,0.0,0.0,0.0,0.0,0.0,0.0,0.0,0.0,0.0,0.0,0.0,0.0,0.0,0.0,0.0,0.0,0.0,0.0,0.0,0.0,0.0,0.0,0.0,0.0,0.0,0.0,0.0,0.0,0.0,0.0,0.0,0.0,0.0,0.0,0.0,0.0,0.0,0.0,0.0,0.0,0.0,0.0,0.0,0.0,0.0,0.0,0.0,0.0,0.0,0.0,0.0,0.0,0.0,0.0,0.0,0.0,0.0,0.0,0.0,0.0,0.0,0.0,0.0,0.0,0.0,0.0,0.0,0.0,0.0,0.0,0.0,0.0,0.0,0.0,0.0,0.0,0.0,0.0,0.0,0.0,0.0,0.0,0.0,0.0,0.0,0.0,0.0,0.0,0.0,0.0,0.0,0.0,0.0,0.0,0.0,0.0,0.0,0.0,0.0,0.0,0.0,0.0,0.0,0.0,0.0,0.0,0.0,0.0,0.0,0.0,0.0,0.0,0.0,0.0,0.0,0.0,0.0,0.0,0.0,0.0,0.0,0.0,0.0,0.0,0.0,0.0,0.0,0.0,0.0,0.0,0.0,0.0,0.0,0.0,0.0,0.0,0.0,0.0,0.0,0.0,0.0,0.0,0.0,0.0,0.0,0.0,0.0,0.0,0.0,0.0,0.0,0.0,0.0,0.0,0.0,0.0,0.0,0.0,0.0,0.0,0.0,0.0,0.0,0.0,0.0,0.0,0.0,0.0,0.0,0.0,0.0,0.0,0.0,0.0,0.0,0.0,0.0,0.0,0.0,0.0,0.0,0.0,0.0,0.0,0.0,0.0,0.0,0.0,0.0,0.0,0.0,0.0,0.0,0.0,0.0,0.0,0.0,0.0,0.0,0.0,0.0,0.0,0.0,0.0,0.0,0.0,0.0,0.0,0.0,0.0,0.0,0.0,0.0,0.0,0.0,0.0,0.0,0.0,0.0,0.0,0.0,0.0,0.0,0.0,0.0,0.0,0.0,0.0,0.0,0.0,0.0,0.0,0.0,0.0,0.0,0.0,0.0,0.0,0.0,0.0,0.0,0.0,0.0,0.0,0.0,0.0,0.0,0.0,0.0,0.0,0.0,0.0,0.0,0.0,0.0,0.0,0.0,0.0,0.0,0.0,0.0,0.0,0.0,0.0,0.0,0.0,0.0,0.0,0.0,0.0,0.0,0.0,0.0,0.0,0.0,0.0,0.0,0.0,0.0,0.0,0.0,0.0,0.0,0.0,0.0,0.0,0.0,0.0,0.0,0.0,0.0,0.0,0.0,0.0,0.0,0.0,0.0,0.0,0.0,0.0,0.0,0.0,0.0,0.0,0.0,0.0,0.0,0.0,0.0,0.0,0.0,0.0,0.0,0.0,0.0,0.0,0.0,0.0,0.0,0.0,0.0,0.0,0.0,0.0,0.0,0.0,0.0,0.0,0.0,0.0,0.0,0.0,0.0,0.0,0.0,0.0,0.0,0.0,0.0,0.0,0.0,0.0,0.0,0.0,0.0,0.0,0.0,0.0,0.0,0.0,0.0,0.0,0.0,0.0,0.0,0.0,0.0,0.0,0.0,0.0,0.0,0.0,0.0,0.0,0.0,0.0,0.0,0.0,0.0,0.0,0.0,0.0,0.0,0.0,0.0,0.0,0.0,0.0,0.0,0.0,0.0,0.0,0.0,0.0,0.0,0.0,0.0,0.0,0.0,0.0,0.0,0.0,0.0,0.0,0.0,0.0,0.0,0.0,0.0,0.0,0.0,0.0,0.0,0.0,0.0,0.0,0.0,0.0,0.0,0.0,0.0,0.0,0.0,0.0,2.6358,0.0,0.0,0.0,0.0,0.0,0.0,0.0,0.0,0.0,0.0,0.0,0.0,0.0,0.0,0.0,0.0,0.0,0.0,0.0,0.0,0.0,0.0,0.0,0.0,0.0,0.0,0.0,2.6105,2.6225,2.655,2.631,2.6105,2.6105,2.5877,2.5588,2.5324,2.53,2.53,2.53,2.5829,2.6647,2.7642,2.7103,2.6574,2.6033,0.0,0.0,0.0,0.0,0.0,0.0,0.0,0.0,0.0,0.0,0.0,0.0,0.0,0.0,0.0,0.0,0.0,0.0,0.0,0.0,0.0,0.0,0.0,0.0,0.0,0.0,0.0,0.0,0.0,0.0,0.0,0.0,0.0,0.0,0.0,0.0,0.0,0.0,0.0,0.0,0.0,0.0,0.0,0.0,0.0,0.0,0.0,0.0,0.0,0.0,0.0,0.0,0.0,0.0,0.0,0.0,0.0,0.0,0.0,0.0,0.0,0.0,0.0,0.0,0.0,0.0,0.0,0.0,0.0,0.0,0.0,2.6767,0.0,0.0,0.0,0.0,0.0,0.0,0.0,0.0,0.0,0.0,0.0,0.0,0.0,0.0,0.0,0.0,0.0,0.0,0.0,0.0,0.0,0.0,0.0,2.5781,2.5925,2.5492,2.5444,2.5492,2.5588,2.5492,2.5444,2.5444,2.5444,2.5396,2.53,2.53,2.5396,2.5588,2.7055,2.8258,2.9196,2.9292,2.8883,2.793,2.6526,0.0,0.0,0.0,0.0,0.0,0.0,0.0,0.0,0.0,0.0,0.0,0.0,0.0,0.0,0.0,0.0,0.0,0.0,0.0,0.0,0.0,0.0,0.0,0.0,0.0,0.0,0.0,0.0,0.0,0.0,0.0,0.0,0.0,0.0,0.0,0.0,0.0,0.0,0.0,0.0,0.0,0.0,0.0,0.0,0.0,0.0,0.0,0.0,0.0,0.0,0.0,0.0,0.0,0.0,0.0,0.0,0.0,0.0,0.0,0.0,0.0,0.0,0.0,3.148,3.2199,3.2536,3.2971,3.3284,3.3284,3.0374,2.9388,2.9677,2.7272,0.0,0.0,0.0,0.0,0.0,0.0,0.0,0.0,0.0,0.0,0.0,0.0,0.0,0.0,0.0,0.0,0.0,0.0,0.0,0.0,0.0,2.5781,2.6069,2.5997,2.5997,2.619,2.6657,2.6262,2.5997,2.5997,2.5997,2.5781,2.5324,2.53,2.5781,2.6681,2.9629,3.136,3.1985,3.2442,3.2587,3.2322,2.9388,2.8089,2.8017,0.0,0.0,0.0,0.0,0.0,0.0,0.0,0.0,0.0,0.0,0.0,0.0,0.0,0.0,0.0,0.0,0.0,0.0,0.0,0.0,0.0,0.0,0.0,0.0,0.0,0.0,0.0,0.0,0.0,0.0,0.0,0.0,0.0,0.0,0.0,0.0,0.0,0.0,0.0,0.0,0.0,2.7282,2.8378,0.0,0.0,0.0,0.0,0.0,0.0,0.0,0.0,0.0,0.0,0.0,0.0,0.0,3.0446,3.2539,3.3452,3.4198,3.4799,3.5857,3.6146,3.5785,3.5857,3.6386,3.7156,3.5352,0.0,3.1985,3.0663,0.0,0.0,0.0,0.0,0.0,0.0,0.0,0.0,0.0,0.0,0.0,0.0,0.0,0.0,0.0,0.0,0.0,0.0,0.0,0.0,0.0,2.6334,2.7007,2.7007,2.8378,2.8691,2.7426,2.7705,2.7224,2.5709,2.5372,2.5107,2.4867,2.5444,2.7007,2.9581,3.1601,3.314,3.427,3.4799,3.504,3.4968,3.3573,3.1625,2.9364,2.8907,0.0,0.0,0.0,0.0,0.0,0.0,0.0,0.0,0.0,0.0,0.0,0.0,0.0,0.0,0.0,0.0,0.0,0.0,0.0,0.0,0.0,0.0,0.0,0.0,0.0,0.0,0.0,0.0,0.0,0.0,0.0,0.0,0.0,0.0,0.0,0.0,0.0,0.0,0.0,2.7055,2.8546,2.9316,2.9388,2.8979,0.0,0.0,0.0,0.0,0.0,0.0,0.0,0.0,0.0,3.2683,3.3044,3.4078,3.5905,3.6699,3.718,3.7421,3.8479,3.8719,3.8214,3.8503,3.9056,3.9729,3.8719,3.7613,3.6266,3.3404,3.1288,2.9653,0.0,0.0,0.0,0.0,2.6117,2.6465,0.0,0.0,0.0,0.0,0.0,0.0,0.0,0.0,0.0,0.0,0.0,0.0,2.6093,2.7681,2.8835,2.9124,3.0687,3.0754,2.8474,2.8426,2.7464,2.5204,2.4602,2.4314,2.4314,2.6021,2.8619,3.2126,3.3573,3.5016,3.6435,3.6988,3.7228,3.7228,3.7228,3.5088,3.1456,3.0927,2.9766,2.8168,0.0,0.0,0.0,0.0,0.0,0.0,0.0,0.0,0.0,0.0,0.0,0.0,0.0,0.0,0.0,0.0,0.0,0.0,0.0,0.0,0.0,0.0,0.0,0.0,0.0,0.0,0.0,0.0,0.0,0.0,0.0,0.0,0.0,0.0,0.0,0.0,0.0,2.8186,2.9797,3.0062,3.0687,3.0518,0.0,0.0,0.0,0.0,0.0,0.0,3.1817,3.2394,3.3717,3.5978,3.6435,3.7324,3.8791,3.9489,3.9705,3.9441,4.0499,4.0643,4.0018,4.0427,4.0884,4.1365,4.0836,4.0379,3.9729,3.6026,3.3452,3.1769,3.0591,2.9316,2.8186,2.8595,2.8811,2.9148,0.0,0.0,0.0,0.0,0.0,0.0,0.0,0.0,0.0,0.0,0.0,2.7186,2.8234,3.0206,3.1934,3.2923,3.2223,3.1235,3.0037,2.7633,2.5757,2.4568,2.4073,2.3842,2.3842,2.732,3.047,3.3212,3.5761,3.7565,3.8671,3.92,3.9441,3.9441,3.9441,3.7926,3.5208,3.3236,3.2143,3.1471,2.8607,0.0,0.0,0.0,0.0,0.0,0.0,0.0,0.0,0.0,0.0,0.0,0.0,0.0,0.0,0.0,0.0,0.0,0.0,0.0,0.0,0.0,0.0,0.0,0.0,0.0,0.0,0.0,0.0,0.0,0.0,0.0,0.0,0.0,0.0,0.0,0.0,0.0,0.0,3.0134,3.2298,0.0,0.0,0.0,0.0,3.0013,3.0995,3.2442,3.4511,3.5136,3.6627,3.9272,3.9393,3.9922,4.1004,4.2097,4.2121,4.1076,4.2193,4.2169,4.11,4.1124,4.1437,4.1894,4.1365,4.1124,4.0932,3.8671,3.6507,3.4438,3.2947,3.1961,3.1476,3.15,3.1793,3.2418,0.0,0.0,0.0,0.0,0.0,0.0,0.0,0.0,2.4544,2.4736,2.6297,2.781,2.8907,3.1817,3.3982,3.4727,3.5689,3.5232,3.2803,3.0446,2.8258,2.6129,2.4266,2.442,2.6767,2.946,3.2466,3.5809,3.7781,3.9128,3.985,4.0379,4.0812,4.1124,4.0763,4.009,3.9032,3.6555,3.4294,3.2216,3.0931,2.9123,0.0,0.0,0.0,0.0,0.0,0.0,0.0,0.0,0.0,0.0,0.0,0.0,0.0,0.0,0.0,0.0,0.0,0.0,0.0,0.0,0.0,0.0,0.0,0.0,0.0,0.0,0.0,0.0,0.0,0.0,0.0,0.0,0.0,0.0,0.0,0.0,0.0,3.3549,3.5376,0.0,3.4318,3.403,3.4126,3.4631,3.5665,3.7204,3.932,3.9609,4.0619,4.2532,4.2604,4.2772,4.3216,4.3601,4.3241,4.2265,4.2904,4.2687,4.1677,4.1677,4.1798,4.1966,4.1774,4.1677,4.1581,4.0138,3.8286,3.6218,3.4992,3.4174,3.3741,3.4078,3.4342,3.4655,0.0,0.0,0.0,0.0,0.0,0.0,0.0,0.0,2.397,2.4928,2.6911,2.8931,3.0711,3.4054,3.6459,3.718,3.8022,3.7108,3.3694,3.1192,2.8546,2.5733,2.4602,2.5685,2.922,3.1553,3.4366,3.7733,3.9345,4.0403,4.0932,4.1461,4.1894,4.223,4.187,4.1701,4.1581,3.9441,3.6922,3.4241,3.3012,3.1216,2.9116,0.0,0.0,0.0,0.0,0.0,0.0,0.0,0.0,0.0,0.0,0.0,0.0,0.0,0.0,0.0,0.0,0.0,0.0,0.0,0.0,0.0,0.0,0.0,0.0,0.0,0.0,0.0,0.0,0.0,0.0,0.0,0.0,0.0,0.0,0.0,3.4919,3.5785,3.807,3.9032,3.7613,3.7493,3.7781,3.8479,3.9537,4.0836,4.2399,4.2663,4.3265,4.4261,4.4285,4.4189,4.3997,4.3997,4.3529,4.2554,4.2832,4.2543,4.1701,4.1701,4.1701,4.1701,4.1701,4.1605,4.1365,4.0499,3.92,3.7661,3.6771,3.6194,3.593,3.629,3.6411,3.6483,0.0,0.0,0.0,0.0,0.0,0.0,0.0,2.2236,2.2897,2.5733,2.7993,3.0567,3.3694,3.6964,3.9296,4.0331,3.8936,3.6459,3.2779,2.9508,2.6334,2.3216,2.5083,2.7705,3.0946,3.3573,3.6218,3.8864,4.0427,4.1437,4.2024,4.2554,4.2795,4.2819,4.2819,4.2819,4.2771,4.1735,4.0061,3.7907,3.487,3.3643,3.3258,0.0,0.0,0.0,0.0,0.0,0.0,0.0,0.0,0.0,0.0,0.0,0.0,0.0,0.0,0.0,0.0,0.0,0.0,0.0,0.0,0.0,0.0,0.0,0.0,0.0,0.0,0.0,0.0,0.0,0.0,0.0,0.0,0.0,3.0134,3.4342,3.7156,3.6723,4.0379,4.211,4.0042,4.0739,4.1341,4.1365,4.2303,4.3096,4.3601,4.4069,4.4333,4.4357,4.4333,4.4045,4.3529,4.3505,4.3,4.1966,4.2049,4.1725,4.1196,4.1196,4.1172,4.1148,4.1148,4.0836,4.0331,3.9801,3.9272,3.8767,3.819,3.7974,3.7974,3.7974,3.7974,3.7878,0.0,0.0,0.0,0.0,0.0,0.0,0.0,2.2006,2.2781,2.5194,2.8402,3.1649,3.4847,3.8383,4.0643,4.0932,3.9513,3.718,3.379,2.9875,2.6777,2.4771,2.744,3.0302,3.3116,3.5761,3.8046,3.997,4.0787,4.1268,4.1413,4.1942,4.2552,4.3093,4.2879,4.3251,4.3986,4.303,4.2199,4.1274,3.8056,3.5791,3.4213,0.0,0.0,0.0,0.0,0.0,0.0,0.0,0.0,0.0,0.0,0.0,0.0,0.0,0.0,0.0,0.0,0.0,0.0,0.0,0.0,0.0,0.0,0.0,0.0,0.0,0.0,0.0,0.0,0.0,0.0,0.0,0.0,3.3452,3.4511,3.7805,4.0739,4.2519,4.478,4.5958,4.5381,4.49,4.478,4.5164,4.5116,4.5453,4.6367,4.5814,4.5669,4.6054,4.5309,4.4467,4.3529,4.3505,4.3,4.1966,4.241,4.2313,4.1749,4.1365,4.098,4.0595,4.021,3.997,3.9777,3.9248,3.896,3.8767,3.819,3.7974,3.7974,3.7974,3.7733,3.7276,0.0,0.0,0.0,0.0,0.0,0.0,0.0,2.1365,2.2608,2.5577,2.8835,3.2178,3.5569,3.8695,4.0427,4.021,3.8118,3.5473,3.225,2.8691,2.6791,2.6983,3.0037,3.2971,3.5641,3.807,3.9898,4.1052,4.1798,4.2038,4.187,4.2615,4.3241,4.3651,4.3651,4.4002,4.4609,4.4035,4.3678,4.3364,4.1029,3.8862,3.6923,3.5439,3.4313,3.33,3.205,3.1675,3.1486,2.9456,0.0,0.0,0.0,0.0,0.0,0.0,0.0,0.0,0.0,0.0,0.0,0.0,0.0,0.0,0.0,0.0,0.0,0.0,0.0,0.0,0.0,0.0,0.0,0.0,3.4944,3.7589,3.9753,4.1485,4.3409,4.5838,4.7329,4.8074,4.7858,4.7473,4.7185,4.7064,4.6968,4.6992,4.7161,4.6391,4.5958,4.6054,4.5237,4.4299,4.3216,4.3192,4.2663,4.1653,4.1966,4.1942,4.1629,4.1317,4.0884,0.0,4.0066,3.9681,3.9248,3.8936,3.8671,0.0,0.0,0.0,0.0,0.0,3.7324,3.6747,0.0,0.0,0.0,0.0,0.0,0.0,0.0,2.0677,2.2492,2.6391,2.9172,3.2178,3.5833,3.8142,3.9224,3.8767,3.5759,3.2635,2.9508,2.7128,2.7055,2.9797,3.2877,3.5761,3.8286,4.0331,4.1581,4.2121,4.2976,4.3192,4.2843,4.3794,4.4251,4.4251,4.468,4.4827,4.4878,4.4682,4.4618,4.4495,4.3502,4.2152,4.0409,3.7829,3.6798,3.6554,3.4988,3.3817,3.2938,3.2157,0.0,0.0,0.0,0.0,0.0,0.0,0.0,0.0,0.0,0.0,0.0,0.0,0.0,0.0,0.0,0.0,0.0,0.0,0.0,0.0,0.0,0.0,0.0,0.0,3.795,4.1244,4.49,4.4933,4.5429,4.7353,4.8531,4.8964,4.8435,4.8748,4.8603,4.7666,4.7978,4.7762,4.6776,0.0,0.0,0.0,0.0,4.377,4.2819,4.2771,4.2217,4.1172,4.1172,4.1172,4.1172,4.1124,4.0836,4.0379,4.0258,3.9681,3.8815,3.8743,3.8431,3.7974,3.7974,3.7974,3.7902,3.7324,3.6819,3.6314,0.0,0.0,0.0,0.0,0.0,0.0,0.0,2.0677,2.2492,2.6391,2.8859,3.148,3.4727,3.7012,3.8262,3.8142,3.5256,3.225,2.9484,2.922,3.0543,3.3621,3.636,3.8719,4.0523,4.1856,4.2554,4.2675,4.2867,4.2916,4.2843,4.3385,4.3795,4.4087,4.4774,4.513,4.5233,4.5305,4.5306,4.5073,4.4634,4.3643,4.2282,4.0802,3.9962,3.9467,3.8473,3.8247,3.8024,3.5597,3.5234,3.5283,3.2168,3.0163,0.0,0.0,0.0,0.0,0.0,0.0,0.0,0.0,0.0,0.0,0.0,0.0,0.0,0.0,0.0,0.0,0.0,0.0,0.0,3.8118,4.0643,4.3289,4.6583,4.6968,4.7209,4.8026,4.906,4.9493,4.8988,4.8628,4.8363,4.8147,4.7834,4.7377,4.6752,4.6199,4.5669,4.5101,4.4178,4.3385,4.2819,4.2386,4.1798,4.1172,0.0,0.0,4.1172,4.0739,4.0499,4.0355,3.9489,3.9008,3.8791,3.8334,3.807,3.7974,3.7974,3.7974,3.7853,3.6916,3.6483,3.6266,0.0,0.0,0.0,0.0,0.0,0.0,0.0,2.0677,2.2174,2.5214,2.7223,2.9516,3.2517,3.3789,3.4318,3.4054,3.1625,2.9773,2.8955,3.0663,3.3236,3.6675,3.9104,4.1004,4.2327,4.3144,4.3409,4.3144,4.3409,4.3409,4.3144,4.3673,4.3999,4.4183,4.4677,4.496,4.5049,4.5318,4.5392,4.527,4.4963,4.4415,4.3731,4.2725,4.2035,4.1549,4.1112,4.062,3.9896,3.8195,3.7421,3.6819,3.4703,3.2779,3.0879,0.0,0.0,0.0,0.0,0.0,0.0,0.0,0.0,0.0,0.0,0.0,0.0,0.0,0.0,3.011,3.1432,0.0,3.7685,4.0355,4.3,4.5477,4.7593,4.8122,4.8387,4.8652,4.8916,4.8964,4.87,4.8459,4.8171,4.7906,4.7906,4.7545,4.6752,4.6199,4.5549,4.4717,4.3938,4.3144,4.2434,4.211,4.1701,4.1172,4.1172,4.1172,4.1172,4.0908,4.0499,3.997,3.9441,3.8912,3.8383,3.8094,3.7974,3.7974,3.7974,3.7829,3.7493,3.6699,3.6242,3.5905,0.0,0.0,0.0,0.0,0.0,0.0,0.0,2.0519,2.1818,2.4022,2.5584,2.7462,2.9928,3.0337,3.0086,2.9244,2.8258,2.8122,2.922,3.237,3.5857,3.9561,4.1557,4.3024,4.3962,4.4419,4.4309,4.3818,4.4213,4.4213,4.3842,4.4117,4.4405,4.4597,4.4908,4.5033,4.5033,4.5502,4.5552,4.5355,4.5048,4.4803,4.456,4.3795,4.3337,4.3048,4.2891,4.1533,3.9898,3.9681,3.8455,3.7012,3.6771,3.5425,3.338,3.0711,2.9556,0.0,0.0,0.0,0.0,0.0,0.0,0.0,0.0,0.0,2.8362,2.9773,3.1312,3.2899,3.4535,3.7517,4.0403,4.2423,4.4972,4.704,4.8002,4.8507,4.8724,4.8628,4.8435,4.8243,4.8147,4.8147,4.7954,4.7521,4.781,4.7569,4.6607,4.6054,4.5269,4.4309,4.3794,4.3072,4.2134,4.2014,4.1701,4.1172,4.1293,4.1293,4.1172,4.1293,4.0812,3.9898,3.9705,3.8984,3.7974,3.7974,3.7974,3.7974,3.7974,3.7661,3.7132,3.6603,3.6146,3.5689,0.0,0.0,0.0,0.0,0.0,0.0,0.0,0.0,2.1596,2.3996,2.5185,2.6293,2.7545,2.836,2.7993,2.6021,2.8667,3.0903,3.1985,3.5449,3.9104,4.2832,4.413,4.5044,4.5645,4.5718,4.5477,4.4885,4.4957,4.4957,4.4885,4.4477,4.4789,4.5742,4.5742,4.5742,4.583,4.6633,4.6421,4.5546,4.5546,4.4962,4.4087,4.3651,4.3794,4.4058,4.3096,4.0868,3.8383,3.9296,3.8214,3.6651,3.7517,3.7012,3.5545,3.2923,3.047,2.8032,2.5414,2.4526,2.4493,2.5177,2.5997,2.744,0.0,0.0,3.2563,3.5016,3.6819,3.8407,4.0018,4.1774,4.3529,4.5213,4.6175,4.692,4.7521,4.7642,4.7497,4.704,4.7762,4.8098,4.7642,4.7593,4.7569,4.7497,4.7112,4.6631,4.6054,4.5438,4.4885,4.4309,4.3794,4.3241,4.2747,4.2265,4.1701,4.1196,4.1653,4.1629,4.1196,4.1677,4.1557,4.0956,4.0018,3.8984,3.7974,3.7974,3.7974,3.7974,3.7974,3.7661,3.7132,3.6603,3.6362,3.617,0.0,0.0,0.0,0.0,0.0,0.0,0.0,0.0,0.0,2.2527,2.2937,2.3658,2.5264,2.5224,2.4791,2.4016,2.7079,2.9893,3.1889,3.5549,3.9692,4.4237,4.4623,4.5426,4.6824,4.6535,4.6126,4.5597,4.5597,4.5597,4.5534,4.5317,4.5501,4.5934,4.5934,4.5934,4.5934,4.6279,4.6005,4.5329,4.5329,4.4677,4.3615,4.2891,4.2182,4.1461,4.0379,3.8527,0.0,3.6771,3.5975,3.5328,3.6988,3.5954,3.3861,3.2442,3.035,2.8258,2.7227,2.6347,0.0,0.0,2.9124,3.035,3.2923,3.439,3.5713,3.7445,3.932,4.1028,4.2303,4.3842,4.5237,0.0,4.6824,4.7257,4.7473,4.6968,4.6391,4.5862,4.591,4.615,4.6535,4.6583,4.6583,4.6583,4.6391,4.603,4.5501,4.5197,4.4693,4.389,4.3337,4.2976,4.2819,4.1942,4.1557,4.1653,4.187,4.1701,4.1196,4.1784,4.1341,4.021,3.9128,3.8407,3.7974,3.7974,3.7974,3.7974,3.7974,3.7853,3.7541,3.6723,3.6218,3.5833,0.0,0.0,0.0,0.0,0.0,0.0,0.0,0.0,0.0,0.0,2.1343,2.1876,2.341,2.2732,2.2287,2.2628,2.5227,2.8062,3.1015,3.4532,3.8709,4.3552,4.4179,4.5169,4.6851,4.6915,4.646,4.5521,4.5933,4.5933,4.5521,4.5789,4.6078,4.6343,4.6199,4.6223,4.6367,4.6367,4.5982,4.5269,4.5125,4.4227,4.2735,4.1557,3.9753,3.7805,3.73,3.5713,3.3813,3.3428,3.2709,3.2397,3.4559,3.3765,3.1913,3.1259,2.9292,2.7512,2.7945,0.0,0.0,3.0615,3.2034,3.3308,3.5449,3.7036,3.8431,3.9657,4.1244,4.2663,4.3577,4.4804,4.5886,4.6415,4.6944,4.7281,4.7281,4.6367,4.5453,4.4756,4.3962,4.3842,4.4756,4.5357,4.5694,4.5694,4.5694,4.5549,4.5101,4.4933,4.4501,4.377,4.3529,4.3265,4.2976,4.2351,4.2038,4.1966,4.211,4.1846,4.1196,4.1437,4.0836,3.9561,3.8623,3.8118,3.7974,3.7974,3.7974,3.7974,3.7974,3.7974,3.7878,3.6964,3.629,3.5737,0.0,0.0,0.0,0.0,0.0,0.0,0.0,0.0,0.0,0.0,0.0,0.0,0.0,2.1549,2.1275,2.1775,2.3542,2.6117,2.9738,3.261,3.6038,4.0276,4.2736,4.4467,4.5323,4.6717,4.6523,4.4564,4.6001,4.5936,4.4564,4.548,4.6463,4.7425,4.692,4.6968,4.7449,4.7449,4.6848,4.5862,4.5269,4.3577,4.1076,3.9513,3.6651,3.3597,3.4583,3.2587,2.9484,2.946,2.8426,2.7474,2.9629,3.0591,3.0754,2.9677,2.7128,2.4952,2.6513,0.0,2.8435,3.1649,3.3982,3.605,3.8214,3.9537,4.0739,4.2386,4.3072,4.3649,4.4165,4.4717,4.5269,4.5862,4.6391,4.6728,4.6728,4.5838,4.4693,4.3697,4.2206,4.1485,0.0,4.3962,4.5101,4.5101,4.5101,4.5101,4.5077,4.4597,4.4285,4.4261,4.4741,4.4563,4.3505,4.3925,4.3481,4.199,4.2554,4.2182,4.1172,4.0667,4.0138,3.9585,3.9032,3.8479,3.7974,3.7974,3.7974,3.7974,3.7974,3.7974,3.7926,3.7372,3.6843,3.6218,0.0,0.0,0.0,0.0,0.0,0.0,0.0,0.0,0.0,0.0,0.0,0.0,0.0,0.0,0.0,0.0,2.3697,2.5521,2.7272,3.0586,3.3781,3.6808,3.8995,4.089,4.2616,4.3601,4.3962,4.3481,4.4029,4.4528,4.5025,4.5335,4.6186,4.7497,4.7305,4.7329,4.7473,4.7136,4.6367,4.5221,4.4058,4.1966,3.9369,3.706,3.4078,3.0975,0.0,2.8017,2.6598,2.6238,2.5781,2.5673,2.7849,2.7657,2.6526,2.5829,2.6117,2.6946,2.8595,3.0206,3.2082,3.4919,3.6964,3.8551,3.9609,4.0956,4.1918,4.1749,4.1293,4.086,4.0658,4.0523,4.0908,4.2519,4.3529,4.4467,4.5525,4.5005,4.3901,4.2182,4.1509,0.0,0.0,0.0,0.0,4.3986,4.4058,4.4227,4.4525,4.4717,4.4813,4.4813,4.4981,4.4741,4.4021,4.3553,4.2856,4.1966,4.1798,4.1894,4.2241,4.0595,3.9777,3.9561,3.8647,3.8166,3.7974,3.7974,3.7974,3.7974,3.7974,3.7974,3.7926,3.7397,3.7084,3.6771,0.0,0.0,0.0,0.0,0.0,0.0,0.0,0.0,0.0,0.0,0.0,0.0,0.0,0.0,0.0,0.0,0.0,2.3563,2.4665,2.7146,2.9656,3.2137,3.4328,3.6199,3.7888,3.8872,3.927,3.898,4.0038,4.0732,4.1206,4.2769,4.4044,4.4927,4.5717,4.6078,4.6054,4.5718,4.4539,4.276,4.1341,3.8839,3.5737,3.3452,3.0831,0.0,2.6021,2.4795,2.4145,2.3809,2.3688,2.4001,2.5757,2.5372,2.4338,2.4771,2.6117,2.7954,3.0543,3.2635,3.4751,3.7397,3.8984,4.009,4.0787,4.1605,4.1846,4.0595,3.9345,3.8118,3.7036,3.6218,3.6603,3.932,4.0331,4.1653,4.4202,4.3794,4.2784,4.1605,4.0956,4.0427,0.0,0.0,0.0,4.2856,4.3313,4.3673,4.4034,4.4669,4.5077,4.5077,4.5309,4.5101,4.4573,4.377,4.288,4.1966,4.1437,4.1533,4.2193,4.0403,3.9609,3.9537,3.8455,3.7974,3.7974,3.7974,3.7974,3.7974,3.7974,3.7974,3.795,3.7589,3.7469,3.7324,0.0,0.0,0.0,0.0,0.0,0.0,0.0,0.0,0.0,0.0,0.0,0.0,0.0,0.0,0.0,0.0,0.0,0.0,2.2082,2.2762,2.4199,2.6641,2.9055,3.0716,3.1545,3.3003,3.3068,3.1713,3.436,3.4902,3.3686,3.7915,3.9867,4.0032,4.2114,4.3072,4.3072,4.3048,4.1293,3.8431,3.7324,3.4414,3.0591,2.9003,2.7079,2.5107,2.4131,2.3144,2.227,2.2221,2.2246,2.251,2.3577,2.3962,2.442,2.6465,2.7186,2.8218,3.2442,3.4727,3.6555,3.9104,4.0138,4.0763,4.1677,4.1413,4.0523,3.8936,3.7204,3.5352,0.0,0.0,3.2753,3.6386,3.7156,3.8719,4.288,4.2254,4.1509,0.0,0.0,0.0,0.0,0.0,0.0,4.2014,0.0,4.3529,4.3601,4.4635,4.5149,4.5149,4.5718,4.5718,4.5077,4.4501,4.3505,4.2014,4.1485,4.122,4.1172,4.009,3.9609,3.9537,3.8455,3.7974,3.7974,3.7974,3.7974,3.7974,3.7974,3.7974,3.7974,3.7974,3.7974,3.7829,0.0,0.0,0.0,0.0,0.0,0.0,0.0,0.0,0.0,0.0,0.0,0.0,0.0,0.0,0.0,0.0,0.0,0.0,2.0539,2.2311,2.335,2.3227,2.6229,2.799,2.8209,2.952,3.0186,3.0163,3.055,3.1079,3.1843,3.3212,3.4396,3.5468,3.6554,3.7036,3.696,3.6576,3.5785,3.4559,3.3092,3.112,2.8931,2.732,2.5661,2.4107,2.3457,2.3288,2.3288,2.2462,2.2967,2.4121,2.518,2.6069,2.7128,2.9244,3.1264,3.343,3.6579,3.8839,4.0523,4.1196,4.1774,4.1976,4.1004,3.9465,3.7757,3.617,3.2683,2.9611,0.0,0.0,0.0,3.3741,3.6603,0.0,4.2519,4.3289,0.0,4.2086,0.0,4.2423,4.2182,4.2495,0.0,0.0,4.3601,4.3866,4.4683,4.5742,4.6319,4.6319,4.6824,4.6463,4.5077,4.3818,4.2952,4.2602,4.2014,4.1774,4.1725,4.0258,3.9609,3.9537,3.8455,3.7974,3.7974,3.7974,3.7974,3.7974,3.7974,3.7974,3.7974,3.7974,3.7974,3.795,0.0,0.0,0.0,0.0,0.0,0.0,0.0,0.0,0.0,0.0,0.0,0.0,0.0,0.0,0.0,0.0,0.0,0.0,0.0,2.0895,2.1451,2.1016,2.3047,2.418,2.418,2.4883,2.5371,2.5673,2.5762,2.6258,2.7153,2.8397,2.9547,3.0719,3.2019,3.279,3.3068,3.2779,3.1817,0.0,0.0,2.756,2.5636,2.4723,2.3833,2.3071,2.2751,2.3144,2.389,2.4434,0.0,2.6791,2.7849,2.8931,3.0326,3.2899,0.0,3.6507,3.9417,4.1244,4.2375,4.2591,4.2351,4.1533,3.9465,3.7517,3.5304,3.2277,2.9196,0.0,2.5985,0.0,0.0,0.0,0.0,0.0,4.1928,4.2928,4.3241,0.0,4.3529,0.0,4.3481,4.3914,4.4347,0.0,4.4117,4.4093,4.4693,4.579,4.6271,4.603,4.6535,4.603,4.4443,4.3529,4.2856,4.2458,4.1928,4.1629,4.1581,4.0475,3.9826,3.9561,0.0,3.8214,3.7974,3.7974,3.7974,3.7974,3.7974,3.7974,3.7974,3.7974,3.7974,3.7974,0.0,0.0,0.0,0.0,0.0,0.0,0.0,0.0,0.0,0.0,0.0,0.0,0.0,0.0,0.0,0.0,0.0,0.0,0.0,0.0,1.959,1.9902,2.0332,2.0605,2.0605,2.0605,2.0605,2.0605,2.1269,2.1621,2.1681,2.3844,2.5168,2.5777,2.7716,2.8996,2.96,2.96,2.8323,2.6225,2.5781,2.4218,2.2197,0.0,2.2197,2.2221,2.2342,2.3119,2.442,2.7031,2.8643,2.9725,3.0999,3.225,3.3813,3.6747,3.7757,3.8599,4.1581,4.2784,4.3241,4.3457,4.2351,4.0451,3.7613,3.5497,3.2851,2.8426,0.0,2.5348,2.4554,2.453,2.6382,3.1745,0.0,3.6002,4.1317,4.2145,4.2663,4.4213,4.4381,4.4453,4.4573,4.5005,4.5293,4.5293,4.4789,4.4501,4.4501,4.5366,4.5742,4.5293,4.5718,4.5213,4.3746,4.3649,4.3072,4.1966,4.1509,4.1244,4.1172,4.0643,4.0138,3.9681,0.0,0.0,3.819,3.8118,3.8094,3.8094,3.8022,3.7974,3.7974,3.7974,3.7974,3.7974,0.0,0.0,0.0,0.0,0.0,0.0,0.0,0.0,0.0,0.0,2.1055,2.0605,0.0,0.0,0.0,0.0,0.0,0.0,0.0,0.0,0.0,1.9922,2.0332,2.0605,2.0605,2.0605,2.0605,2.0605,2.0352,2.0254,2.0254,2.0927,2.1104,2.0931,2.1868,2.2453,2.2807,2.2807,2.2874,2.3015,2.2919,2.2606,2.2197,2.2197,0.0,0.0,2.3216,2.4203,2.5444,2.8114,2.9725,3.1023,3.338,3.5473,3.7397,3.9296,4.0763,4.2206,4.4082,4.4972,4.5068,4.3903,4.2351,4.0258,3.6699,3.2971,0.0,0.0,2.4506,2.3087,2.3794,2.4602,2.6935,3.2274,3.403,3.6555,0.0,0.0,4.3216,0.0,0.0,0.0,0.0,0.0,0.0,0.0,0.0,4.5645,4.5645,4.5814,4.6078,4.6439,4.6102,4.5573,4.4852,4.4357,4.3457,4.1966,4.1928,4.1605,4.1172,4.0643,4.0355,4.0234,3.9705,0.0,3.9296,3.8864,3.8671,3.8623,3.8166,3.7974,3.7974,3.7974,3.7974,3.7974,0.0,0.0,0.0,0.0,0.0,0.0,0.0,2.1387,2.1641,2.2734,2.25,2.1992,2.1368,2.0879,2.0605,0.0,0.0,0.0,0.0,0.0,0.0,0.0,2.0488,2.0605,2.0605,2.0605,2.0605,0.0,0.0,1.9922,1.9902,1.9839,1.988,2.0044,2.0788,2.1374,2.1927,2.232,2.2559,2.2606,2.2606,2.2438,2.2197,0.0,0.0,0.0,0.0,2.3649,2.4819,2.6935,2.8715,3.0711,3.4463,3.6916,3.8671,3.9994,4.1509,4.3048,4.4371,4.5309,4.5669,4.4635,4.2351,3.9248,3.4968,0.0,0.0,0.0,2.3063,2.251,2.3601,2.4386,0.0,3.0158,3.213,3.4751,0.0,0.0,0.0,0.0,0.0,0.0,0.0,0.0,0.0,0.0,0.0,4.5438,4.5438,4.5438,4.5621,4.5886,4.591,4.5405,4.4299,4.4034,4.3265,4.1966,4.1701,4.1437,4.1172,4.0932,4.0643,4.0379,4.0138,0.0,3.9585,3.932,3.9224,3.92,3.8936,3.8815,3.8791,3.8527,3.8407,3.8383,0.0,0.0,0.0,0.0,0.0,0.0,0.0,2.2227,2.2539,2.4023,2.4043,2.3496,2.2422,2.1544,2.0918,0.0,0.0,0.0,0.0,0.0,0.0,0.0,0.0,0.0,0.0,0.0,0.0,0.0,0.0,0.0,0.0,0.0,0.0,0.0,0.0,2.1765,2.2434,2.3203,2.335,0.0,0.0,2.2654,0.0,0.0,0.0,0.0,0.0,2.2903,2.4035,2.5444,2.7272,2.9653,3.3621,3.6386,3.8359,3.9537,4.1244,4.3048,4.4347,4.5317,4.5886,4.502,4.199,3.7998,3.3236,2.9677,0.0,2.2919,2.2197,2.251,2.3601,2.3905,2.5011,0.0,2.9725,3.2154,0.0,0.0,0.0,0.0,0.0,0.0,0.0,0.0,0.0,0.0,0.0,0.0,4.5053,4.5077,4.5125,4.5245,4.5718,4.5213,4.3697,4.3697,4.312,4.1966,4.1557,4.1293,4.1172,4.1172,4.0956,4.0571,4.0571,0.0,0.0,3.9826,3.9777,3.9753,3.9657,3.9537,3.9393,3.896,3.8743,3.8575,0.0,0.0,0.0,0.0,0.0,0.0,0.0,2.248,2.3203,2.5226,2.4863,2.418,2.3672,2.2852,2.1855,0.0,0.0,0.0,0.0,0.0,0.0,0.0,0.0,0.0,0.0,0.0,0.0,0.0,0.0,0.0,0.0,0.0,0.0,0.0,0.0,0.0,0.0,2.2446,0.0,0.0,0.0,0.0,0.0,0.0,0.0,0.0,0.0,0.0,2.3962,0.0,0.0,2.8114,2.9508,3.2683,3.6218,3.7757,0.0,0.0,4.5237,4.6199,4.615,4.4154,4.086,3.6892,3.2106,0.0,2.5468,2.2751,2.2197,2.251,2.3601,2.3015,2.3737,2.7849,0.0,2.9467,0.0,0.0,0.0,0.0,0.0,0.0,0.0,0.0,0.0,0.0,0.0,0.0,4.5053,4.5077,4.5293,4.5838,4.591,4.5381,4.4213,4.4213,4.3505,4.1966,4.1918,4.1653,4.1172,4.1172,4.1148,4.1124,4.1124,0.0,0.0,4.0523,4.0331,4.0282,3.9801,3.932,3.8888,3.8839,3.8503,3.8046,0.0,0.0,0.0,0.0,0.0,0.0,2.2305,2.2519,2.3184,2.5078,2.5488,2.5332,2.4629,2.4023,2.2812,2.0781,0.0,0.0,0.0,0.0,0.0,0.0,0.0,0.0,0.0,0.0,0.0,0.0,0.0,0.0,0.0,0.0,0.0,0.0,0.0,0.0,0.0,0.0,0.0,0.0,0.0,0.0,0.0,0.0,0.0,0.0,0.0,0.0,0.0,0.0,0.0,0.0,2.4987,2.7031,0.0,0.0,3.7156,4.0355,4.2495,4.4611,4.5814,4.3986,4.0499,3.6338,3.1889,0.0,2.4963,2.2678,2.2197,2.2318,2.2751,2.2221,2.227,2.3953,2.4145,0.0,3.0518,0.0,0.0,0.0,0.0,0.0,0.0,0.0,0.0,0.0,0.0,0.0,4.5053,4.5077,4.5029,4.4909,4.5221,4.4924,4.3866,4.3553,4.3072,4.2506,4.1798,4.1557,4.1653,4.1317,4.1172,4.1172,4.1172,0.0,0.0,4.0956,4.086,4.086,4.0643,4.0427,4.0162,3.9537,3.9152,3.8864,0.0,0.0,0.0,0.0,0.0,2.0997,2.2148,2.2441,2.3086,2.4668,2.541,2.5566,2.4941,2.4375,2.3262,2.1309,2.1074,0.0,0.0,0.0,0.0,0.0,0.0,0.0,0.0,0.0,2.0742,2.0605,2.1133,0.0,0.0,0.0,0.0,0.0,0.0,0.0,0.0,0.0,0.0,0.0,0.0,0.0,0.0,0.0,0.0,0.0,0.0,0.0,0.0,0.0,0.0,0.0,2.2318,2.3207,2.5228,2.9581,3.3573,3.7132,3.9585,4.2327,4.4227,4.2928,3.9417,3.5232,0.0,0.0,2.4338,2.2558,2.2197,2.2197,2.2197,2.1885,2.1596,2.1428,0.0,2.3376,2.6767,0.0,0.0,0.0,0.0,0.0,0.0,0.0,0.0,0.0,0.0,0.0,0.0,4.4693,4.4573,4.4525,4.4885,4.4621,4.377,4.3241,4.2904,4.2819,4.1846,4.1533,4.1725,4.1365,4.1172,4.1172,0.0,0.0,0.0,4.1172,4.1172,4.1172,4.1172,4.1076,4.0836,3.9946,3.9513,3.9272,0.0,0.0,0.0,0.0,0.0,0.0,2.1758,2.2246,2.2969,2.4258,2.4434,2.4434,2.4414,2.3672,2.2988,2.2539,2.1309,0.0,0.0,0.0,0.0,0.0,0.0,0.0,0.0,0.0,2.1016,2.0605,2.1486,2.166,2.121,2.168,0.0,0.0,0.0,0.0,0.0,0.0,0.0,0.0,0.0,0.0,2.2197,0.0,0.0,0.0,0.0,0.0,0.0,0.0,0.0,0.0,0.0,2.2197,2.2847,2.6009,3.0013,3.403,3.7156,3.9585,4.11,4.0571,3.7228,3.319,0.0,0.0,2.3529,2.2414,2.2197,2.2197,2.2197,2.2197,2.2005,2.15,2.1837,0.0,2.5757,0.0,0.0,0.0,0.0,0.0,0.0,0.0,0.0,0.0,0.0,0.0,0.0,4.3842,4.401,4.5029,4.5077,4.4813,4.4285,4.3794,4.3265,4.2819,4.2265,4.1701,4.1196,4.1172,4.1172,0.0,0.0,0.0,0.0,4.1172,4.1172,4.1172,4.1172,4.086,4.0331,3.9801,3.9272,3.8815,0.0,0.0,0.0,0.0,0.0,0.0,0.0,2.0898,2.1543,2.2559,2.3184,2.3608,2.3945,2.3223,2.2656,2.2519,2.1875,0.0,0.0,0.0,0.0,0.0,0.0,0.0,0.0,0.0,2.0996,2.1505,2.1738,2.2443,2.3429,2.2381,2.2452,0.0,0.0,0.0,0.0,0.0,0.0,0.0,0.0,2.2414,2.3216,0.0,0.0,0.0,0.0,0.0,0.0,0.0,0.0,0.0,0.0,0.0,0.0,2.34,2.643,3.0013,3.2466,3.4438,3.5665,3.5136,3.2875,3.0158,2.7681,2.5372,2.3505,2.2414,2.2197,2.2197,2.2197,2.2197,2.2246,2.2462,2.2662,0.0,0.0,0.0,0.0,0.0,0.0,0.0,0.0,0.0,0.0,0.0,0.0,0.0,0.0,4.401,4.3673,4.401,4.3697,4.3433,4.3265,4.2735,4.2567,4.2819,4.187,4.1533,4.1725,4.1725,0.0,0.0,0.0,0.0,0.0,4.1172,4.1172,4.1172,4.1172,4.1076,4.086,4.0331,3.9801,3.9296,0.0,0.0,0.0,0.0,0.0,0.0,0.0,2.0293,2.0801,2.1349,2.1836,2.2461,2.3223,2.2539,2.2168,2.248,2.1973,0.0,0.0,0.0,0.0,0.0,0.0,0.0,2.0605,2.0605,2.1036,2.1894,2.2051,2.2836,2.4236,2.309,2.2992,2.3655,2.2388,2.1932,0.0,0.0,0.0,0.0,2.2788,2.2667,2.3015,0.0,0.0,0.0,0.0,0.0,0.0,0.0,0.0,0.0,0.0,0.0,0.0,0.0,2.3833,2.619,2.8691,3.0567,3.1745,3.1625,2.9989,2.7945,2.619,2.4434,2.3023,2.2318,2.2197,2.2197,2.2197,2.2197,2.2221,2.2366,2.239,0.0,0.0,0.0,0.0,0.0,0.0,0.0,0.0,0.0,0.0,0.0,0.0,0.0,0.0,4.3505,4.2928,4.2928,4.2832,4.2819,4.2819,4.2289,4.2193,4.2506,4.1605,4.1365,4.1677,4.1677,0.0,0.0,0.0,0.0,0.0,4.1172,4.1172,4.1172,4.1172,4.1172,4.1124,4.0595,4.0066,3.9561,0.0,0.0,0.0,0.0,0.0,0.0,0.0,2.0254,2.0566,2.0605,2.0605,2.1075,2.2246,2.1619,2.1463,2.2305,0.0,0.0,0.0,0.0,0.0,0.0,0.0,0.0,2.0605,2.0605,2.1075,2.1973,2.2344,2.3032,2.3957,2.3854,2.3384,2.2585,2.2112,2.1427,2.0722,2.1451,2.2438,2.3442,2.3326,2.2754,0.0,0.0,0.0,0.0,0.0,0.0,0.0,0.0,0.0,0.0,0.0,0.0,0.0,0.0,0.0,0.0,0.0,2.7681,2.8907,2.9412,2.8041,2.6297,2.5324,2.3592,0.0,2.2197,2.2197,2.2197,2.2246,2.2221,2.2077,2.1692,0.0,0.0,0.0,0.0,0.0,0.0,0.0,0.0,0.0,0.0,0.0,0.0,0.0,0.0,0.0,4.2591,4.2097,4.2097,4.2482,4.2699,4.2699,4.2217,4.1942,4.1966,4.1485,4.1244,4.1244,4.1268,0.0,0.0,0.0,0.0,0.0,4.1172,4.1172,4.1172,4.1172,4.1172,4.1124,4.0643,4.009,3.9609,0.0,0.0,0.0,0.0,0.0,0.0,0.0,0.0,0.0,0.0,2.0605,2.0723,2.1036,2.084,2.0801,0.0,0.0,0.0,0.0,0.0,0.0,0.0,0.0,0.0,2.0605,2.0605,2.1309,2.2808,2.2617,2.3632,2.5773,2.44,2.3672,2.3472,2.2383,2.1749,2.1548,2.1718,2.261,2.3853,2.2894,2.2798,0.0,0.0,0.0,0.0,2.2197,2.2197,0.0,0.0,0.0,0.0,0.0,0.0,0.0,0.0,2.2197,2.2366,2.3111,0.0,2.3905,2.4025,2.3664,2.3232,0.0,2.2534,2.2197,2.2197,2.2197,2.2318,2.2758,2.2462,2.2534,2.3616,0.0,0.0,0.0,0.0,0.0,0.0,0.0,0.0,0.0,0.0,0.0,0.0,0.0,0.0,0.0,4.3144,4.2627,4.2627,4.1976,4.1557,4.1557,4.1437,4.1581,4.1966,4.1846,4.1774,4.1798,4.2265,0.0,0.0,0.0,0.0,4.1172,4.1172,4.1172,4.1172,4.1172,4.1172,4.1172,4.1052,4.0403,3.9609,0.0,0.0,0.0,0.0,0.0,0.0,0.0,0.0,0.0,0.0,0.0,0.0,0.0,0.0,0.0,0.0,0.0,0.0,0.0,0.0,0.0,0.0,0.0,2.0605,2.0605,2.0762,2.1621,2.3101,2.3105,2.4137,2.6046,2.4901,2.4078,2.3398,2.1964,2.147,2.1832,2.2172,2.2846,2.3576,2.3618,0.0,0.0,0.0,0.0,0.0,2.227,2.2197,0.0,2.2197,2.2197,2.2197,0.0,0.0,0.0,0.0,2.2197,2.2197,2.2197,2.2197,2.2197,2.2197,2.2197,2.2197,2.2197,2.2197,2.2197,2.2197,2.2197,2.227,2.2558,2.239,0.0,0.0,2.441,0.0,0.0,0.0,0.0,0.0,0.0,0.0,0.0,0.0,0.0,0.0,0.0,0.0,0.0,4.2832,4.2338,4.2038,4.1485,4.1172,4.1172,4.1172,4.1461,4.1966,4.1966,4.1966,4.199,4.2338,4.1966,0.0,0.0,0.0,4.1172,4.1172,4.1172,4.1172,4.1172,4.1172,4.1172,4.1172,4.0523,3.9609,0.0,0.0,0.0,0.0,0.0,0.0,0.0,0.0,0.0,0.0,0.0,0.0,0.0,0.0,0.0,0.0,0.0,0.0,0.0,0.0,0.0,0.0,2.0644,2.0664,2.0801,2.1133,2.1951,2.3296,2.3906,2.4785,2.5869,2.5605,2.4629,2.3023,2.1484,2.1267,2.2021,2.2585,2.3032,2.3475,2.4636,0.0,0.0,0.0,0.0,0.0,0.0,0.0,0.0,2.2197,2.2197,2.2197,2.2197,0.0,0.0,0.0,0.0,0.0,2.2294,2.2318,2.2294,2.2221,2.2197,2.2197,2.2197,2.2197,2.2197,2.2197,2.2197,2.227,2.251,2.2606,0.0,0.0,0.0,0.0,0.0,0.0,0.0,0.0,0.0,0.0,0.0,0.0,0.0,0.0,0.0,0.0,0.0,4.2313,4.1725,4.1196,4.1172,4.1172,4.1172,4.1172,4.1461,4.1966,4.1966,4.1966,4.1966,4.1966,4.1677,0.0,0.0,0.0,4.1172,4.1172,4.1172,4.1172,4.1172,4.1172,4.1172,4.1172,4.0571,3.9705,0.0,0.0,0.0,0.0,0.0,0.0,0.0,0.0,0.0,0.0,0.0,0.0,0.0,0.0,0.0,0.0,0.0,0.0,0.0,0.0,0.0,2.1093,2.0762,2.0957,2.166,2.1758,2.2578,2.4219,2.541,2.6269,2.6816,2.7129,2.5849,2.3125,2.2129,2.2127,2.2771,2.2209,2.3121,2.4909,2.4456,0.0,0.0,0.0,0.0,0.0,0.0,0.0,0.0,2.2197,2.2197,2.2197,2.2197,0.0,0.0,0.0,0.0,0.0,2.2727,2.2903,2.2782,2.2294,2.2197,2.2197,2.2197,2.2197,2.2197,2.2197,2.2197,2.2606,2.3929,2.453,2.53,0.0,0.0,0.0,0.0,0.0,0.0,0.0,0.0,0.0,0.0,0.0,0.0,0.0,0.0,0.0,0.0,4.2313,4.1725,4.1196,4.1172,4.1172,4.1172,4.1172,4.1461,4.1966,4.1966,4.1966,4.1966,4.1966,4.1677,0.0,0.0,4.1172,4.1172,4.1172,4.1172,4.1172,4.1172,4.1172,4.1172,4.1172,4.0787,4.0138,0.0,0.0,0.0,0.0,0.0,0.0,0.0,0.0,0.0,0.0,0.0,0.0,0.0,0.0,0.0,0.0,0.0,0.0,0.0,0.0,2.1307,2.1582,2.1387,2.1505,2.1875,2.2559,2.3633,2.5089,2.6445,2.7519,2.8359,2.7187,2.561,2.3737,2.2654,2.2475,2.2995,2.301,2.3672,2.4671,0.0,0.0,0.0,0.0,0.0,0.0,0.0,0.0,0.0,0.0,2.2197,2.2197,2.2197,0.0,0.0,0.0,0.0,0.0,2.2486,2.2558,2.263,2.2999,2.2855,2.2558,2.227,2.2197,2.227,2.2558,2.2606,2.3087,0.0,0.0,2.7801,3.1364,0.0,0.0,0.0,0.0,0.0,0.0,0.0,0.0,0.0,0.0,0.0,0.0,0.0,0.0,0.0,0.0,4.1725,4.1196,4.1172,4.1172,4.1172,4.1172,4.1461,4.1966,4.1966,4.1966,4.1966,4.1966,4.1677,4.1172,0.0,4.1172,4.1172,4.1172,4.1172,4.1172,4.1172,4.1172,4.1148,4.086,4.0427,3.985,0.0,0.0,0.0,0.0,0.0,0.0,0.0,0.0,0.0,0.0,0.0,0.0,0.0,0.0,0.0,0.0,0.0,0.0,0.0,2.1385,2.1639,2.2012,2.2227,2.2383,2.248,2.3633,2.4941,2.6278,2.7832,2.8965,2.9668,2.7305,2.5563,2.442,2.3227,2.2903,2.329,2.3854,2.4217,2.442,0.0,0.0,0.0,0.0,0.0,0.0,0.0,0.0,0.0,0.0,0.0,0.0,0.0,0.0,0.0,2.2197,2.2197,2.2221,2.2342,2.2366,2.2558,2.3408,2.3408,2.3264,2.3448,2.3496,2.3713,2.4482,2.4554,0.0,0.0,2.7945,0.0,0.0,0.0,0.0,0.0,0.0,0.0,0.0,0.0,0.0,0.0,0.0,0.0,0.0,0.0,0.0,0.0,0.0,4.1605,4.1196,4.1172,4.1172,4.1172,4.1172,4.1389,4.1774,4.1677,4.1677,4.1774,4.1653,4.1461,4.1172,4.1172,4.1172,4.1172,4.1172,4.1172,4.1172,4.1172,4.1172,4.1124,4.0739,4.0331,3.9898,0.0,0.0,0.0,0.0,0.0,0.0,0.0,0.0,0.0,0.0,0.0,0.0,0.0,0.0,0.0,0.0,0.0,0.0,0.0,2.1973,2.2441,2.2461,2.3223,2.3828,2.4219,2.5089,2.6426,2.8105,3.0215,3.0859,3.0117,2.834,2.6596,2.4913,2.401,2.3774,2.4,2.4072,2.4528,2.5229,2.5264,0.0,0.0,0.0,0.0,0.0,0.0,0.0,0.0,0.0,0.0,0.0,0.0,0.0,2.2197,2.2197,2.2197,2.2294,2.283,2.2919,2.2975,2.3047,2.3408,2.4372,2.6767,2.7282,2.7753,2.9268,2.9196,2.9027,0.0,3.1841,0.0,0.0,0.0,0.0,0.0,0.0,0.0,0.0,0.0,0.0,0.0,0.0,0.0,0.0,0.0,0.0,0.0,0.0,0.0,4.1172,4.1172,4.1172,4.1172,4.1172,4.1196,4.122,4.0739,4.0763,4.122,4.0739,4.0763,4.1172,4.1172,4.1172,4.1172,4.1172,4.1172,4.1172,4.1172,4.1172,4.1172,4.1148,4.11,4.1004,0.0,0.0,0.0,0.0,0.0,0.0,0.0,0.0,0.0,0.0,0.0,0.0,0.0,0.0,0.0,0.0,0.0,0.0,0.0,2.2324,2.2617,2.2847,2.3477,2.4121,2.4805,2.6211,2.791,2.9902,3.0996,3.1268,3.0732,2.864,2.6927,2.5466,2.5057,2.4569,2.4108,2.4636,2.5016,2.53,2.53,2.53,0.0,0.0,0.0,0.0,0.0,0.0,0.0,0.0,2.2197,2.2197,2.2197,2.2197,2.2197,2.2197,2.2197,2.2246,2.2438,2.3207,2.4025,2.4338,2.5083,2.5997,2.697,2.769,2.8667,3.0254,3.0951,3.1649,0.0,0.0,0.0,0.0,0.0,0.0,0.0,0.0,0.0,0.0,0.0,0.0,0.0,0.0,0.0,0.0,0.0,0.0,0.0,0.0,0.0,4.1172,4.086,4.0691,4.0691,4.0355,4.021,4.021,4.0331,4.0331,4.0186,3.9994,4.0018,4.021,4.021,4.021,4.0234,4.0547,4.0691,4.0739,4.1052,4.098,4.0739,4.1076,4.098,4.0667,0.0,0.0,0.0,0.0,0.0,0.0,0.0,0.0,0.0,0.0,0.0,0.0,0.0,0.0,0.0,0.0,0.0,0.0,2.25,2.2637,2.2789,2.3081,2.3555,2.4316,2.5517,2.7051,2.8789,3.0664,3.1584,3.1549,3.0714,2.9182,2.7738,2.6452,2.6215,2.5785,2.5252,2.5469,2.5468,2.53,2.53,2.53,0.0,0.0,0.0,0.0,0.0,0.0,0.0,0.0,2.2197,2.2197,2.2197,2.2197,2.2197,2.2197,2.2197,2.2197,2.2197,2.3207,2.4362,2.4723,2.6142,2.7666,2.8715,2.9364,3.0398,3.2659,3.3452,3.3958,3.4703,0.0,0.0,0.0,0.0,0.0,0.0,0.0,0.0,0.0,0.0,0.0,0.0,0.0,0.0,0.0,0.0,0.0,0.0,0.0,0.0,0.0,4.0331,4.0138,4.0138,3.9777,3.9513,3.9369,3.9729,3.9801,3.9609,3.9609,3.9609,3.9609,3.9777,3.985,3.9874,4.0234,4.0499,4.0691,4.1052,4.0956,4.0691,4.1052,4.0956,4.0643,0.0,0.0,0.0,0.0,0.0,0.0,0.0,0.0,0.0,0.0,0.0,0.0,0.0,0.0,0.0,0.0,0.0,0.0,2.2519,2.2867,2.3101,2.3101,2.3555,2.459,2.6378,2.7669,2.8906,3.0195,3.2122,3.1978,2.9891,3.0013,2.9288,2.7894,2.7431,2.7392,2.7594,2.655,2.5781,2.53,2.53,2.53,2.53,0.0,0.0,0.0,0.0,0.0,0.0,0.0,2.2197,2.2197,2.2197,2.2197,2.2197,2.2197,2.2197,2.2221,2.2221,2.3023,2.3842,2.3842,2.619,2.9364,3.2563,3.2875,3.3549,3.7228,3.7156,3.6098,3.504,3.5713,0.0,0.0,0.0,0.0,0.0,0.0,0.0,0.0,0.0,0.0,0.0,0.0,0.0,0.0,0.0,0.0,0.0,0.0,0.0,0.0,3.9609,3.9609,3.9609,3.9585,3.932,3.8815,3.8815,3.908,3.9585,3.9585,3.9585,3.9609,4.0138,4.0379,4.0379,4.0379,4.0691,4.1172,4.1172,4.1172,4.1172,4.1172,4.1172,4.1172,0.0,0.0,0.0,0.0,0.0,0.0,0.0,0.0,0.0,0.0,0.0,0.0,0.0,0.0,0.0,0.0,0.0,0.0,2.2906,2.3023,2.3101,2.3101,2.4155,2.495,2.5478,2.7683,2.9279,3.0195,3.1111,3.0832,2.9373,2.8079,2.7707,2.8034,2.7687,2.7065,2.6278,2.616,2.5781,2.53,2.53,2.53,2.53,0.0,0.0,0.0,0.0,0.0,0.0,0.0,0.0,0.0,2.2197,2.2197,2.2197,2.2197,2.2727,2.3336,2.3336,2.4891,2.6647,2.7007,2.8643,3.0807,3.326,3.3428,3.3885,3.6819,3.7781,3.7878,3.718,0.0,0.0,0.0,0.0,0.0,0.0,0.0,0.0,0.0,0.0,0.0,0.0,0.0,0.0,0.0,0.0,0.0,0.0,0.0,0.0,0.0,3.9248,3.9056,3.9056,3.8647,3.8383,3.8238,3.8238,3.831,3.8455,3.8455,3.8455,3.8479,3.8623,3.8695,3.8719,3.9128,3.9826,4.0643,4.0643,4.086,4.1172,4.1172,4.1172,4.1172,0.0,0.0,0.0,0.0,0.0,0.0,0.0,0.0,0.0,0.0,2.1719,2.1973,0.0,0.0,0.0,0.0,0.0,0.0,0.0,2.3319,2.3256,2.3647,2.4062,2.471,2.5599,2.8203,2.9289,2.8675,2.9943,2.9913,2.8762,2.8647,2.8758,2.9058,2.9864,2.9308,2.7747,2.7487,2.6574,2.53,2.53,2.53,2.53,0.0,0.0,0.0,0.0,0.0,0.0,0.0,0.0,0.0,2.2197,2.2197,2.2197,2.2197,2.2975,2.3794,2.3794,2.5709,2.7897,2.8643,3.0494,3.2635,3.4535,0.0,0.0,0.0,3.8815,3.908,3.896,0.0,0.0,0.0,0.0,0.0,0.0,0.0,0.0,0.0,0.0,0.0,0.0,0.0,0.0,0.0,0.0,0.0,0.0,0.0,0.0,0.0,3.8647,3.8479,3.8479,3.8142,3.7974,3.7974,3.7974,3.7974,3.7998,3.8214,3.819,3.7998,3.8214,3.831,3.8359,3.8912,3.9513,4.009,4.009,4.0282,4.0595,4.0787,4.086,4.086,0.0,0.0,2.0664,2.0664,0.0,0.0,0.0,0.0,0.0,0.0,2.1973,2.1992,0.0,0.0,0.0,0.0,0.0,0.0,0.0,0.0,2.3517,2.4466,2.3777,2.4295,2.631,2.8838,2.8907,2.6468,2.87,2.9154,2.7941,3.0394,3.1165,3.0593,3.2723,3.2592,3.0778,2.9532,2.7584,2.53,2.53,2.53,2.53,2.53,0.0,0.0,0.0,0.0,0.0,0.0,0.0,0.0,2.2197,2.2197,2.2197,2.2197,2.2975,2.3818,2.3914,2.5853,2.8138,2.9292,3.201,0.0,3.629,3.8214,3.9777,4.0114,0.0,3.9946,0.0,0.0,0.0,0.0,0.0,0.0,0.0,0.0,0.0,0.0,0.0,0.0,0.0,0.0,0.0,0.0,0.0,0.0,0.0,0.0,0.0,3.7926,3.7902,3.7926,3.7974,3.7974,3.7974,0.0,3.7974,3.7974,3.7998,3.8503,3.8455,3.8022,3.8527,3.8743,3.8767,3.9272,3.9489,3.9537,3.9537,3.9561,3.9657,4.0186,4.0355,4.0331,0.0,0.0,2.1094,2.1094,0.0,0.0,0.0,0.0,0.0,0.0,0.0,0.0,0.0,2.2906,0.0,0.0,0.0,0.0,0.0,0.0,2.3517,2.4466,2.4956,2.5423,2.5937,2.7205,2.7609,2.7018,2.7793,2.7522,2.6321,2.8086,2.9806,3.1402,3.1018,3.0613,3.011,2.7777,2.6214,2.53,2.53,2.53,2.53,2.53,2.518,0.0,0.0,0.0,0.0,0.0,0.0,0.0,2.2197,2.2197,2.2197,2.2197,2.2975,2.3986,2.4747,2.6935,2.9412,3.1336,3.4487,3.7348,3.8118,3.9296,3.9898,3.8743,4.009,0.0,0.0,0.0,0.0,0.0,0.0,0.0,0.0,0.0,0.0,0.0,0.0,0.0,0.0,0.0,0.0,0.0,0.0,0.0,0.0,0.0,0.0,3.7372,3.7372,3.7565,3.7974,3.7974,3.7974,0.0,3.7974,3.7974,3.7998,3.8094,3.8094,3.7998,3.8118,3.8166,3.8166,3.8286,3.8599,3.8984,3.8984,3.9248,3.9657,4.0186,4.0138,3.9898,0.0,0.0,0.0,0.0,0.0,0.0,0.0,0.0,0.0,0.0,0.0,0.0,0.0,2.3101,0.0,0.0,2.3101,0.0,0.0,0.0,2.3517,2.4466,2.5572,2.627,2.6464,2.7208,2.7341,2.6818,2.6801,2.6802,2.6802,2.8141,2.9713,3.1358,3.1503,3.1042,2.9989,2.833,2.6743,2.53,2.53,2.53,2.53,2.53,2.5155,2.4819,2.4083,0.0,0.0,0.0,0.0,0.0,0.0,0.0,2.2197,2.2197,2.2975,2.4035,2.5035,2.7079,0.0,3.314,0.0,3.8527,3.908,3.9633,3.985,3.9248,0.0,0.0,0.0,0.0,0.0,0.0,0.0,0.0,0.0,0.0,0.0,0.0,0.0,0.0,0.0,0.0,0.0,0.0,0.0,0.0,0.0,3.7324,3.73,3.7565,3.7324,3.7445,3.7974,3.7733,3.7733,3.7974,3.7974,3.7853,3.7613,3.7853,3.7974,3.7974,3.7974,3.7974,3.7974,3.7974,3.8142,3.8407,3.8407,3.8599,3.8936,3.9729,3.9681,3.9369,0.0,0.0,0.0,0.0,0.0,0.0,0.0,0.0,0.0,0.0,0.0,0.0,0.0,0.0,2.3101,0.0,0.0,0.0,0.0,0.0,0.0,2.4701,2.6,2.6867,2.7185,2.7548,2.7359,2.6625,2.6292,2.6787,2.8068,2.906,3.005,3.1043,3.2243,3.1697,2.9893,2.91,2.7416,2.53,2.53,2.53,2.53,2.53,2.5035,2.4578,2.4073,2.3649,2.3159,2.263,0.0,0.0,0.0,0.0,2.2197,2.2197,2.2823,2.377,2.4771,2.6935,2.9989,3.4487,3.7084,0.0,3.92,3.9417,3.9585,0.0,0.0,0.0,0.0,0.0,0.0,0.0,0.0,0.0,0.0,0.0,0.0,0.0,0.0,0.0,0.0,0.0,0.0,0.0,0.0,0.0,3.7829,3.7421,3.7397,3.7829,3.7421,3.7445,3.7974,3.7541,3.7541,3.7974,3.7974,3.7757,3.7348,3.7685,3.7781,3.7709,3.7805,3.7853,3.7853,3.795,3.7974,3.7974,3.7974,3.7974,3.8094,3.9104,3.9128,3.8815,0.0,0.0,0.0,0.0,0.0,0.0,0.0,0.0,0.0,0.0,2.3101,2.3101,0.0,0.0,0.0,2.3101,2.3101,2.3517,2.4445,0.0,0.0,2.5652,2.6614,2.7172,2.7185,2.6818,2.6923,2.7511,2.7466,2.7989,2.9111,2.9386,3.0033,3.0898,3.0644,3.011,2.9268,2.7344,2.6045,2.53,2.53,2.53,2.53,2.53,2.5276,2.5131,2.4602,2.4386,2.4242,2.377,2.3288,0.0,0.0,0.0,2.2197,2.2197,2.2294,2.263,2.3722,0.0,3.1384,0.0,3.6531,3.7541,0.0,0.0,0.0,0.0,0.0,0.0,0.0,0.0,0.0,0.0,0.0,0.0,0.0,0.0,0.0,0.0,0.0,0.0,0.0,0.0,0.0,0.0,0.0,0.0,3.7324,3.7228,3.7228,3.73,3.7228,3.7445,3.7974,3.7902,3.7902,3.7974,3.7974,3.795,3.7853,3.7469,3.706,3.6651,3.7108,3.73,3.7324,3.7781,3.7974,3.7974,3.7974,3.7974,3.8046,3.8695,3.8575,3.8238,0.0,0.0,0.0,0.0,0.0,0.0,0.0,0.0,0.0,0.0,0.0,2.3101,0.0,0.0,0.0,2.382,2.3864,2.4274,2.5168,2.5966,2.6464,2.6588,2.6958,2.7429,2.7938,2.738,2.7174,2.7234,2.7546,2.8114,2.8883,2.954,3.0224,3.0874,3.0013,2.9196,2.833,2.7103,2.6069,2.53,2.53,2.53,2.53,2.53,2.53,2.5228,2.4664,2.4496,2.4434,2.3986,2.3649,2.3408,2.3095,0.0,0.0,0.0,2.2197,2.2486,2.3833,2.7031,3.047,0.0,3.4438,3.6074,3.6916,0.0,0.0,0.0,0.0,0.0,0.0,0.0,0.0,0.0,0.0,0.0,0.0,0.0,0.0,0.0,0.0,0.0,0.0,0.0,0.0,0.0,0.0,3.7132,3.7204,3.6627,3.6579,3.718,3.6627,3.6699,3.7541,3.6964,3.6819,3.7108,3.7685,3.7517,3.6651,3.6723,3.6795,3.6843,3.6771,3.6916,3.7204,3.7445,3.7709,3.7974,3.7974,3.7974,3.8046,3.8623,3.8455,3.8142,0.0,0.0,0.0,0.0,0.0,0.0,0.0,0.0,0.0,0.0,0.0,0.0,0.0,0.0,0.0,0.0,2.4829,2.521,2.6069,2.6248,2.6658,2.751,2.7394,2.7716,2.8459,2.7834,2.7282,2.6898,2.7282,2.7993,2.8931,2.9869,3.0711,3.1432,3.0086,2.8907,2.7834,2.7186,2.6417,2.5685,2.542,2.53,2.53,2.53,2.53,2.5252,2.4867,2.4723,0.0,0.0,0.0,0.0,0.0,0.0,0.0,0.0,0.0,2.251,0.0,0.0,2.8643,3.011,3.2274,3.4366,0.0,0.0,0.0,0.0,0.0,0.0,0.0,0.0,0.0,0.0,0.0,0.0,0.0,0.0,0.0,0.0,0.0,0.0,0.0,0.0,0.0,0.0,0.0,3.6579,3.6964,3.6122,3.5978,3.6771,3.5905,3.5857,3.6771,3.6146,3.6026,3.6411,3.7204,3.7036,3.6026,3.6146,3.6483,3.6964,3.6435,3.6507,3.7012,3.7132,3.7517,3.7974,3.7974,3.7974,3.8046,3.8455,3.8431,3.831,0.0,0.0,0.0,0.0,0.0,0.0,0.0,0.0,0.0,0.0,0.0,0.0,2.4423,2.5168,2.5694,2.5735,2.5735,2.611,2.7062,2.7427,2.7876,2.8395,2.7963,0.0,2.8498,2.7474,2.6922,2.6898,2.6922,2.8017,3.0013,3.0567,3.1673,3.3068,3.0975,2.946,2.8402,2.733,2.6873,2.6729,2.5733,2.53,2.53,2.53,2.53,2.53,2.5276,0.0,0.0,0.0,0.0,0.0,0.0,0.0,0.0,0.0,0.0,0.0,0.0,2.465,0.0,2.8739,3.0615,0.0,0.0,0.0,0.0,0.0,0.0,0.0,0.0,0.0,0.0,0.0,0.0,0.0,0.0,0.0,0.0,0.0,0.0,0.0,0.0,0.0,0.0,0.0,0.0,3.6411,3.6435,3.593,3.5641,3.5689,3.516,3.5087,3.5689,3.6146,3.6386,3.6411,3.6459,3.6699,3.7084,3.6098,3.5954,3.6411,3.5881,3.5954,3.6483,3.6988,3.7517,3.7974,3.7974,3.7974,3.7974,3.8022,3.8359,3.8791,0.0,0.0,0.0,0.0,0.0,0.0,0.0,0.0,0.0,0.0,0.0,0.0,0.0,2.561,2.6027,2.6629,2.7203,2.7672,2.8018,2.7821,2.7969,2.8498,2.8017,2.7969,2.8498,2.745,2.6898,2.6898,2.6574,2.7152,2.857,2.91,2.9845,3.0735,3.0639,2.9821,2.845,2.7354,2.6489,2.5853,2.5468,2.53,2.53,2.53,2.53,0.0,0.0,0.0,0.0,0.0,0.0,0.0,0.0,0.0,0.0,0.0,0.0,0.0,0.0,0.0,0.0,2.5901,2.744,2.9003,0.0,0.0,0.0,0.0,0.0,0.0,0.0,0.0,0.0,0.0,0.0,0.0,0.0,0.0,0.0,0.0,0.0,0.0,0.0,0.0,0.0,0.0,0.0,0.0,3.54,3.4583,3.427,3.4534,3.4102,3.3933,3.4126,3.4631,3.4727,3.4414,3.5425,3.5833,3.5689,3.5978,3.605,3.5881,3.5689,3.5737,3.593,3.6459,3.6988,3.7517,3.7853,3.7974,3.7974,3.7974,3.8334,3.8767,0.0,0.0,0.0,0.0,0.0,0.0,0.0,0.0,0.0,2.5777,0.0,0.0,0.0,0.0,2.6958,2.7592,2.8179,2.8522,2.8522,2.8017,2.7834,2.8234,2.7882,2.7762,2.7969,2.7258,2.6801,2.6609,2.6286,2.6647,2.769,2.8258,2.8883,2.9581,2.9941,2.9484,2.845,2.7354,2.6489,2.5829,2.5661,2.5564,2.5636,2.6166,0.0,0.0,0.0,0.0,0.0,0.0,0.0,0.0,0.0,0.0,0.0,0.0,0.0,0.0,2.2197,0.0,0.0,0.0,0.0,2.6465,0.0,0.0,0.0,0.0,0.0,0.0,0.0,0.0,0.0,0.0,0.0,0.0,0.0,0.0,0.0,0.0,0.0,0.0,0.0,0.0,0.0,0.0,0.0,0.0,3.451,3.3573,3.3092,3.3236,3.3092,3.302,3.302,3.3525,3.3621,3.3308,3.4342,3.4847,3.4799,3.5376,3.5617,3.5617,3.5425,3.5449,3.5665,3.6194,3.6723,3.7252,3.7781,3.7974,3.7998,3.819,3.8503,3.8815,0.0,0.0,0.0,0.0,0.0,0.0,0.0,0.0,2.5861,2.5861,0.0,0.0,0.0,0.0,0.0,2.8522,2.8522,2.8522,2.8522,2.8017,2.769,2.7714,2.769,2.745,2.6922,2.6898,2.6633,2.6093,2.6069,2.6622,2.7618,2.8162,2.8979,2.9917,2.8907,2.845,2.8378,2.7306,2.6873,2.6825,2.6358,2.6166,2.6358,0.0,0.0,0.0,2.9797,3.0182,0.0,3.0206,0.0,0.0,0.0,0.0,0.0,0.0,0.0,0.0,0.0,0.0,0.0,0.0,0.0,0.0,2.709,0.0,0.0,0.0,0.0,0.0,0.0,0.0,0.0,0.0,0.0,0.0,0.0,0.0,0.0,0.0,0.0,0.0,0.0,0.0,0.0,0.0,0.0,3.3477,3.3934,3.3068,3.2274,3.1741,3.2226,3.2491,3.2491,3.2971,3.3236,3.3236,3.326,3.3813,3.4751,3.4246,3.4583,3.5593,3.5064,3.5087,3.5641,3.617,3.6699,3.7228,3.7757,3.7974,3.8046,3.8599,3.8815,3.896,0.0,0.0,0.0,0.0,0.0,0.0,2.5672,2.6829,2.7753,0.0,0.0,0.0,2.8661,2.9289,2.9484,2.9124,2.9076,2.8907,2.8546,2.8017,2.7858,2.8282,2.7921,2.7618,2.7474,2.709,2.6633,2.6093,2.5709,2.5685,2.5973,2.6117,2.655,2.7176,2.6887,2.6767,2.6743,2.6454,2.6334,2.6406,2.744,2.8065,0.0,0.0,0.0,0.0,0.0,3.2394,3.2466,0.0,3.1384,2.8955,0.0,0.0,0.0,0.0,0.0,0.0,2.2294,0.0,0.0,0.0,0.0,0.0,2.4554,2.5372,0.0,0.0,0.0,0.0,0.0,0.0,0.0,0.0,0.0,0.0,0.0,0.0,0.0,0.0,0.0,0.0,0.0,0.0,0.0,0.0,3.3092,3.2947,3.3477,3.3212,3.2827,3.2298,3.2418,3.2298,3.1958,3.2078,3.2151,3.2175,3.2515,3.326,3.4222,3.4462,3.4919,3.5617,3.5449,3.5256,3.5039,3.5617,3.6146,3.6675,3.7204,3.7637,3.7998,3.8166,3.8479,3.8815,0.0,0.0,2.5338,2.4668,0.0,2.7539,2.6932,2.7955,2.8835,0.0,0.0,0.0,2.9581,3.011,3.011,2.9364,2.9292,2.9076,2.8546,2.821,2.805,2.8186,2.8089,2.781,2.7378,2.7042,2.6633,2.6093,2.5564,2.53,2.53,2.53,2.5468,2.5757,2.5757,2.5757,2.5757,2.5757,0.0,0.0,2.756,0.0,0.0,3.1312,3.201,0.0,0.0,0.0,3.4342,3.4847,3.3284,0.0,0.0,0.0,0.0,0.0,0.0,0.0,0.0,0.0,0.0,0.0,0.0,0.0,2.3288,2.3833,2.4843,0.0,0.0,0.0,0.0,0.0,0.0,0.0,0.0,0.0,0.0,0.0,0.0,0.0,0.0,0.0,0.0,0.0,0.0,3.2947,3.2466,3.2394,3.2923,3.2971,3.2827,3.2515,3.2274,3.203,3.1717,3.1717,3.1717,3.1717,3.201,3.2587,3.3382,3.4102,3.4631,3.4943,3.5425,3.5328,3.4799,3.516,3.5593,3.6146,3.6892,3.7372,3.7709,3.8166,3.8383,3.8479,0.0,0.0,2.628,2.5962,2.7404,2.8354,2.7621,2.858,2.9388,0.0,2.9436,2.9653,3.0134,3.0681,3.0567,2.9556,2.9412,2.9172,2.8619,2.8546,2.8306,2.7786,2.8258,2.8041,2.6994,2.6922,2.6633,2.6093,2.5564,2.53,2.53,2.53,2.53,2.53,2.53,2.53,2.53,2.53,0.0,2.7762,2.7522,2.8362,0.0,0.0,3.3068,3.3332,3.5713,3.6266,3.5905,3.6026,3.4511,0.0,0.0,0.0,0.0,0.0,2.429,0.0,0.0,0.0,0.0,0.0,0.0,0.0,2.3039,2.3457,2.4155,0.0,0.0,0.0,0.0,0.0,0.0,0.0,0.0,0.0,0.0,0.0,0.0,0.0,0.0,0.0,0.0,3.1985,3.191,3.237,3.201,3.203,3.2466,3.2563,3.2563,3.2491,3.2054,3.1765,3.1717,3.1717,3.1717,3.1717,3.1717,3.1985,3.2611,3.3502,3.3958,3.4126,3.5112,3.5256,3.4775,3.4775,3.5136,3.5713,3.6723,3.7132,3.7324,3.8359,3.8407,3.8118,2.511,2.6665,2.7906,2.7377,2.8307,2.9107,2.892,2.9498,2.9941,2.9941,3.0302,3.0657,3.0711,3.1235,3.1308,3.0615,3.0182,2.9701,2.9172,2.8739,2.8474,2.8354,2.845,2.821,2.7546,2.7114,2.6633,2.6093,2.5564,2.53,2.53,2.53,2.53,2.53,2.53,2.53,2.53,2.53,0.0,2.8498,3.0086,0.0,3.3334,3.5954,3.6651,3.6411,3.7348,3.7613,3.7156,3.4727,3.3573,3.2539,0.0,0.0,0.0,0.0,0.0,0.0,0.0,0.0,0.0,0.0,0.0,0.0,2.4131,2.3739,2.3732,0.0,0.0,0.0,0.0,0.0,0.0,0.0,0.0,0.0,0.0,0.0,0.0,0.0,0.0,0.0,0.0,3.1985,3.1741,3.1862,3.2154,3.2394,3.2491,3.2899,3.2947,3.2515,3.2394,3.213,3.1717,3.1717,3.1717,3.1717,3.1717,3.2223,3.314,3.3356,3.3885,3.4631,3.4895,3.4919,3.4775,3.4775,3.5136,3.5689,3.6314,3.6819,3.7276,3.7902,3.807,3.8022,2.5883,2.71,2.8041,2.7738,2.8811,2.9701,2.9701,3.0134,3.0609,3.0874,3.1336,3.1697,3.1697,3.1913,3.1813,3.0995,3.0639,3.0134,2.934,2.9051,2.8787,2.8522,2.8522,2.8378,2.8074,2.7546,2.7018,2.6526,2.5973,2.5564,2.53,2.53,2.53,2.53,2.53,2.53,2.5372,0.0,2.7753,2.9749,3.0278,0.0,3.3525,3.5905,3.6651,3.6555,3.7613,3.7974,3.7589,3.4944,3.4054,0.0,0.0,2.9412,2.8017,0.0,2.6166,2.4867,0.0,0.0,0.0,2.4145,0.0,0.0,0.0,2.3482,2.3409,0.0,0.0,0.0,0.0,0.0,0.0,0.0,0.0,0.0,0.0,0.0,0.0,0.0,0.0,0.0,0.0,3.1192,3.1019,3.1308,3.2034,3.2491,3.2491,3.2755,3.2779,3.2515,3.2226,3.1982,3.1717,3.1717,3.1717,3.1717,3.1982,3.237,3.2923,3.3693,3.4198,3.4414,3.4943,3.5064,3.4775,3.4775,3.4943,3.5231,3.5809,3.6338,3.6867,3.7397,3.7757,3.7974,2.6946,2.7474,2.7834,2.7834,2.91,3.0086,3.0086,3.0615,3.1259,3.1789,3.213,3.2466,3.2755,3.2515,3.2202,3.1817,3.1259,3.0615,0.0,0.0,2.9051,2.8522,2.8522,2.8522,2.8522,2.7858,2.733,2.6898,2.6262,2.5733,2.53,2.53,2.53,2.5324,2.542,2.5564,2.5877,0.0,0.0,3.1019,0.0,3.124,3.3044,3.5232,3.5833,3.5689,3.7372,3.7974,3.7685,3.5785,0.0,3.4968,3.3212,3.1023,0.0,0.0,0.0,0.0,0.0,0.0,0.0,0.0,0.0,2.4371,0.0,0.0,0.0,0.0,0.0,0.0,0.0,0.0,0.0,0.0,0.0,0.0,0.0,0.0,0.0,0.0,0.0,0.0,0.0,3.0302,3.0422,3.0898,3.1793,3.2346,3.2346,3.2346,3.2346,3.2346,3.1958,3.1717,3.1717,3.1717,3.1717,3.1717,3.2226,3.2563,3.2707,3.4054,3.4462,3.4198,3.5039,3.5232,3.4775,3.4775,3.4775,3.4823,3.54,3.593,3.6459,3.6988,3.7517,3.7974,2.7498,2.8026,2.8426,2.8426,2.934,3.0086,0.0,0.0,3.1813,3.2322,3.2034,3.2298,3.367,3.2611,0.0,0.0,0.0,0.0,3.2082,0.0,0.0,0.0,2.8522,2.8522,2.8522,2.7498,2.697,2.6898,2.5901,2.5372,2.53,2.53,2.53,0.0,2.5805,0.0,0.0,0.0,2.9629,0.0,3.2971,3.3598,0.0,3.6723,3.6555,3.5184,3.7252,3.7974,3.7805,0.0,3.6531,3.6483,0.0,3.2322,3.1067,0.0,0.0,0.0,0.0,0.0,0.0,0.0,2.6547,0.0,0.0,0.0,0.0,0.0,0.0,0.0,0.0,0.0,0.0,0.0,0.0,0.0,0.0,0.0,0.0,0.0,0.0,0.0,0.0,0.0,3.0807,3.0922,3.1476,3.1789,3.1789,3.1789,3.1789,3.1789,3.1741,3.1717,3.1717,3.1717,3.1717,3.1717,3.2226,3.2755,3.3212,3.379,3.4318,3.4703,3.4823,3.4847,3.4775,3.4775,3.4775,3.4823,3.54,3.593,3.6459,3.6988,3.7517,3.7974,2.7681,2.8138,2.8522,2.8522,0.0,0.0,0.0,0.0,3.2587,3.2515,3.2563,3.3308,0.0,0.0,0.0,0.0,0.0,3.3236,0.0,0.0,0.0,0.0,0.0,0.0,0.0,2.8402,2.7498,2.6898,2.6441,2.5925,2.53,2.53,0.0,0.0,2.6671,0.0,2.8763,0.0,3.1625,0.0,0.0,0.0,0.0,3.6867,3.7421,3.6771,3.7661,3.7974,3.7902,0.0,3.706,0.0,0.0,0.0,0.0,0.0,0.0,0.0,0.0,0.0,0.0,0.0,0.0,0.0,0.0,0.0,2.5012,0.0,0.0,0.0,0.0,0.0,0.0,0.0,0.0,0.0,0.0,0.0,0.0,0.0,0.0,0.0,0.0,0.0,0.0,0.0,0.0,3.0422,3.0735,3.138,3.1862,3.213,3.1886,3.1717,3.1717,3.1717,3.1862,3.2154,3.2707,3.3236,3.3741,3.4198,3.4558,3.4775,3.4775,3.4775,3.4775,3.4775,3.4775,3.4799,3.5064,3.5665,3.6435,3.6651,3.7252,3.7974,2.7882,2.8258,2.8522,2.8522,0.0,0.0,0.0,0.0,0.0,0.0,0.0,0.0,3.6747,3.5304,0.0,0.0,3.718,3.5711,0.0,0.0,3.2707,0.0,0.0,0.0,0.0,0.0,0.0,2.7114,2.6801,2.6273,2.5516,0.0,0.0,0.0,0.0,2.8426,3.0086,0.0,3.3356,3.3885,3.5016,3.5112,3.4775,3.6627,3.7613,3.7974,3.7974,3.7974,3.7974,3.7974,3.7469,0.0,3.7397,0.0,0.0,0.0,0.0,0.0,3.0934,0.0,0.0,0.0,0.0,0.0,0.0,0.0,0.0,0.0,0.0,0.0,0.0,0.0,0.0,0.0,0.0,0.0,0.0,0.0,0.0,0.0,0.0,0.0,0.0,0.0,0.0,0.0,0.0,0.0,2.9845,3.0778,3.1553,3.225,3.191,3.1717,3.1717,3.1862,3.2106,3.2515,3.3188,3.3765,3.4222,3.4751,3.504,3.504,3.504,3.4968,3.4775,3.4775,3.4775,3.4799,3.4943,3.5593,3.6411,3.6411,3.7084,3.7974,2.8378,2.8498,0.0,0.0,0.0,0.0,0.0,0.0,0.0,0.0,0.0,0.0,0.0,0.0,0.0,0.0,0.0,3.8671,3.8671,0.0,3.326,0.0,0.0,3.0874,0.0,0.0,0.0,0.0,0.0,0.0,0.0,0.0,0.0,0.0,2.6657,2.8691,3.1669,3.225,3.427,3.7036,3.7108,3.7397,3.7685,0.0,3.6651,3.7974,3.7974,0.0,0.0,3.7974,3.795,0.0,0.0,0.0,0.0,0.0,0.0,0.0,0.0,0.0,0.0,3.2356,0.0,0.0,0.0,0.0,2.8336,0.0,0.0,0.0,0.0,0.0,0.0,0.0,0.0,0.0,0.0,0.0,0.0,0.0,0.0,0.0,0.0,0.0,0.0,0.0,0.0,0.0,2.9268,2.9845,3.0657,3.1693,3.1717,3.1717,3.1717,3.2202,3.2491,3.2515,3.3478,3.4246,3.4775,3.5352,3.5593,3.5593,3.5593,3.5304,3.4775,3.4775,3.4775,3.4823,3.54,3.593,3.6411,3.6411,3.7084,3.7974,2.8402,0.0,0.0,0.0,0.0,0.0,0.0,3.1211,0.0,0.0,0.0,0.0,0.0,4.1581,4.2038,0.0,0.0,4.1629,4.0956,3.8431,0.0,0.0,0.0,3.2659,0.0,0.0,0.0,0.0,0.0,0.0,0.0,0.0,0.0,0.0,0.0,2.9556,0.0,0.0,0.0,0.0,0.0,3.5641,3.504,0.0,0.0,3.7974,3.7974,3.7974,0.0,3.7974,3.7974,3.7926,3.7565,3.6603,3.5618,3.5696,3.4576,0.0,0.0,0.0,3.4657,3.4906,0.0,0.0,0.0,0.0,0.0,0.0,0.0,0.0,0.0,0.0,0.0,0.0,0.0,0.0,0.0,0.0,0.0,0.0,0.0,0.0,0.0,0.0,0.0,0.0,0.0,0.0,0.0,2.9412,3.0735,3.2178,3.191,3.1886,3.2226,3.2418,3.302,3.4054,3.4342,3.4967,3.5857,3.5689,3.5617,3.5593,3.5256,3.4943,3.4847,3.5159,3.5352,3.54,3.593,3.6675,3.7397,3.706,3.7613,3.8575,2.845,0.0,0.0,0.0,0.0,0.0,0.0,0.0,0.0,0.0,3.7469,0.0,4.4333,0.0,4.4948,0.0,4.6054,4.4251,4.2615,4.0715,0.0,3.8599,3.6386,0.0,0.0,0.0,0.0,0.0,0.0,2.7498,0.0,0.0,0.0,0.0,0.0,2.9436,3.2034,0.0,3.4799,0.0,0.0,3.5016,0.0,0.0,3.7132,3.7204,0.0,3.7974,3.7974,3.7974,3.7974,3.7974,3.7974,3.7328,3.6635,3.7008,3.6112,3.5328,3.6628,3.6305,0.0,3.6368,3.5069,0.0,3.2975,0.0,0.0,0.0,0.0,0.0,0.0,0.0,0.0,0.0,0.0,0.0,0.0,2.3471,0.0,0.0,0.0,0.0,0.0,0.0,0.0,0.0,0.0,0.0,0.0,0.0,3.035,3.2154,3.2271,3.2322,3.2491,3.3236,3.403,3.4775,3.5208,3.5737,3.6386,3.605,3.5785,3.5593,3.5256,3.5063,3.5087,3.5473,3.5833,3.6218,3.6771,3.7517,3.8214,3.7661,3.8166,3.9176,2.8498,0.0,0.0,0.0,2.8955,0.0,0.0,0.0,3.5425,0.0,3.8719,4.2158,4.4285,4.5462,4.7161,4.9686,4.8483,0.0,4.3842,4.223,0.0,0.0,3.8214,3.7324,3.7204,0.0,0.0,0.0,0.0,0.0,0.0,0.0,0.0,0.0,2.7162,0.0,3.097,3.2515,3.4102,3.5593,3.5665,3.5641,3.5593,3.5689,3.5689,3.5833,3.7421,3.7974,3.7974,3.8027,3.8027,3.7974,3.8027,3.821,3.8271,3.7761,3.8007,3.8206,3.7513,3.6899,3.6554,3.6749,0.0,0.0,0.0,0.0,3.4274,0.0,0.0,0.0,0.0,0.0,0.0,0.0,0.0,0.0,0.0,0.0,0.0,0.0,0.0,0.0,0.0,0.0,0.0,0.0,0.0,0.0,0.0,0.0,2.9484,3.1645,3.2731,3.3092,3.2659,3.4631,3.54,3.4895,3.5954,3.6435,3.6435,3.6411,3.6122,3.5617,3.5617,3.5641,3.5665,3.5689,3.6314,3.7276,3.7805,3.8383,3.8815,3.8262,3.8743,3.9705,2.8426,2.8835,2.91,0.0,2.922,2.9605,0.0,0.0,0.0,0.0,4.1389,4.4635,4.7545,4.882,4.9758,5.0431,4.9373,0.0,0.0,0.0,0.0,4.0884,4.0379,3.9224,3.7228,3.4871,0.0,3.15,0.0,0.0,2.8282,0.0,0.0,0.0,0.0,0.0,3.035,3.1144,3.2875,3.5087,3.6314,3.6074,0.0,0.0,3.6651,3.5833,3.7421,3.7974,3.8027,3.8262,3.8133,3.8027,3.8238,3.8185,3.8056,3.7935,3.7955,3.7976,3.7415,3.7419,3.7443,3.6921,3.6268,3.5683,0.0,0.0,0.0,0.0,0.0,0.0,0.0,0.0,0.0,0.0,0.0,0.0,0.0,0.0,0.0,0.0,0.0,0.0,0.0,0.0,0.0,0.0,0.0,0.0,0.0,0.0,0.0,3.1645,3.2731,3.3789,3.4799,3.5352,3.593,3.6579,3.6867,3.6988,3.6988,3.6579,3.6122,3.5617,3.5617,3.5833,3.6242,3.6627,3.718,3.7829,3.8383,3.9176,3.9922,3.9393,3.9609,4.021,2.8763,0.0,0.0,2.9941,0.0,0.0,3.2779,0.0,0.0,3.9898,4.3457,0.0,4.7545,4.9493,5.06,5.0359,4.9565,0.0,4.615,0.0,0.0,4.1629,4.1317,4.0379,3.8623,3.629,0.0,3.2415,0.0,0.0,2.8593,0.0,0.0,0.0,0.0,2.8527,0.0,3.0995,3.2442,3.3933,3.528,0.0,0.0,3.6146,3.6627,3.6771,3.7661,3.808,3.821,3.8473,3.8473,3.8368,3.8526,3.8579,3.8579,3.8579,3.8463,3.8224,3.7735,3.7789,3.7842,3.7147,3.7045,3.6987,3.6518,3.6488,3.6307,0.0,0.0,0.0,0.0,0.0,0.0,0.0,0.0,0.0,0.0,0.0,0.0,0.0,0.0,0.0,0.0,0.0,0.0,0.0,0.0,0.0,0.0,0.0,0.0,3.1284,3.237,3.314,3.3549,3.5376,3.6266,3.617,3.6867,3.7084,3.6843,3.6531,3.6122,3.5641,3.6098,3.6603,3.7108,3.7421,3.7998,3.8719,3.9032,3.9657,4.0331,3.9801,4.009,4.0739,0.0,0.0,0.0,0.0,0.0,0.0,0.0,3.7757,0.0,4.1244,0.0,4.7233,4.6247,4.8748,5.0287,4.9875,0.0,4.7858,4.5501,4.5149,4.4251,4.2254,4.1677,4.1148,4.0619,3.7853,0.0,0.0,0.0,0.0,0.0,0.0,0.0,0.0,0.0,0.0,0.0,3.1448,3.2515,0.0,3.379,3.4462,3.4895,3.5039,3.6266,3.793,3.8056,3.8185,3.8421,3.8684,3.8736,3.8736,3.8788,3.8998,3.9206,3.9206,3.905,3.877,3.8253,3.8206,3.8056,3.7416,3.7668,3.809,3.7965,3.8391,3.8492,3.7588,3.7008,3.6185,0.0,0.0,0.0,0.0,0.0,0.0,0.0,0.0,0.0,0.0,0.0,0.0,0.0,0.0,0.0,0.0,0.0,0.0,0.0,0.0,0.0,3.0591,3.1937,0.0,3.1504,0.0,3.6435,3.516,3.6459,3.6843,3.6411,3.6411,3.6194,3.5881,3.6867,3.7637,3.819,3.8118,3.8647,3.9489,3.9417,3.9801,4.0331,3.9801,4.0306,4.1268,0.0,0.0,0.0,0.0,0.0,3.6386,4.1446,4.2073,4.2206,4.3,4.6054,4.7906,4.7305,4.8507,4.9325,4.9229,4.8339,0.0,0.0,0.0,0.0,4.3289,4.276,4.2289,4.1701,3.8214,3.5809,0.0,0.0,0.0,0.0,0.0,0.0,0.0,0.0,0.0,3.0816,3.1564,0.0,3.3814,3.4871,3.54,3.5569,3.6435,3.7167,3.7761,3.8408,3.8421,3.808,3.8368,3.8473,3.8526,3.8736,3.8841,3.8893,3.8893,3.905,3.9082,3.8511,3.8863,3.9091,3.7842,3.8166,3.8542,3.7817,3.7916,3.8241,3.8517,3.8115,3.7387,3.626,0.0,0.0,0.0,0.0,0.0,0.0,0.0,0.0,0.0,0.0,0.0,0.0,0.0,0.0,0.0,0.0,0.0,0.0,0.0,0.0,0.0,3.1913,0.0,0.0,0.0,3.6627,3.6771,3.6627,3.6483,3.6411,3.6411,3.6603,3.694,3.7565,3.8407,3.9296,3.8864,3.8791,3.8912,3.8455,3.9152,4.0331,3.9801,4.0547,4.1774,0.0,0.0,0.0,0.0,0.0,0.0,0.0,4.4251,0.0,4.514,4.6271,4.6968,4.6704,4.8122,4.8964,4.87,4.7954,4.7161,4.6367,4.5245,4.4251,4.3168,4.2615,0.0,4.1172,3.8864,3.6579,3.4366,0.0,0.0,0.0,0.0,0.0,0.0,0.0,3.0431,0.0,0.0,0.0,3.3741,3.4799,3.5376,3.5665,3.617,3.6826,3.7436,3.7858,3.8073,3.8315,3.8893,3.905,3.9102,3.9206,3.9283,3.9283,3.9283,3.9258,3.926,3.8935,3.9162,3.934,3.8638,3.8891,3.9145,3.8417,3.8567,3.8894,3.8868,3.8868,3.8467,3.7061,3.5161,0.0,0.0,0.0,0.0,0.0,0.0,0.0,0.0,0.0,0.0,0.0,0.0,0.0,0.0,0.0,0.0,0.0,0.0,0.0,0.0,0.0,0.0,0.0,0.0,0.0,3.4775,3.617,3.6675,3.6435,3.7276,3.7637,3.7661,3.8767,3.9369,3.9561,3.9032,3.8647,3.8383,3.8407,3.9056,4.0018,4.0306,4.1076,4.1942,0.0,3.2343,0.0,0.0,3.7853,0.0,4.3241,4.5309,4.6655,4.7016,4.6487,4.6102,4.6102,4.7473,4.8243,4.7834,4.7305,4.6583,4.5645,4.4611,4.3649,4.2867,4.2217,4.1461,4.0739,3.9465,3.7421,0.0,0.0,0.0,0.0,0.0,0.0,0.0,0.0,0.0,0.0,0.0,3.4102,3.403,3.4968,3.5449,3.5641,3.5857,3.6461,3.7163,3.738,3.7827,3.8484,3.9337,3.9645,3.9645,3.9645,3.9645,3.9697,3.9697,3.9542,3.9387,3.9387,3.9387,3.9387,3.9387,3.9542,3.9572,3.9145,3.9371,3.9572,3.9145,3.9396,3.9295,3.7965,3.7061,0.0,0.0,0.0,0.0,0.0,0.0,0.0,0.0,0.0,0.0,0.0,0.0,0.0,0.0,0.0,0.0,0.0,0.0,0.0,0.0,0.0,3.1404,3.1384,0.0,3.5256,0.0,3.617,3.7204,3.6964,3.8118,3.8527,3.8407,3.9681,3.9994,3.9561,3.9032,3.8551,3.819,3.8647,3.9272,4.0042,4.0884,4.1653,4.2303,0.0,0.0,0.0,0.0,0.0,0.0,4.3877,4.5197,4.6511,4.7954,4.7257,4.6631,4.6631,4.6391,4.6199,4.615,4.5606,4.5053,4.4477,4.3505,4.2916,4.2819,4.1798,4.1437,4.1822,3.985,3.795,0.0,0.0,0.0,0.0,0.0,0.0,0.0,0.0,0.0,0.0,3.4752,3.528,3.617,3.6747,3.6435,3.5713,3.6675,3.6973,3.696,3.7931,3.8237,3.8278,3.9057,3.931,3.931,3.931,3.949,3.9697,3.9697,3.9697,3.9645,3.9645,3.9645,3.9645,3.9645,3.9697,3.9672,3.9622,3.9647,3.9672,3.9622,3.9672,3.9647,3.9496,3.8041,3.6447,0.0,0.0,0.0,0.0,0.0,0.0,0.0,0.0,0.0,0.0,0.0,0.0,0.0,0.0,0.0,0.0,0.0,0.0,2.8691,0.0,3.1144,3.3044,3.4342,0.0,3.7469,3.7757,3.8142,3.8575,3.8214,3.8575,3.9465,3.9609,3.9657,3.9561,3.9032,3.8791,3.8743,3.8791,3.9729,4.1052,4.1148,4.211,4.3361,0.0,0.0,0.0,0.0,0.0,0.0,0.0,4.5125,4.579,4.6752,4.6511,4.6247,4.6247,4.6054,4.5934,4.5934,4.5101,4.4645,4.4741,4.3818,4.3072,4.2843,4.241,4.1774,4.1052,3.9874,3.8334,0.0,0.0,0.0,0.0,0.0,0.0,0.0,0.0,3.4727,3.5959,3.6509,3.6771,3.6867,3.6771,3.6459,3.6146,3.6555,3.6847,3.7146,3.7737,3.7968,3.8179,3.9032,3.931,3.931,3.949,3.9645,3.9697,3.9697,3.9697,3.9697,3.9697,3.9697,3.9697,3.9697,3.9697,3.9697,3.9697,3.9697,3.9697,3.9697,3.9697,3.9697,3.9697,3.9094,3.8116,0.0,0.0,0.0,0.0,0.0,0.0,0.0,0.0,0.0,0.0,0.0,0.0,0.0,0.0,0.0,0.0,0.0,0.0,3.0855,0.0,3.2875,3.4679,3.54,3.605,3.6579,3.819,3.8912,3.8839,3.9248,3.9489,3.9585,3.9272,3.9128,3.9128,3.8912,3.9008,3.9345,3.9994,4.0812,4.1725,4.2351,4.2976,4.3553,3.8527,0.0,3.9777,0.0,4.2423,4.312,4.4467,4.4924,4.5101,4.5213,4.5213,4.5333,4.5645,4.5486,4.5453,4.5453,4.4573,4.4202,4.4419,4.3577,4.2832,4.2386,4.2362,0.0,4.0643,3.9946,3.8864,3.7348,3.5379,0.0,0.0,0.0,0.0,0.0,3.5936,3.6681,3.6916,3.7853,3.7829,3.718,3.7132,3.6916,3.6651,3.6922,3.7115,3.736,3.7618,3.7726,3.7857,3.8559,3.8786,3.8887,3.9494,3.9697,3.9697,3.9697,3.9697,3.9697,3.9697,3.9697,3.9697,3.9697,3.9697,3.9697,3.9697,3.9697,3.9697,3.9697,3.9697,3.9697,3.9697,3.9572,3.8894,3.7236,0.0,0.0,0.0,0.0,0.0,0.0,0.0,3.1339,2.9707,0.0,0.0,0.0,0.0,0.0,0.0,0.0,0.0,0.0,0.0,0.0,0.0,3.5905,3.6459,3.7036,3.8936,3.9657,3.9296,3.9729,3.9729,3.9345,3.8815,3.8839,3.9272,3.9128,3.9537,4.0379,4.1124,4.1822,4.2519,4.3241,4.3625,4.3794,4.2241,4.2338,4.2423,4.3973,4.4261,4.4069,4.3601,4.4443,4.4756,4.3673,4.3553,4.3962,4.4957,4.4621,4.4309,4.4309,4.3842,4.3313,4.2891,4.2338,4.1749,0.0,0.0,4.1196,4.1172,4.0138,3.9585,3.9561,0.0,0.0,3.4727,0.0,3.4366,3.6362,3.6386,3.6988,3.7998,3.8575,3.819,3.7276,3.8359,3.8142,3.7304,3.8073,3.8056,3.7618,3.7876,3.7635,3.7243,3.7518,3.7618,3.7842,3.9243,3.9697,3.9697,3.9697,3.9697,3.9697,3.9697,3.9697,3.9697,3.9697,3.9697,3.9697,3.9697,3.9697,3.9697,3.9697,3.9697,3.9697,3.9697,3.9245,3.8341,3.6684,0.0,0.0,0.0,0.0,0.0,0.0,3.237,3.294,3.132,0.0,0.0,0.0,0.0,0.0,0.0,0.0,0.0,3.0062,2.9605,0.0,3.4751,3.5352,3.7204,4.0331,4.0379,4.0379,4.0331,3.932,3.8839,3.8791,3.8238,3.8888,4.0331,3.9801,4.0523,4.1942,4.2024,4.2591,4.3505,4.3505,4.3866,4.4189,4.1918,4.2434,4.2784,4.3625,4.377,4.3842,4.3997,4.4058,4.3914,4.3553,4.3505,4.3505,4.3529,4.3673,4.377,0.0,4.3313,4.2928,0.0,4.2313,4.1894,4.1725,4.1725,4.1389,4.0667,4.0306,3.9801,3.908,0.0,0.0,0.0,3.6146,3.7036,3.807,3.8431,3.9176,4.0162,3.997,3.9681,3.9345,3.9177,3.8844,3.8582,3.8652,3.8586,3.8466,3.8803,3.8483,3.8064,3.8391,3.8191,3.7941,3.8392,3.8818,3.922,3.9597,3.9697,3.9697,3.9697,3.9697,3.9697,3.9697,3.9697,3.9697,3.9697,3.9697,3.9597,3.922,3.9421,3.9572,3.9195,3.9295,3.8768,3.6709,3.6812,0.0,0.0,0.0,0.0,0.0,3.2911,3.3052,0.0,3.1967,0.0,0.0,0.0,0.0,0.0,0.0,0.0,0.0,3.3861,0.0,3.6964,3.7156,3.7926,3.932,3.9681,3.985,3.985,3.9513,3.9369,3.9369,3.9561,3.9922,4.0427,4.098,4.1725,4.2602,4.288,4.3457,4.4021,4.4021,4.3901,4.3746,4.2169,4.2602,4.2988,4.3433,4.3361,4.3409,4.3901,4.3577,4.3216,4.3216,4.3048,4.288,4.2843,4.2856,0.0,4.3216,4.276,4.253,4.253,4.1966,4.1677,4.1677,4.1677,4.1365,4.0715,0.0,0.0,3.9417,3.8527,3.795,3.7733,3.8527,3.9176,3.9729,4.0042,4.0451,4.086,4.0547,4.0339,4.0185,3.9564,3.9364,3.936,3.9177,3.9065,3.9025,3.9086,3.889,3.8616,3.8567,3.8316,3.804,3.8266,3.8567,3.8994,3.927,3.9245,3.9094,3.932,3.9371,3.932,3.912,3.922,3.932,3.912,3.9069,3.9019,3.8944,3.9145,3.9346,3.922,3.9471,3.917,3.7612,3.7889,3.7638,3.5629,0.0,0.0,0.0,0.0,0.0,0.0,3.3759,0.0,0.0,0.0,0.0,0.0,0.0,0.0,3.4631,3.5426,0.0,3.85,3.8147,3.8455,3.9417,3.9537,3.9609,3.9609,3.9609,3.9705,3.9922,4.0258,4.0739,4.1341,4.199,4.2687,4.3385,4.3697,4.4034,4.4285,4.4285,4.3925,4.3481,4.2723,4.2771,0.0,0.0,4.3072,0.0,4.3385,4.3072,4.2795,4.2771,4.2362,4.2241,4.2651,4.2338,4.2265,4.2675,0.0,0.0,0.0,4.1461,4.1196,4.1244,4.1196,4.1196,4.1244,4.0643,4.0331,4.0282,3.9826,4.0114,4.1076,4.0571,4.0595,4.1076,4.1028,4.0787,4.0403,4.0403,4.0282,4.0068,3.9823,3.9752,3.9853,3.9677,3.9544,3.9362,3.9119,3.8994,3.8894,3.8316,3.814,3.8241,3.8668,3.8894,3.8919,3.8919,3.8542,3.8241,3.8793,3.8919,3.8793,3.814,3.8417,3.8668,3.814,3.8015,3.814,3.8642,3.8844,3.8969,3.9496,3.9622,3.9471,3.8994,3.8919,3.8341,3.6707,0.0,0.0,0.0,0.0,0.0,0.0,3.5447,3.5257,0.0,0.0,0.0,0.0,0.0,3.4003,3.4723,3.5041,3.6539,3.9272,3.8519,3.8839,4.0282,3.9826,3.9633,3.9657,3.9705,3.9994,4.0499,4.0571,4.1437,4.2867,4.2916,4.3457,4.4285,4.4285,4.4285,4.4285,4.4237,4.3938,4.3385,0.0,0.0,4.1846,4.2784,4.2832,4.2867,4.2988,4.2891,4.2675,4.2265,4.2458,4.2362,4.1629,4.2217,4.2303,4.1629,4.1822,4.1798,4.1389,4.1244,4.1365,4.1774,4.1389,4.1365,4.1774,4.0475,3.9609,3.92,3.9465,3.9729,3.997,3.985,3.985,3.997,3.9561,3.9753,4.0403,4.0403,4.0717,4.1193,4.0971,4.1004,4.1191,4.0508,4.0267,4.0195,4.0122,4.0124,4.0049,3.9471,3.9572,3.9722,3.8567,3.8517,3.8994,3.9371,3.9396,3.9245,3.8944,3.8919,3.8793,3.814,3.8115,3.8191,3.804,3.8015,3.7914,3.7638,3.7914,3.8241,3.8391,3.8768,3.907,3.8944,3.8919,3.8492,3.7209,3.7008,0.0,0.0,3.5991,3.6228,3.6678,3.6553,3.5818,0.0,0.0,0.0,0.0,3.6109,3.7685,3.7215,3.8412,3.9231,3.9527,3.9351,3.92,3.92,3.9465,3.9826,4.021,4.0619,4.11,4.1629,4.2423,4.2976,4.3361,4.3794,4.4069,4.4285,4.4285,4.4285,4.4237,4.3866,4.3385,4.2916,4.2362,4.1749,4.1437,4.2313,4.2265,4.211,4.2434,4.2458,4.2434,4.2386,4.2651,4.2699,4.2279,4.2327,4.2313,4.1942,4.1725,4.1485,4.1196,4.1172,4.1317,4.1605,4.1581,4.1557,4.1605,4.1004,4.0306,3.9537,3.9345,3.9369,3.9609,3.9609,3.9609,3.9585,3.932,3.9489,4.0042,4.0042,4.0354,4.0877,4.0852,4.1072,4.1295,4.0972,4.086,4.0902,4.0902,4.0902,4.0852,4.0551,4.0651,4.0727,3.9823,3.9747,4.0049,4.035,3.9722,3.8969,3.9195,3.8868,3.8391,3.809,3.8015,3.8015,3.8015,3.8015,3.799,3.7965,3.799,3.809,3.8341,3.8442,3.8567,3.8869,3.8265,3.7637,3.7236,3.6935,0.0,3.643,3.6964,3.7518,3.7941,3.7986,3.7486,3.6504,0.0,0.0,3.6015,3.7843,3.8615,3.8004,3.9691,4.058,4.0531,4.0146,3.9826,3.9537,4.0066,4.0739,4.1485,4.1774,4.2182,4.2711,4.3265,4.3649,4.3914,4.4165,4.4285,4.4347,4.447,4.4387,4.4146,4.4014,4.3468,4.2822,4.2049,4.1605,4.1341,4.1928,4.1605,4.1461,4.1894,4.2038,4.2254,4.2771,4.2891,4.2976,4.3241,4.2567,4.2265,4.2554,4.1701,4.1172,4.1172,4.1172,4.122,4.1293,4.1725,4.1749,4.1317,4.1509,4.11,4.0042,3.9224,3.9056,3.9489,3.9489,3.9489,3.9489,3.9393,3.9417,3.9489,3.9489,3.9678,3.9995,4.0258,4.0599,4.0963,4.1139,4.1205,4.1293,4.1347,4.1347,4.1347,4.1401,4.1505,4.1501,4.1326,4.1351,4.1455,4.1455,4.0049,3.8693,3.9572,3.9069,3.8266,3.8266,3.8191,3.814,3.814,3.8065,3.814,3.8642,3.8291,3.8065,3.8642,3.8266,3.8015,3.8466,3.7335,3.6505,3.6759,0.0,3.6985,3.648,3.7888,3.8868,3.8818,3.9039,3.9235,3.9258,3.8704,3.8699,0.0,3.9177,3.8782,3.8352,3.9965,4.1088,4.1549,4.0925,4.0643,4.0643,4.1172,4.1894,4.2819,4.2891,4.3096,4.3505,4.3601,4.3914,4.4347,4.4347,4.4409,4.447,4.4779,4.4585,4.4098,4.4301,4.3757,4.2897,4.2602,4.1846,4.1341,4.1928,4.1894,4.187,4.2024,4.241,4.2723,4.2819,4.312,4.3096,4.2303,4.253,4.2362,4.1509,4.1268,4.1172,4.1172,4.1172,4.1389,4.1822,4.1976,4.1942,4.1846,4.0619,3.9441,3.8359,3.8671,3.8864,3.8936,3.8936,3.8936,3.8912,3.8455,3.8503,3.8936,3.8936,3.934,4.0001,4.0044,4.0532,4.1182,4.0758,4.0912,4.1342,4.1538,4.1648,4.1679,4.1978,4.2333,4.2559,4.1576,4.1656,4.2087,4.2087,4.1455,4.0699,4.0475,3.9923,3.9446,3.9446,3.9069,3.8793,3.8793,3.8366,3.804,3.8115,3.7688,3.7487,3.804,3.7688,3.7186,3.6857,3.6581,3.6103,3.5228,0.0,3.6985,3.6458,3.7864,3.8818,3.8615,3.8588,3.871,3.8948,3.929,3.922,3.8685,4.0269,4.0765,3.9801,4.0689,4.1215,4.123,4.1591,4.1725,4.1725,4.2313,4.2651,4.2843,4.3192,4.3433,4.3529,4.3949,4.4398,4.4717,4.4717,4.4902,4.5147,4.5208,4.4865,4.435,4.3944,4.3438,4.2848,4.241,4.1942,4.1605,4.1557,4.1774,4.1966,4.1966,4.2663,4.3072,4.2867,4.3192,4.3337,4.2856,4.2519,4.2313,4.2062,4.1509,4.1172,4.1172,4.1172,4.1293,4.1533,4.1822,4.1966,4.1966,4.0427,3.9369,3.8864,3.8527,3.8359,3.8359,3.8359,3.8359,3.8359,3.8094,3.8118,3.8359,3.8359,3.8725,3.9364,3.9685,4.0286,4.1052,4.1101,4.1384,4.1742,4.1885,4.1997,4.214,4.2307,4.2649,4.2886,4.2384,4.2384,4.2665,4.2665,4.2208,4.1605,4.0752,4.0551,4.0501,4.0199,4.0174,4.0199,4.0199,3.9772,3.9371,3.9371,3.8693,3.8165,3.8417,3.7764,3.7111,3.6883,3.6056,0.0,0.0,3.6332,3.7211,3.7262,3.8994,4.0272,4.0442,4.0467,4.0639,4.1081,4.1355,4.1334,4.0943,4.1703,4.1861,4.12,4.1623,4.1871,4.1895,4.2252,4.2517,4.267,4.3024,4.3433,4.3869,4.411,4.4329,4.4451,4.4719,4.4902,4.5086,4.5086,4.4976,4.4888,4.5069,4.4611,4.3869,4.4094,4.383,4.3415,4.1894,4.1798,4.1653,4.1244,4.1629,4.2014,4.2193,4.2928,4.3433,4.3168,4.3457,4.3649,4.3529,4.2808,4.2447,4.2795,4.1918,4.1365,4.1365,4.1244,4.1172,4.1172,4.1581,4.1798,4.1798,4.0475,3.9729,3.9609,3.8767,3.8286,3.819,3.831,3.8214,3.7998,3.8118,3.8094,3.7998,3.8118,3.8431,3.8864,3.9393,4.0009,4.074,4.1153,4.1566,4.1883,4.1972,4.2142,4.2425,4.2457,4.2737,4.2986,4.2986,4.3062,4.3162,4.3162,4.2861,4.2333,4.1354,4.1404,4.158,4.1028,4.1204,4.1505,4.13,4.0949,4.0701,4.0701,3.9923,3.9245,3.9245,3.8442,3.7688,3.7412,0.0,0.0,0.0,3.7036,3.7889,3.8693,4.0247,4.1555,4.2162,4.2213,4.2439,4.2936,4.3087,4.3162,4.3162,4.3062,4.2903,4.2766,4.2568,4.253,4.2739,4.2974,4.324,4.3456,4.3687,4.4183,4.4779,4.4902,4.5086,4.5331,4.5331,4.5331,4.5392,4.5392,4.5132,4.4759,4.4997,4.4519,4.3696,4.4352,4.4342,4.4041,4.1341,4.1244,4.122,4.1196,4.1629,4.2193,4.2699,4.3168,4.3697,4.4117,4.4213,4.4021,4.3553,4.3433,4.3216,4.2867,4.2289,4.1918,4.1918,4.1461,4.1172,4.1172,4.122,4.1244,4.1244,4.0643,4.009,3.9609,3.9537,3.9248,3.8767,3.9248,3.896,3.7998,3.8527,3.8479,3.8022,3.8527,3.8767,3.8864,3.9393,3.9922,4.0459,4.0483,4.082,4.1287,4.1549,4.1859,4.2167,4.2425,4.2737,4.2986,4.2986,4.3338,4.374,4.374,4.3714,4.3564,4.2961,4.2811,4.2735,4.2238,4.2112,4.1957,4.1401,4.125,4.1225,4.1225,4.0802,4.04,4.04,3.9898,3.917,3.8115,0.0,0.0,3.8542,3.8743,3.932,4.0849,4.1175,4.1555,4.2162,4.2213,4.2439,4.2936,4.3463,4.374,4.374,4.4159,4.4569,4.4799,4.3296,4.2777,4.3445,4.3735,4.4026,4.4227,4.4583,4.473,4.484,4.5147,4.527,4.5331,4.5331,4.5453,4.5757,4.5757,4.5615,4.5438,4.5438,4.5062,4.451,4.456,4.4593,4.4568,4.2254,4.1894,4.1581,4.1244,4.1629,4.2038,4.2289,4.2711,4.312,4.3337,4.3361,4.3409,4.3505,4.3241,4.2976,4.2843,4.2338,4.1822,4.1509,4.1293,4.1172,4.1172,4.1172,4.1172,4.1172,4.0667,4.0451,4.0595,4.0258,3.9994,3.9801,3.9994,3.9705,3.9008,3.9224,3.9369,3.9489,3.9705,3.9994,4.0306,4.0499,4.0691,4.0884,4.0884,4.1004,4.123,4.1492,4.1802,4.2216,4.2821,4.3262,4.3539,4.389,4.4141,4.4317,4.4317,4.4317,4.4192,4.3639,4.3237,4.2836,4.2338,4.2464,4.2564,4.1982,4.1856,4.1856,4.1856,4.1404,4.0974,4.0974,4.0576,3.9948,3.917,0.0,3.912,3.9346,3.9973,4.0752,4.1731,4.2459,4.2811,4.274,4.3288,4.3639,4.3489,4.3991,4.4317,4.4317,4.4669,4.4892,4.4997,4.4505,4.4352,4.4622,4.4768,4.4866,4.4902,4.5025,4.5208,4.5392,4.5228,4.526,4.5415,4.5067,4.4976,4.5094,4.5094,4.4828,4.4468,4.4819,4.4618,4.4192,4.4895,4.5171,4.5221,4.2916,4.2386,4.1846,4.1485,4.1784,4.1966,4.1966,4.2567,4.3,4.3,4.3144,4.3385,4.3746,4.3313,4.3,4.3,4.2375,4.1822,4.1461,4.1268,4.1172,4.1172,4.1172,4.1172,4.1172,4.0836,4.0812,4.1172,4.098,4.0812,4.0643,4.0812,4.0619,4.009,4.009,4.0306,4.0643,4.0812,4.11,4.1437,4.1437,4.1437,4.1437,4.1437,4.1437,4.1519,4.1929,4.229,4.2733,4.3391,4.3861,4.4116,4.4493,4.4744,4.4895,4.4895,4.4895,4.4769,4.4217,4.379,4.3313,4.264,4.2766,4.2886,4.2564,4.2464,4.2464,4.2464,4.2108,4.1856,4.1856,4.1555,4.1153,4.0777,4.0877,4.0978,4.0978,4.1781,4.2509,4.2886,4.3589,4.3915,4.3539,4.4192,4.4468,4.4091,4.4593,4.497,4.5146,4.5285,4.539,4.5271,4.5498,4.5514,4.5331,4.5159,4.5098,4.5147,4.5219,4.5327,4.5544,4.5291,4.5219,4.5196,4.4794,4.4618,4.4644,4.4819,4.4568,4.4116,4.4669,4.4669,4.4418,4.5196,4.5598,4.5824,4.2916,4.2327,4.1966,4.1966,4.1966,4.1966,4.1966,4.2832,4.3505,4.3505,4.3925,4.4285,4.4285,4.3842,4.3505,4.3505,4.2567,4.1966,4.1966,4.1485,4.1172,4.1172,4.1172,4.1172,4.1172,4.1172,4.1172,4.1196,4.1701,4.1701,4.1196,4.1725,4.1701,4.1196,4.1196,4.1196,4.1244,4.1749,4.199,4.199,4.199,4.199,4.199,4.199,4.199,4.2097,4.2899,4.3389,4.3792,4.4085,4.4411,4.4644,4.4644,4.502,4.5497,4.5497,4.5497,4.5372,4.4794,4.4644,4.4367,4.3263,4.2986,4.2986,4.2986,4.2986,4.2986,4.2986,4.2986,4.2986,4.2986,4.2986,4.2986,4.2986,4.3438,4.3815,4.3815,4.4267,4.4618,4.4618,4.4618,4.4644,4.4618,4.4644,4.4644,4.4644,4.5171,4.5723,4.6276,4.6301,4.612,4.5817,4.612,4.5939,4.5331,4.479,4.4609,4.484,4.4971,4.4997,4.4997,4.5354,4.5171,4.4618,4.4618,4.4618,4.4669,4.5221,4.5121,4.4669,4.5246,4.5497,4.5497,4.5497,4.5849,4.6401,4.2771,4.2097,4.1413,4.1413,4.1413,4.1413,4.1413,4.199,4.2567,4.2928,4.312,4.3361,4.3721,4.3289,4.2832,4.2471,4.2158,4.1822,4.1437,4.1268,4.1172,4.1172,4.1172,4.1172,4.1172,4.1172,4.1365,4.1725,4.1894,4.1894,4.1749,4.1894,4.1894,4.1725,4.1725,4.2134,4.2832,4.2976,4.3048,4.3048,4.3048,4.2832,4.2578,4.2578,4.2697,4.2874,4.3399,4.3767,4.4135,4.4861,4.5187,4.5296,4.5698,4.5924,4.6075,4.6075,4.6075,4.5949,4.5372,4.5221,4.497,4.384,4.384,4.394,4.3162,4.3263,4.3438,4.3062,4.3288,4.3564,4.3564,4.3865,4.4141,4.4141,4.4267,4.4367,4.4367,4.4518,4.4618,4.4618,4.4995,4.507,4.4669,4.5347,4.5648,4.5271,4.5748,4.6125,4.6301,4.6301,4.624,4.612,4.5999,4.5704,4.5066,4.553,4.5668,4.5514,4.539,4.5379,4.5329,4.4611,4.4418,4.4593,4.3815,4.3689,4.4041,4.3815,4.384,4.4091,4.4669,4.5372,4.6075,4.6075,4.6652,4.7355,4.3337,4.2543,4.1798,4.1798,4.1629,4.1509,4.1509,4.211,4.2687,4.3024,4.3241,4.3505,4.3818,4.3192,4.2699,4.2362,4.2145,4.1918,4.1822,4.1605,4.1509,4.1509,4.1293,4.1172,4.1172,4.1172,4.1341,4.1653,4.187,4.1966,4.1966,4.1966,4.2182,4.2567,4.2375,4.2856,4.3842,4.3842,4.3842,4.3818,4.3601,4.3337,4.3072,4.3072,4.3168,4.3372,4.3975,4.4347,4.4754,4.54,4.5679,4.5874,4.62,4.6301,4.6301,4.6301,4.6301,4.6225,4.5899,4.5824,4.5648,4.497,4.4694,4.4443,4.379,4.389,4.4041,4.3689,4.389,4.4141,4.4141,4.4392,4.4618,4.4618,4.4819,4.497,4.497,4.5146,4.5296,4.5296,4.5598,4.5673,4.5321,4.5899,4.6175,4.5849,4.6125,4.6301,4.6301,4.6301,4.624,4.612,4.5999,4.5689,4.5022,4.5845,4.592,4.5171,4.4919,4.4945,4.5121,4.4443,4.4317,4.4593,4.3915,4.3815,4.4116,4.4016,4.4166,4.4543,4.5321,4.6024,4.6652,4.6853,4.7355,4.7857,4.4141,4.3337,4.2675,4.2675,4.2254,4.1966,4.1966,4.2856,4.3505,4.3505,4.3962,4.4189,4.4141,4.3289,4.2747,4.2747,4.2362,4.2313,4.2795,4.2362,4.2038,4.2038,4.1581,4.1317,4.1317,4.122,4.1172,4.1172,4.1677,4.1894,4.1894,4.2,4.2495,4.3433,4.3024,4.3385,4.4285,4.4285,4.4285,4.4237,4.3794,4.3577,4.3577,4.3577,4.3577,4.371,4.4523,4.5025,4.5331,4.5696,4.5999,4.6301,4.6301,4.6301,4.6301,4.6301,4.6301,4.6301,4.6301,4.6301,4.6301,4.6301,4.5547,4.4769,4.4719,4.4694,4.4694,4.4644,4.4669,4.4694,4.4694,4.4744,4.4769,4.4769,4.5221,4.5573,4.5573,4.5999,4.6301,4.6301,4.6301,4.6301,4.6301,4.6301,4.6301,4.6301,4.6301,4.6301,4.6301,4.6301,4.618,4.5817,4.612,4.593,4.5082,4.5795,4.5604,4.4311,4.4077,4.4217,4.4694,4.4644,4.4644,4.4694,4.4644,4.4644,4.4744,4.5221,4.5447,4.5598,4.6602,4.7018,4.7193,4.7682,4.7933,4.8134,4.3024,4.2254,4.1533,4.1533,4.1774,4.1966,4.1966,4.2856,4.3505,4.3505,4.3625,4.3553,4.3144,4.2578,4.2134,4.2134,4.2482,4.2699,4.2819,4.2699,4.2651,4.2651,4.253,4.2482,4.2482,4.1605,4.1172,4.1172,4.1293,4.1365,4.1365,4.1774,4.2303,4.2928,4.3216,4.3721,4.4285,4.4285,4.4285,4.4285,4.4165,4.4117,4.4117,4.4117,4.4278,4.4548,4.473,4.5025,4.5331,4.5696,4.5999,4.6301,4.6301,4.6301,4.6301,4.6301,4.6301,4.6301,4.6301,4.6301,4.6301,4.6301,4.6125,4.5824,4.5397,4.5296,4.5171,4.4719,4.4995,4.5296,4.5296,4.5648,4.5949,4.5949,4.605,4.6125,4.6125,4.6225,4.6301,4.6301,4.6301,4.6301,4.6301,4.6301,4.6301,4.6301,4.6301,4.6301,4.6301,4.6301,4.624,4.618,4.624,4.599,4.5379,4.5598,4.5547,4.5237,4.5171,4.5171,4.5296,4.4844,4.4869,4.5271,4.4819,4.4895,4.5271,4.4945,4.507,4.5522,4.5748,4.6627,4.7707,4.7405,4.8109,4.9113,4.2819,4.2386,4.1942,4.1942,4.2217,4.2482,4.2663,4.3385,4.3914,4.3914,4.3914,4.3818,4.3553,4.3024,4.2711,4.2711,4.2952,4.3241,4.3505,4.3265,4.312,4.312,4.294,4.2819,4.2819,4.2265,4.1942,4.1942,4.1942,4.1942,4.1942,4.2265,4.2615,4.312,4.3385,4.3818,4.4285,4.4285,4.4285,4.4285,4.4285,4.4285,4.4285,4.4285,4.4409,4.4532,4.4532,4.4779,4.5147,4.5635,4.5817,4.5878,4.618,4.618,4.6059,4.624,4.6301,4.6301,4.6301,4.6301,4.6376,4.6652,4.6702,4.6552,4.5999,4.5874,4.5799,4.5497,4.5673,4.5874,4.5874,4.6125,4.6301,4.6301,4.6301,4.6301,4.6301,4.6301,4.6301,4.6301,4.6301,4.6301,4.6301,4.6552,4.6602,4.6326,4.6552,4.6602,4.6326,4.6301,4.6426,4.6702,4.6702,4.6577,4.6276,4.6527,4.6527,4.6276,4.5748,4.5773,4.625,4.5949,4.5974,4.625,4.5949,4.5849,4.5849,4.5547,4.5598,4.5899,4.6175,4.6928,4.7908,4.7908,4.8636,4.9464,4.2952,4.2819,4.2723,4.2795,4.2891,4.3024,4.3457,4.3925,4.4285,4.4285,4.4285,4.4261,4.4165,4.3794,4.3505,4.3505,4.3601,4.3866,4.4261,4.3853,4.3649,4.3649,4.3265,4.3024,4.3024,4.3024,4.2952,4.2819,4.2819,4.2819,4.2819,4.2916,4.312,4.3505,4.3601,4.3853,4.4285,4.4285,4.4285,4.4285,4.4285,4.4285,4.4285,4.4285,4.4285,4.4285,4.4285,4.4581,4.5048,4.576,4.5846,4.5785,4.6395,4.6395,4.6213,4.6456,4.6527,4.6476,4.6552,4.6527,4.6577,4.7129,4.7255,4.7154,4.6677,4.6502,4.6426,4.6326,4.6376,4.6451,4.6451,4.6527,4.6577,4.6577,4.6577,4.6577,4.6577,4.6577,4.6577,4.6577,4.6577,4.6577,4.6577,4.6903,4.6954,4.6476,4.6878,4.6928,4.6476,4.6527,4.6803,4.7193,4.7255,4.7255,4.7255,4.7682,4.7732,4.7405,4.6476,4.6476,4.7255,4.7255,4.7255,4.7255,4.7255,4.7004,4.6577,4.6577,4.6577,4.6627,4.7079,4.7581,4.8109,4.8611,4.9063,4.9364,4.3337,4.2687,4.223,4.2747,4.312,4.3433,4.3505,4.3925,4.4285,4.4285,4.4285,4.4093,4.3673,4.3553,4.3505,4.3505,4.3901,4.4213,4.4285,4.4213,4.4165,4.4165,4.4117,4.4069,4.4069,4.4069,4.3673,4.2819,4.2819,4.2819,4.2819,4.3216,4.3433,4.3529,4.3949,4.4213,4.4285,4.4285,4.4285,4.4285,4.4285,4.4285,4.4285,4.4285,4.4285,4.4285,4.4285,4.4822,4.5594,4.6434,4.692,4.7171,4.7583,4.762,4.762,4.7682,4.738,4.7129,4.7581,4.7355,4.7154,4.7682,4.7807,4.7782,4.7707,4.733,4.6878,4.6401,4.6702,4.7029,4.7029,4.738,4.7682,4.7682,4.7682,4.7682,4.7682,4.7682,4.7682,4.7682,4.7682,4.7682,4.7682,4.7355,4.7043,4.7029,4.7043,4.7043,4.7029,4.7456,4.7732,4.7807,4.7807,4.7807,4.7807,4.7883,4.8134,4.856,4.841,4.8134,4.7807,4.7807,4.7807,4.7807,4.7807,4.7757,4.7682,4.7682,4.7682,4.7707,4.7782,4.8159,4.8661,4.8736,4.8812,4.8812,4.2279,4.2086,4.2193,4.2723,4.2952,4.3289,4.389,4.4117,4.4285,4.4285,4.4285,4.4189,4.3949,4.3986,4.3986,4.3986,4.4405,4.4717,4.4717,4.5005,4.5173,4.5173,4.4885,4.4717,4.4717,4.4429,4.4069,4.3649,4.3649,4.3649,4.3649,4.3866,4.3986,4.3925,4.4165,4.4285,4.4285,4.4285,4.4285,4.4309,4.4621,4.4549,4.4357,4.4933,4.4981,4.4765,4.5053,4.5444,4.5876,4.6412,4.6739,4.6929,4.7432,4.7683,4.7746,4.7845,4.7732,4.7606,4.7857,4.7732,4.7707,4.8259,4.8385,4.8385,4.8385,4.8209,4.7883,4.733,4.7405,4.7556,4.7556,4.7757,4.7908,4.7908,4.7908,4.7908,4.7908,4.7908,4.7908,4.7908,4.7908,4.7908,4.7908,4.7707,4.7556,4.7556,4.7556,4.7556,4.7556,4.7782,4.8058,4.8385,4.8385,4.8535,4.8837,4.8862,4.8987,4.9238,4.9238,4.9088,4.8862,4.8862,4.8686,4.8385,4.8385,4.8209,4.7908,4.7908,4.7908,4.7908,4.7908,4.8259,4.8812,4.9113,4.9238,4.9188]}]]